[[{"header":{"parameterUnit":"m.s-1","parameterCategory":1,"la1":30.6,"la2":29.2853,"lo1":-89.7004,"lo2":-87.6739,"dy":0.0162,"dx":0.0183,"nx":112,"ny":82,"refTime":"2024-04-26T00:00:00:Z","depth":0,"parameterNumber":2,"parameterNumberName":"U-component_of_WINDS"},"data":[0.0,0.0,0.0,0.0,0.0,0.0,0.0,0.0,0.0,0.0,0.0,0.0,0.0,0.0,0.0,0.0,0.0,0.0,0.0,0.0,0.0,0.0,0.0,0.0,0.0,0.0,0.0,0.0,0.0,0.0,0.0,0.0,0.0,0.0,0.0,0.0,0.0,0.0,0.0,0.0,0.0,0.0,0.0,0.0,0.0,0.0,0.0,0.0,0.0,0.0,0.0,0.0,0.0,0.0,0.0,0.0,0.0,0.0,0.0,0.0,0.0,0.0,0.0,0.0,0.0,0.0,0.0,0.0,0.0,0.0,0.0,0.0,0.0,0.0,0.0,0.0,0.0,0.0,0.0,0.0,0.0,0.0,0.0,0.0,0.0,0.0,0.0,0.0,0.0,0.0,-4.3559,-4.3469,-4.3439,-4.3409,-4.329,-4.329,-4.329,-4.329,0.0,0.0,0.0,0.0,0.0,0.0,0.0,0.0,0.0,0.0,0.0,0.0,0.0,0.0,0.0,0.0,0.0,0.0,0.0,0.0,0.0,0.0,0.0,0.0,0.0,0.0,0.0,0.0,0.0,0.0,0.0,0.0,0.0,0.0,0.0,0.0,0.0,0.0,0.0,0.0,0.0,0.0,0.0,0.0,0.0,0.0,0.0,0.0,0.0,0.0,0.0,0.0,0.0,0.0,0.0,0.0,0.0,0.0,0.0,0.0,0.0,0.0,0.0,0.0,0.0,0.0,0.0,0.0,0.0,0.0,0.0,0.0,0.0,0.0,0.0,0.0,0.0,0.0,0.0,0.0,0.0,0.0,0.0,0.0,0.0,0.0,0.0,0.0,0.0,0.0,0.0,0.0,0.0,0.0,0.0,0.0,0.0,0.0,0.0,0.0,0.0,0.0,0.0,0.0,-4.4796,-4.4227,-4.4167,-4.3928,-4.3349,-4.329,-4.329,-4.329,0.0,0.0,0.0,0.0,0.0,0.0,0.0,0.0,0.0,0.0,0.0,0.0,0.0,0.0,0.0,0.0,0.0,0.0,0.0,0.0,0.0,0.0,0.0,0.0,0.0,0.0,0.0,0.0,0.0,0.0,0.0,0.0,0.0,0.0,0.0,0.0,0.0,0.0,0.0,0.0,0.0,0.0,0.0,0.0,0.0,0.0,0.0,0.0,0.0,0.0,0.0,0.0,0.0,0.0,0.0,0.0,0.0,0.0,0.0,0.0,0.0,0.0,0.0,0.0,0.0,0.0,0.0,0.0,0.0,0.0,0.0,0.0,0.0,0.0,0.0,0.0,0.0,0.0,0.0,0.0,0.0,0.0,0.0,0.0,0.0,0.0,0.0,0.0,0.0,0.0,0.0,0.0,0.0,0.0,0.0,0.0,0.0,0.0,0.0,0.0,0.0,0.0,0.0,-4.5304,-4.5185,-4.4885,-4.4855,-4.4586,-4.3888,-4.3828,-4.3678,-4.3319,-4.329,0.0,0.0,0.0,0.0,0.0,0.0,0.0,0.0,0.0,0.0,0.0,0.0,0.0,0.0,0.0,0.0,0.0,0.0,0.0,0.0,0.0,0.0,0.0,0.0,0.0,0.0,0.0,0.0,0.0,0.0,0.0,0.0,0.0,0.0,0.0,0.0,0.0,0.0,0.0,0.0,0.0,0.0,0.0,0.0,0.0,0.0,0.0,0.0,0.0,0.0,0.0,0.0,0.0,0.0,0.0,0.0,0.0,0.0,0.0,0.0,0.0,0.0,0.0,0.0,0.0,0.0,0.0,0.0,0.0,0.0,0.0,0.0,0.0,0.0,0.0,0.0,0.0,0.0,0.0,0.0,0.0,0.0,0.0,0.0,0.0,0.0,0.0,0.0,0.0,0.0,0.0,0.0,0.0,0.0,0.0,0.0,0.0,0.0,0.0,0.0,0.0,0.0,-4.5753,-4.5693,-4.5544,-4.5544,-4.5274,-4.4616,-4.4407,-4.4067,-4.3559,-4.3379,0.0,0.0,0.0,0.0,0.0,0.0,0.0,0.0,0.0,0.0,0.0,0.0,0.0,0.0,0.0,0.0,0.0,0.0,0.0,0.0,0.0,0.0,0.0,0.0,0.0,0.0,0.0,0.0,0.0,0.0,0.0,0.0,0.0,0.0,0.0,0.0,0.0,0.0,0.0,0.0,0.0,0.0,0.0,0.0,0.0,0.0,0.0,0.0,0.0,0.0,0.0,0.0,0.0,0.0,0.0,0.0,0.0,0.0,0.0,0.0,0.0,0.0,0.0,0.0,0.0,0.0,0.0,0.0,0.0,0.0,0.0,0.0,0.0,0.0,0.0,0.0,0.0,0.0,0.0,0.0,0.0,0.0,0.0,0.0,0.0,0.0,0.0,0.0,0.0,0.0,0.0,0.0,0.0,0.0,0.0,0.0,0.0,0.0,0.0,0.0,0.0,0.0,-4.716,-4.692,-4.6322,-4.6219,-4.5963,-4.5274,-4.4676,-4.4287,-4.4257,-4.3618,0.0,0.0,0.0,0.0,0.0,0.0,0.0,0.0,0.0,0.0,0.0,0.0,0.0,0.0,0.0,0.0,0.0,0.0,0.0,0.0,0.0,0.0,0.0,0.0,0.0,0.0,0.0,0.0,0.0,0.0,0.0,0.0,0.0,0.0,0.0,0.0,0.0,0.0,0.0,0.0,0.0,0.0,0.0,0.0,0.0,0.0,0.0,0.0,0.0,0.0,0.0,0.0,0.0,0.0,0.0,0.0,0.0,0.0,0.0,0.0,0.0,0.0,0.0,0.0,0.0,0.0,0.0,0.0,0.0,0.0,0.0,0.0,0.0,0.0,0.0,0.0,0.0,0.0,0.0,0.0,0.0,0.0,0.0,0.0,0.0,0.0,0.0,0.0,0.0,0.0,0.0,0.0,0.0,0.0,0.0,0.0,0.0,0.0,0.0,0.0,0.0,0.0,-4.7309,-4.7219,-4.695,-4.692,-4.6651,-4.5992,-4.5723,-4.5394,-4.4945,0.0,0.0,0.0,0.0,0.0,0.0,0.0,0.0,0.0,0.0,0.0,0.0,0.0,0.0,0.0,0.0,0.0,0.0,0.0,0.0,0.0,0.0,0.0,0.0,0.0,0.0,0.0,0.0,0.0,0.0,0.0,0.0,0.0,0.0,0.0,0.0,0.0,0.0,0.0,0.0,0.0,0.0,0.0,0.0,0.0,0.0,0.0,0.0,0.0,0.0,0.0,0.0,0.0,0.0,0.0,0.0,0.0,0.0,0.0,0.0,0.0,0.0,0.0,0.0,0.0,0.0,0.0,0.0,0.0,0.0,0.0,0.0,0.0,0.0,0.0,0.0,0.0,0.0,0.0,0.0,0.0,0.0,0.0,0.0,0.0,0.0,0.0,0.0,0.0,0.0,0.0,0.0,0.0,0.0,0.0,0.0,0.0,0.0,0.0,0.0,0.0,0.0,-4.7309,-4.7309,-4.7309,-4.7309,-4.7309,-4.713,-4.6681,-4.6399,-4.6112,-4.5663,0.0,0.0,0.0,0.0,0.0,0.0,0.0,0.0,0.0,0.0,0.0,0.0,0.0,0.0,0.0,0.0,0.0,0.0,0.0,0.0,0.0,0.0,0.0,0.0,0.0,0.0,0.0,0.0,0.0,0.0,0.0,0.0,0.0,0.0,0.0,0.0,0.0,0.0,0.0,0.0,0.0,0.0,0.0,0.0,0.0,0.0,0.0,0.0,0.0,0.0,0.0,0.0,0.0,0.0,0.0,0.0,0.0,0.0,0.0,0.0,0.0,0.0,0.0,0.0,0.0,0.0,0.0,0.0,0.0,0.0,0.0,0.0,0.0,0.0,0.0,0.0,0.0,0.0,0.0,0.0,0.0,0.0,0.0,0.0,0.0,0.0,0.0,0.0,0.0,0.0,0.0,0.0,0.0,0.0,0.0,0.0,0.0,0.0,0.0,0.0,0.0,0.0,-4.7309,-4.7309,-4.7309,-4.7309,-4.7309,-4.7309,-4.7309,-4.6711,-4.6279,0.0,0.0,0.0,0.0,0.0,0.0,0.0,0.0,0.0,0.0,0.0,0.0,0.0,0.0,0.0,0.0,0.0,0.0,0.0,0.0,0.0,0.0,0.0,0.0,0.0,0.0,0.0,0.0,0.0,0.0,0.0,0.0,0.0,0.0,0.0,0.0,0.0,0.0,0.0,0.0,0.0,0.0,0.0,0.0,0.0,0.0,0.0,0.0,0.0,0.0,0.0,0.0,0.0,0.0,0.0,0.0,0.0,0.0,0.0,0.0,0.0,0.0,0.0,0.0,0.0,0.0,0.0,0.0,0.0,0.0,0.0,0.0,0.0,0.0,0.0,0.0,0.0,0.0,0.0,0.0,0.0,0.0,0.0,0.0,0.0,0.0,0.0,0.0,0.0,0.0,0.0,0.0,0.0,0.0,0.0,0.0,0.0,0.0,0.0,0.0,0.0,0.0,0.0,-4.7309,-4.7309,-4.7309,-4.7309,-4.7309,-4.7309,-4.7309,-4.713,-4.701,-4.701,0.0,0.0,0.0,0.0,0.0,0.0,0.0,0.0,0.0,0.0,0.0,0.0,0.0,0.0,0.0,0.0,0.0,0.0,0.0,0.0,0.0,0.0,0.0,0.0,0.0,0.0,0.0,0.0,0.0,0.0,0.0,0.0,0.0,0.0,0.0,0.0,0.0,0.0,0.0,0.0,0.0,0.0,0.0,0.0,0.0,0.0,0.0,0.0,0.0,0.0,0.0,0.0,0.0,0.0,0.0,0.0,0.0,0.0,0.0,0.0,0.0,0.0,0.0,0.0,0.0,0.0,0.0,0.0,0.0,0.0,0.0,0.0,0.0,0.0,0.0,0.0,0.0,0.0,0.0,0.0,0.0,0.0,0.0,0.0,0.0,0.0,0.0,0.0,0.0,0.0,0.0,0.0,0.0,0.0,0.0,0.0,0.0,0.0,0.0,0.0,0.0,0.0,-4.7309,-4.7309,-4.7309,-4.7309,-4.7309,-4.7309,-4.7309,-4.7309,-4.7309,-4.7309,0.0,0.0,0.0,0.0,0.0,0.0,0.0,0.0,0.0,0.0,0.0,0.0,0.0,0.0,0.0,0.0,0.0,0.0,0.0,0.0,0.0,0.0,0.0,0.0,0.0,0.0,0.0,0.0,0.0,0.0,0.0,0.0,0.0,0.0,0.0,0.0,0.0,0.0,0.0,0.0,0.0,0.0,0.0,0.0,0.0,0.0,0.0,0.0,0.0,0.0,0.0,0.0,0.0,0.0,0.0,0.0,0.0,0.0,0.0,0.0,0.0,0.0,0.0,0.0,0.0,0.0,0.0,0.0,0.0,0.0,0.0,0.0,0.0,0.0,0.0,0.0,0.0,0.0,0.0,0.0,0.0,0.0,0.0,0.0,0.0,0.0,0.0,0.0,0.0,0.0,0.0,0.0,0.0,0.0,0.0,0.0,0.0,0.0,0.0,0.0,0.0,0.0,-4.7309,-4.7309,-4.7309,-4.7309,-4.7309,-4.7309,-4.7309,-4.7309,-4.7309,-4.7309,0.0,0.0,0.0,0.0,0.0,0.0,0.0,0.0,0.0,0.0,0.0,0.0,0.0,0.0,0.0,0.0,0.0,0.0,0.0,0.0,0.0,0.0,0.0,0.0,0.0,0.0,0.0,0.0,0.0,0.0,0.0,0.0,0.0,0.0,0.0,0.0,0.0,0.0,0.0,0.0,0.0,0.0,0.0,0.0,0.0,0.0,0.0,0.0,0.0,0.0,0.0,0.0,0.0,0.0,0.0,0.0,0.0,0.0,0.0,0.0,-4.888,0.0,0.0,0.0,0.0,0.0,0.0,0.0,0.0,0.0,0.0,0.0,0.0,0.0,0.0,0.0,0.0,0.0,0.0,0.0,0.0,0.0,0.0,0.0,0.0,0.0,0.0,0.0,0.0,0.0,0.0,0.0,0.0,0.0,0.0,0.0,0.0,0.0,0.0,0.0,0.0,0.0,-4.7309,-4.7309,-4.7309,-4.7309,-4.7309,-4.7309,-4.7309,-4.7309,-4.7309,-4.7309,-4.7309,0.0,0.0,0.0,0.0,0.0,0.0,0.0,0.0,0.0,0.0,0.0,0.0,0.0,0.0,0.0,0.0,0.0,0.0,0.0,0.0,0.0,0.0,0.0,0.0,0.0,0.0,0.0,0.0,0.0,0.0,0.0,0.0,0.0,0.0,0.0,0.0,0.0,0.0,0.0,0.0,0.0,0.0,0.0,0.0,0.0,0.0,0.0,0.0,0.0,0.0,0.0,0.0,0.0,0.0,0.0,0.0,0.0,0.0,0.0,0.0,-4.9299,0.0,0.0,0.0,0.0,0.0,0.0,0.0,0.0,0.0,0.0,0.0,0.0,0.0,0.0,0.0,0.0,0.0,0.0,0.0,0.0,0.0,0.0,0.0,0.0,0.0,0.0,0.0,0.0,0.0,0.0,0.0,0.0,0.0,0.0,0.0,0.0,0.0,0.0,0.0,0.0,-4.7309,-4.7309,-4.7309,-4.7309,-4.7309,-4.7309,-4.7309,-4.7309,-4.7309,-4.7309,-4.7309,0.0,0.0,0.0,0.0,0.0,0.0,0.0,0.0,0.0,0.0,0.0,0.0,0.0,0.0,0.0,0.0,0.0,0.0,0.0,0.0,0.0,0.0,0.0,0.0,0.0,0.0,0.0,0.0,0.0,0.0,0.0,0.0,0.0,0.0,0.0,0.0,0.0,0.0,0.0,0.0,0.0,0.0,0.0,0.0,0.0,0.0,0.0,0.0,0.0,0.0,0.0,0.0,0.0,-5.1229,-5.1229,-5.1229,-5.1229,-5.1229,-5.1169,-5.0062,-4.9613,-4.9613,-4.9613,0.0,0.0,0.0,0.0,0.0,0.0,0.0,0.0,0.0,0.0,0.0,0.0,0.0,0.0,0.0,0.0,0.0,0.0,0.0,0.0,0.0,0.0,0.0,0.0,-4.7309,-4.7309,0.0,0.0,0.0,0.0,0.0,0.0,0.0,0.0,0.0,0.0,0.0,0.0,-4.7309,-4.7309,-4.7309,-4.7309,-4.7309,-4.7309,-4.7309,-4.7309,-4.7309,-4.7309,-4.7309,-4.7309,0.0,0.0,0.0,0.0,0.0,0.0,0.0,0.0,0.0,0.0,0.0,0.0,0.0,0.0,0.0,0.0,0.0,0.0,0.0,0.0,0.0,0.0,0.0,0.0,0.0,0.0,0.0,0.0,0.0,0.0,0.0,0.0,-4.8356,-4.9,0.0,0.0,0.0,0.0,0.0,0.0,0.0,0.0,0.0,0.0,0.0,0.0,0.0,-5.1079,-5.1079,-5.1169,-5.1229,-5.1229,-5.1229,-5.1229,-5.1229,-5.1229,-5.1229,-5.1199,-5.102,0.0,-5.096,-5.096,0.0,0.0,0.0,0.0,0.0,0.0,0.0,0.0,0.0,0.0,0.0,0.0,0.0,0.0,0.0,0.0,0.0,0.0,0.0,0.0,0.0,0.0,-4.7309,-4.7309,-4.7309,-4.7309,0.0,-4.7309,-4.7309,-4.7309,-4.7309,0.0,0.0,0.0,0.0,0.0,0.0,0.0,-4.7309,-4.7309,-4.7309,-4.7309,-4.7309,-4.7309,-4.7309,-4.7309,-4.7309,-4.7309,-4.7309,-4.7309,-4.7309,-4.7309,0.0,0.0,0.0,0.0,0.0,0.0,0.0,0.0,0.0,0.0,0.0,0.0,0.0,0.0,0.0,0.0,0.0,0.0,0.0,0.0,0.0,0.0,0.0,0.0,0.0,0.0,0.0,0.0,0.0,-4.87,-4.9,-4.9269,-4.9299,-4.9449,0.0,0.0,0.0,0.0,0.0,0.0,0.0,0.0,0.0,-5.1738,-5.1768,-5.1947,-5.2306,-5.2306,-5.2306,-5.2306,-5.2306,-5.2306,-5.2306,-5.2306,-5.2306,-5.2306,-5.2306,-5.2306,-5.2276,-5.1528,-5.1229,-5.1229,0.0,0.0,0.0,0.0,-5.0601,-5.0301,-4.9942,-4.9823,0.0,-4.9419,0.0,0.0,0.0,0.0,0.0,0.0,0.0,0.0,0.0,0.0,-4.8416,-4.8416,-4.8416,-4.8416,-4.8416,-4.8416,-4.8177,0.0,-4.7309,-4.7309,-4.7309,0.0,0.0,0.0,0.0,-4.7848,-4.7848,-4.8177,-4.8416,-4.8416,-4.8087,-4.7848,-4.7848,-4.7519,-4.7309,-4.7309,-4.7309,-4.7309,-4.7309,-4.7309,-4.7309,0.0,0.0,0.0,0.0,0.0,0.0,0.0,0.0,0.0,0.0,0.0,0.0,0.0,0.0,0.0,0.0,0.0,0.0,0.0,0.0,0.0,0.0,0.0,0.0,0.0,0.0,0.0,0.0,-4.9523,-4.9583,-4.9763,-4.9808,-4.9942,0.0,0.0,0.0,0.0,0.0,0.0,-5.1468,-5.1468,-5.1768,-5.2426,-5.2456,-5.2785,-5.3443,-5.3443,-5.3533,-5.3683,-5.3683,-5.3683,-5.3683,-5.3683,-5.3683,-5.3683,-5.3683,-5.3683,-5.3593,-5.2276,-5.1618,-5.1468,-5.1468,-5.1379,-5.1229,-5.1229,-5.1229,-5.1139,-5.0614,-5.0435,-5.0375,-4.9912,0.0,-4.9808,-4.9808,0.0,0.0,0.0,0.0,-4.9464,-4.9359,-4.9299,-4.9299,-4.9299,-4.9299,-4.9299,-4.9299,-4.9299,-4.903,0.0,-4.7818,-4.7818,-4.7818,0.0,0.0,0.0,0.0,-4.858,-4.858,-4.9,-4.9299,-4.9299,-4.888,-4.858,-4.858,-4.7938,-4.7549,-4.7549,-4.7399,-4.7309,-4.7309,-4.7309,-4.7309,-4.7309,0.0,0.0,0.0,0.0,0.0,0.0,0.0,0.0,0.0,0.0,0.0,0.0,0.0,0.0,0.0,0.0,0.0,0.0,0.0,0.0,0.0,0.0,0.0,0.0,0.0,0.0,0.0,0.0,0.0,-5.105,-5.1109,0.0,0.0,0.0,0.0,-5.1229,-5.1229,-5.1498,-5.2127,-5.2157,-5.2456,-5.3114,-5.3144,-5.3473,-5.4162,-5.4162,-5.4461,-5.5089,-5.5089,-5.5089,-5.5089,-5.5089,-5.5089,-5.5089,-5.5089,-5.5089,-5.4999,-5.3623,-5.2725,-5.2157,-5.2157,-5.1768,-5.1229,-5.1229,-5.1229,-5.1229,-5.1169,-5.1169,-5.1169,-5.1139,-5.1109,-5.1109,-5.1109,-5.1109,0.0,0.0,-5.0136,-4.9986,-4.9434,-4.9299,-4.9299,-4.9299,-4.9299,-4.9299,-4.9299,-4.9299,-4.9299,0.0,-4.9209,-4.9209,-4.9209,0.0,-4.9209,-4.9209,-4.9239,-4.9269,-4.9269,-4.9299,-4.9299,-4.9299,-4.9269,-4.9269,-4.9269,-4.8626,-4.8237,-4.8237,-4.7638,-4.7309,-4.7309,-4.7309,-4.7309,-4.7309,-4.7309,0.0,0.0,0.0,0.0,0.0,0.0,0.0,0.0,0.0,0.0,0.0,0.0,0.0,0.0,0.0,0.0,0.0,0.0,0.0,0.0,0.0,0.0,0.0,0.0,0.0,0.0,0.0,0.0,-5.1199,-5.1229,0.0,-5.1229,-5.1588,-5.1858,-5.1858,-5.2247,-5.2576,-5.2815,-5.3234,-5.3803,-5.4461,-5.488,-5.5418,-5.6047,-5.6496,-5.6855,-5.7094,-5.7513,-5.7723,-5.7693,-5.7274,-5.7094,-5.7064,-5.6615,-5.6406,-5.6376,-5.5897,-5.482,-5.3443,-5.2995,-5.2695,-5.2486,-5.2486,-5.2486,-5.2486,-5.2486,-5.2486,-5.2486,-5.2486,-5.2486,-5.2396,-5.1977,-5.1858,-5.1708,-5.1003,-5.1169,-5.1439,-5.1199,-5.1468,-5.1845,-5.1845,-5.1845,-5.1845,-5.1845,-5.1845,-5.1845,-5.1845,-5.0467,-4.9299,-4.9299,-4.9299,-4.9299,-4.9299,-4.9613,-4.9883,-4.9883,-5.0272,-5.0511,-5.0511,-5.0152,-4.9883,-4.9883,-4.9284,-4.897,-4.897,-4.8297,-4.7938,-4.7938,-4.7519,-4.7309,-4.7309,-4.7309,-4.7309,0.0,0.0,0.0,0.0,0.0,0.0,0.0,0.0,0.0,0.0,0.0,0.0,0.0,0.0,0.0,0.0,0.0,0.0,0.0,0.0,0.0,0.0,0.0,0.0,0.0,-5.1229,-5.1229,-5.1229,-5.1409,-5.1558,-5.1558,-5.2157,-5.2546,-5.2546,-5.3144,-5.3623,-5.3832,-5.4491,-5.5269,-5.6166,-5.6615,-5.7244,-5.8082,-5.856,-5.889,-5.9129,-5.9578,-5.9787,-5.9757,-5.9338,-5.9129,-5.9099,-5.865,-5.8321,-5.8082,-5.7872,-5.6885,-5.5448,-5.4551,-5.4042,-5.3832,-5.3623,-5.3533,-5.3503,-5.3264,-5.3174,-5.3174,-5.3174,-5.3174,-5.3084,-5.2665,-5.2546,-5.2426,-5.2007,-5.2187,-5.2546,-5.2546,-5.2845,-5.3174,-5.3174,-5.3174,-5.3174,-5.3174,-5.3174,-5.3174,-5.3174,-5.1768,-5.0647,-5.0647,-5.0647,-5.0647,-5.0647,-5.096,-5.1229,-5.1229,-5.1618,-5.1798,-5.1558,-5.1169,-5.0764,-5.0554,-4.9972,-4.9583,-4.9583,-4.8985,-4.8506,-4.8297,-4.7878,-4.7519,-4.7309,-4.7309,-4.7309,-4.7309,0.0,0.0,0.0,0.0,0.0,0.0,0.0,0.0,0.0,0.0,0.0,0.0,0.0,0.0,0.0,0.0,0.0,0.0,0.0,0.0,0.0,0.0,0.0,-5.1259,-5.1259,-5.1259,-5.1289,-5.1858,-5.2247,-5.2247,-5.2845,-5.3264,-5.3264,-5.3922,-5.4581,-5.5239,-5.5897,-5.6855,-5.8141,-5.8201,-5.883,-6.0116,-6.0146,-6.0475,-6.1134,-6.1164,-6.1164,-6.1164,-6.1164,-6.1134,-6.1134,-6.1134,-6.0745,-6.0057,-5.9428,-5.88,-5.8082,-5.6735,-5.5807,-5.5179,-5.4551,-5.4311,-5.4192,-5.3533,-5.3294,-5.3294,-5.3294,-5.3294,-5.3294,-5.3264,-5.3234,-5.3234,-5.3204,-5.3204,-5.3204,-5.3204,-5.3234,-5.3234,-5.3234,-5.3234,-5.3234,-5.3234,-5.3234,-5.3234,-5.3234,-5.3234,-5.3234,-5.3204,-5.3174,-5.3174,-5.3174,-5.3174,0.0,-5.3174,-5.3174,-5.2935,-5.2306,-5.2217,-5.1977,-5.1319,-5.0644,-5.0255,-5.0255,-4.9673,-4.906,-4.8386,-4.8327,-4.7997,-4.7339,-4.7309,-4.7309,-4.7309,0.0,0.0,0.0,0.0,0.0,0.0,0.0,0.0,0.0,0.0,0.0,0.0,0.0,0.0,0.0,0.0,0.0,0.0,0.0,0.0,0.0,-5.2636,-5.2486,-5.2007,-5.1947,-5.2097,-5.2576,-5.2785,-5.3114,-5.3593,-5.4251,-5.482,-5.5349,-5.5927,-5.6615,-5.7274,-5.7932,-5.868,-5.9518,-6.0027,-6.0475,-6.0835,-6.1313,-6.1642,-6.1822,-6.2301,-6.254,-6.251,-6.2061,-6.1822,-6.1792,-6.1313,-6.1014,-6.0805,-6.0625,-6.0446,-6.0057,-5.7752,-5.6735,-5.6555,-5.6376,-5.6286,-5.6286,-5.6077,-5.6017,-5.6017,-5.6017,-5.6017,-5.5837,-5.491,-5.464,-5.4431,-5.3443,-5.3533,-5.3922,-5.3922,-5.4281,-5.464,-5.464,-5.464,-5.464,-5.464,-5.464,-5.464,-5.464,-5.464,-5.4341,-5.3354,-5.3174,-5.3174,-5.3174,-5.3174,0.0,-5.3174,-5.3174,-5.3114,-5.2935,-5.2905,-5.2845,-5.2665,-5.2037,-5.1648,-5.1648,-5.0601,-4.9883,-4.9703,-4.9254,-4.8686,-4.8027,-4.7549,-4.7309,0.0,0.0,0.0,0.0,0.0,0.0,0.0,0.0,0.0,0.0,0.0,0.0,0.0,0.0,0.0,0.0,0.0,0.0,0.0,0.0,0.0,0.0,-5.3174,-5.3144,-5.3054,-5.2785,-5.2845,-5.3533,-5.3862,-5.4281,-5.497,-5.5628,-5.6256,-5.6944,-5.7573,-5.8231,-5.8919,-5.9578,-6.0266,-6.0924,-6.1313,-6.1642,-6.1942,-6.2301,-6.251,-6.251,-6.2899,-6.3079,-6.3079,-6.269,-6.251,0.0,-6.2121,-6.1792,-6.1523,-6.1523,-6.1373,0.0,0.0,0.0,0.0,0.0,-5.7334,-5.7094,-5.7094,-5.7094,-5.7094,-5.7094,-5.7094,-5.6944,-5.6226,-5.5987,-5.5807,-5.5029,-5.5089,-5.5418,-5.5418,-5.5688,-5.5987,-5.5987,-5.5987,-5.5987,-5.5987,-5.5987,-5.5987,-5.5987,-5.5987,0.0,-5.497,-5.4371,-5.4012,-5.4012,-5.4012,-5.4012,-5.4012,-5.4012,-5.3922,-5.3653,-5.3623,-5.3503,-5.3204,-5.2815,0.0,0.0,0.0,-5.0764,-5.0226,-4.9613,0.0,0.0,0.0,-4.7728,-4.7728,0.0,0.0,0.0,-4.6741,-4.6531,0.0,0.0,0.0,0.0,0.0,0.0,0.0,0.0,0.0,0.0,0.0,0.0,0.0,0.0,0.0,0.0,-5.3414,-5.3653,-5.4341,-5.3892,-5.3743,-5.4371,-5.4999,-5.5658,-5.6316,-5.6944,-5.7603,-5.8291,-5.8949,-5.9608,-6.0266,-6.0894,0.0,0.0,0.0,-6.248,-6.3079,-6.3079,-6.3079,-6.3079,-6.3079,-6.3079,-6.3079,-6.3079,-6.3079,-6.3079,-6.3079,-6.275,-6.2211,-6.2211,-6.1822,-6.1164,-6.0475,-6.0206,-6.0057,-5.88,-5.7962,-5.7423,-5.7334,0.0,0.0,-5.7334,-5.7334,-5.7304,-5.7244,-5.7214,-5.7184,-5.7124,-5.7094,-5.7094,-5.7094,-5.7094,-5.7094,-5.7094,-5.7094,-5.7094,-5.7094,-5.7094,-5.7094,-5.7094,-5.7094,-5.7094,-5.7094,-5.6166,-5.5388,-5.5299,-5.5299,-5.5269,-5.5209,-5.5179,-5.497,-5.4371,0.0,0.0,-5.3473,-5.3354,-5.3054,-5.2456,-5.2276,-5.1678,-5.0465,-4.9763,-4.9419,-4.9419,-4.8745,-4.8386,-4.8386,-4.7728,-4.7429,-4.7429,-4.7339,-4.7309,0.0,0.0,0.0,0.0,0.0,0.0,0.0,0.0,0.0,0.0,0.0,0.0,0.0,0.0,0.0,-5.473,-5.479,-5.5029,-5.5688,-5.5688,-5.5709,-5.5777,-5.6346,-5.7004,-5.7693,-5.8351,-5.8979,-5.9668,-6.0326,-6.1014,-6.1672,-6.1822,-6.2211,-6.2869,-6.2899,-6.2959,-6.3079,-6.3079,-6.3079,-6.3079,0.0,0.0,-6.3079,-6.3079,-6.3079,-6.3079,-6.3079,-6.3019,-6.2899,-6.2899,-6.251,-6.1852,-6.1164,-6.0924,-6.0805,-5.9997,-5.9608,-5.9428,-5.889,-5.871,-5.871,-5.871,-5.871,-5.862,-5.8082,-5.7932,0.0,-5.7244,-5.7094,-5.7094,-5.7094,-5.7094,-5.7094,-5.7094,-5.7094,-5.7094,-5.7094,-5.7094,-5.7094,-5.7094,-5.7094,-5.7094,-5.7094,-5.6885,-5.6555,-5.6047,-5.5987,-5.5777,-5.5269,-5.5179,-5.5149,-5.5029,-5.4999,-5.494,-5.482,-5.4311,-5.3952,-5.3832,-5.2815,-5.2097,-5.1828,-5.069,-5.0016,-5.0016,-4.9404,-4.912,-4.912,-4.8416,-4.8087,-4.8087,-4.7549,-4.7309,0.0,0.0,0.0,0.0,0.0,0.0,0.0,0.0,0.0,0.0,0.0,-5.3892,-5.4581,0.0,-5.482,-5.5149,-5.5478,-5.5807,-5.6188,-5.6735,-5.7154,-5.7154,-5.7423,-5.7992,-5.9009,-5.9398,-6.0027,-6.1014,-6.1403,-6.1882,-6.254,-6.26,-6.272,-6.3079,-6.3079,-6.3079,-6.3079,-6.3079,-6.3079,-6.3079,-6.3079,-6.3079,-6.3079,-6.3079,-6.3079,-6.3079,-6.3079,-6.3079,-6.3079,-6.3079,-6.2869,-6.254,-6.2241,-6.1702,-6.1074,-6.0715,-6.0595,-6.0565,-6.0236,-6.0116,-6.0057,-5.9697,-5.9608,-5.9488,-5.88,-5.862,-5.853,-5.8201,-5.8112,-5.8112,-5.8112,-5.8112,-5.8112,-5.8112,-5.8112,-5.8112,-5.8112,-5.8112,-5.8112,-5.8112,-5.8112,-5.8112,-5.8112,-5.8112,-5.7782,-5.6795,-5.6645,-5.6526,-5.6196,-5.6137,-5.6017,-5.5718,-5.5688,-5.5538,-5.5209,-5.4581,-5.4221,-5.4221,-5.3264,-5.2546,-5.2217,-5.1558,-5.105,-5.0704,-5.0092,-4.9763,-4.9763,-4.9105,-4.882,-4.882,-4.8446,-4.7938,0.0,0.0,0.0,0.0,0.0,0.0,0.0,-5.2905,-5.3533,-5.4102,-5.4311,-5.4551,-5.5089,-5.5179,-5.5239,-5.5359,-5.5837,-5.6308,-5.6526,-5.7453,-5.8171,-5.8291,-5.8441,-5.8919,-5.9997,-6.0326,-6.0924,-6.2002,-6.2211,-6.251,-6.3049,-6.3079,-6.3079,-6.3079,-6.3079,-6.3079,-6.3079,-6.3079,-6.3079,-6.3079,-6.3079,-6.3079,-6.3079,-6.3079,-6.3079,-6.3079,-6.3079,-6.3079,-6.3079,-6.3079,-6.3079,-6.3079,-6.3079,-6.2421,-6.1493,-6.1343,-6.1313,-6.1283,-6.1164,-6.1104,-6.1014,-6.0475,-6.0266,-6.0176,-5.9668,-5.9398,-5.9308,-5.9308,-5.9189,-5.9099,-5.9099,-5.9099,-5.9099,-5.9099,-5.9099,-5.9099,-5.9099,-5.9099,-5.9099,-5.9099,-5.9099,-5.9099,-5.9099,-5.9099,-5.868,-5.7483,-5.7304,-5.7244,-5.7124,-5.7094,-5.6885,-5.6406,-5.6346,-5.6077,-5.5448,-5.479,-5.4401,-5.4401,-5.3773,-5.3144,-5.2606,-5.2456,-5.2067,-5.1439,-5.0853,-5.0495,-5.0375,-4.9763,-4.9464,-4.9464,-4.9359,-4.8686,-5.1229,-5.1229,-5.1349,-5.1947,-5.2157,-5.2366,0.0,-5.3593,-5.4132,-5.4192,-5.467,-5.5089,-5.5179,-5.5179,-5.5388,-5.5957,-5.6188,-5.6585,-5.7752,-5.8022,-5.8351,-5.8919,-5.9518,-5.9937,-6.0086,-6.1164,-6.1942,-6.2091,-6.263,-6.2989,-6.3079,-6.3079,-6.3079,-6.3079,-6.3079,-6.3079,-6.3079,-6.3079,-6.3079,-6.3079,-6.3079,-6.3079,-6.3079,-6.3079,-6.3079,-6.3079,-6.3079,-6.3079,-6.3079,-6.3079,-6.3079,-6.3079,-6.3079,-6.2989,-6.278,-6.2211,-6.2002,-6.1912,-6.1313,-6.1104,-6.1104,-6.1014,-6.1014,-6.0984,-6.0924,-6.0475,-5.9967,-5.9967,-5.9548,-5.9099,-5.9099,-5.9099,-5.9099,-5.9099,-5.9099,-5.9099,-5.9099,-5.9099,-5.9099,-5.9099,-5.9099,-5.9099,-5.9099,-5.9099,-5.886,-5.8112,-5.8022,-5.7782,-5.7184,-5.7094,-5.7064,-5.7004,-5.7004,-5.6735,-5.6107,-5.5448,-5.5089,-5.5089,-5.4461,-5.4072,-5.3982,-5.3384,-5.2755,-5.2097,-5.2007,-5.1678,-5.1109,-5.0405,-5.0076,-5.0076,-4.9523,-4.9239,-5.1229,-5.1498,-5.1858,-5.2127,-5.2785,-5.3443,-5.3713,-5.4311,-5.479,-5.479,-5.4999,-5.5179,-5.5179,-5.5508,-5.5837,-5.6188,-5.6825,-5.7513,-5.8052,-5.8471,-5.8949,-5.9608,-6.0266,-6.0685,-6.0685,-6.1553,-6.2241,-6.263,-6.2929,-6.3079,-6.3079,-6.3079,-6.3079,-6.3079,-6.3079,-6.3079,-6.3079,-6.3079,-6.3079,-6.3079,-6.3079,-6.3079,-6.3079,-6.3079,-6.3079,-6.3079,-6.3079,-6.3079,-6.3079,-6.3079,-6.3079,-6.3079,-6.3079,-6.3079,-6.3049,-6.278,-6.266,-6.263,-6.2361,-6.2241,-6.2181,-6.1822,-6.1672,-6.1613,-6.1224,-6.0894,-6.0685,-6.0685,-6.0475,-6.0266,-6.0266,-5.9967,-5.9668,-5.9668,-5.9368,-5.9099,-5.9099,-5.9099,-5.9099,-5.9099,-5.9099,-5.9099,-5.9099,-5.9099,-5.9009,-5.874,-5.871,-5.859,-5.8291,-5.8261,-5.8112,-5.7723,-5.7334,-5.6855,-5.6226,-5.5927,-5.5598,-5.5209,-5.494,-5.461,-5.4221,-5.3922,-5.3473,-5.2785,-5.2785,-5.2456,-5.1798,-5.1498,-5.1169,-5.0764,-5.0541,-5.0391,-5.1439,-5.1828,-5.2306,-5.2665,-5.3473,-5.4251,-5.4431,-5.485,-5.5179,-5.5179,-5.5179,-5.5179,-5.5179,-5.5718,-5.6226,-5.6406,-5.7393,-5.8171,-5.8381,-5.8949,-5.9548,-6.0027,-6.0864,-6.1373,-6.1373,-6.1972,-6.257,-6.3049,-6.3079,-6.3079,-6.3079,-6.3079,-6.3079,-6.3079,-6.3079,-6.3079,-6.3079,-6.3079,-6.3079,-6.3079,-6.3079,-6.3079,-6.3079,-6.3079,-6.3079,-6.3079,-6.3079,-6.3079,-6.3079,-6.3079,-6.3079,-6.3079,-6.3079,-6.3079,-6.3079,-6.3079,-6.3079,-6.3079,-6.3079,-6.3079,-6.2989,-6.251,-6.2361,-6.2271,-6.1792,-6.1523,-6.1373,-6.1373,-6.1253,-6.1104,-6.1104,-6.0745,-6.0386,-6.0386,-5.9997,-5.9608,-5.9428,-5.9368,-5.9308,-5.9129,-5.9099,-5.9099,-5.9099,-5.9099,-5.9099,-5.9099,-5.9099,-5.9099,-5.9099,-5.9099,-5.8919,-5.8441,-5.7782,-5.7184,-5.6735,-5.6526,-5.6137,-5.5508,-5.5478,-5.5179,-5.4491,-5.4491,-5.4162,-5.3473,-5.3473,-5.3144,-5.2486,-5.2486,-5.2127,-5.1498,-5.1498,-5.1379,-5.2007,-5.2187,-5.2516,-5.3832,-5.4192,-5.4371,-5.5029,-5.5179,-5.5179,-5.5179,-5.5179,-5.5179,-5.5179,-5.5718,-5.6376,-5.6974,-5.7663,-5.8351,-5.8979,-5.9638,-6.0057,-6.0086,-6.1253,-6.2061,-6.2061,-6.266,-6.3049,-6.3079,-6.3079,-6.3079,-6.3079,-6.3079,-6.3079,-6.3079,-6.3079,-6.3079,-6.3079,-6.3079,-6.3079,-6.3079,-6.3079,-6.3079,-6.3079,-6.3079,-6.3079,-6.3079,-6.3079,-6.3079,-6.3079,-6.3079,-6.3079,-6.3079,-6.3079,-6.3079,-6.3079,-6.3079,-6.3079,-6.3079,-6.3079,-6.3079,-6.3079,-6.3049,-6.3049,-6.3049,-6.3019,-6.257,-6.2061,-6.2061,-6.1613,-6.1104,-6.1104,-6.1104,-6.1074,-6.1074,-6.1074,-6.0864,-6.0206,-6.0057,-5.9877,-5.9219,-5.9099,-5.9099,-5.9099,-5.9099,-5.9099,-5.9099,-5.9099,-5.9099,-5.9099,-5.9099,-5.9099,-5.9069,-5.8471,-5.8082,-5.8052,-5.7453,-5.6795,-5.6248,-5.6188,-5.5837,-5.5179,-5.5149,-5.485,-5.4192,-5.4192,-5.3832,-5.3144,-5.3144,-5.2815,-5.2187,-5.2187,-5.1828,-5.2127,-5.2845,-5.3653,-5.4102,-5.4551,-5.491,-5.5149,-5.5179,-5.5179,-5.5179,-5.5179,-5.5329,-5.5777,-5.6346,-5.7004,-5.7663,-5.8351,-5.886,-5.9069,-5.9668,-6.0266,-6.0715,-6.1553,-6.2271,-6.272,-6.2959,-6.3079,-6.3079,-6.3079,-6.3079,-6.3079,-6.3079,-6.3079,-6.3079,-6.3079,-6.3079,-6.3079,-6.3079,-6.3079,-6.3079,-6.3079,-6.3079,-6.3079,-6.3079,-6.3079,-6.3079,-6.3079,-6.3079,-6.3079,-6.3079,-6.3079,-6.3079,-6.3079,-6.3079,-6.3079,-6.3079,-6.3079,-6.3079,-6.3079,-6.3079,-6.3079,-6.3079,-6.3079,-6.3079,-6.3079,-6.2929,-6.275,-6.275,-6.26,-6.2421,-6.2421,-6.2091,-6.1762,-6.1762,-6.1433,-6.1044,-6.0805,-6.0775,-6.0715,-6.0475,-6.0057,-5.9757,-5.9757,-5.9398,-5.9099,-5.9099,-5.9099,-5.9099,-5.9099,-5.9099,-5.9099,-5.9099,-5.8919,-5.859,-5.8171,-5.7902,-5.7483,-5.6825,-5.6406,-5.6128,-5.5837,-5.5418,-5.5089,-5.485,-5.485,-5.4521,-5.3862,-5.3862,-5.3503,-5.2845,-5.2845,-5.2725,-5.2486,-5.3354,-5.4281,-5.4491,-5.488,-5.5179,-5.5179,-5.5179,-5.5179,-5.5179,-5.5388,-5.5658,-5.6107,-5.6885,-5.7603,-5.8052,-5.868,-5.9189,-5.9428,-6.0027,-6.0715,-6.1373,-6.2061,-6.26,-6.3049,-6.3079,-6.3079,-6.3079,-6.3079,-6.3079,-6.3079,-6.3079,-6.3079,-6.3079,-6.3079,-6.3079,-6.3079,-6.3079,-6.3079,-6.3079,-6.3079,-6.3079,-6.3079,-6.3079,-6.3079,-6.3079,-6.3079,-6.3079,-6.3079,-6.3079,-6.3079,-6.3079,-6.3079,-6.3079,-6.3079,-6.3079,-6.3079,-6.3079,-6.3079,-6.3079,-6.3079,-6.3079,-6.3079,-6.3079,-6.3079,-6.3079,-6.3079,-6.3079,-6.3079,-6.3079,-6.3079,-6.275,-6.245,-6.245,-6.2121,-6.1762,-6.1523,-6.1463,-6.1403,-6.1164,-6.0745,-6.0446,-6.0446,-5.9907,-5.9368,-5.9129,-5.9099,-5.9099,-5.9099,-5.9099,-5.9099,-5.9099,-5.9099,-5.8949,-5.8501,-5.8471,-5.8171,-5.7513,-5.7094,-5.6645,-5.6248,-5.5777,-5.5418,-5.5179,-5.5179,-5.497,-5.4551,-5.4551,-5.4221,-5.3563,-5.3563,-5.3414,-5.3054,-5.3743,-5.4401,-5.5029,-5.5179,-5.5179,-5.5179,-5.5179,-5.5209,-5.5239,-5.5748,-5.6248,-5.6308,-5.7304,-5.8141,-5.8171,-5.871,-5.9338,-5.9997,-6.0685,-6.1373,-6.2032,-6.266,-6.3079,-6.3079,-6.3079,-6.3079,-6.3079,-6.3079,-6.3079,-6.3079,-6.3079,-6.3079,-6.3079,-6.3079,-6.3079,-6.3079,-6.3079,-6.3079,-6.3079,-6.3079,-6.3079,-6.3079,-6.3079,-6.3079,-6.3079,-6.3079,-6.3079,-6.3079,-6.3079,-6.3079,-6.3079,-6.3079,-6.3079,-6.3079,-6.3079,-6.3079,-6.3079,-6.3079,-6.3079,-6.3079,-6.3079,-6.3079,-6.3079,-6.3079,-6.3079,-6.3079,-6.3079,-6.3079,-6.3079,-6.3079,-6.3079,-6.3079,-6.3079,-6.3079,-6.2899,-6.2271,-6.2151,-6.1972,-6.1343,-6.1194,-6.1164,-6.1134,-6.0535,-5.9877,-5.9249,-5.9129,-5.9099,-5.9099,-5.9099,-5.9099,-5.9099,-5.9099,-5.9099,-5.9099,-5.9099,-5.883,-5.8201,-5.8141,-5.7573,-5.6368,-5.6248,-5.5867,-5.5239,-5.5209,-5.5179,-5.5179,-5.5179,-5.488,-5.4251,-5.4251,-5.3892,-5.3773,-5.4431,-5.497,-5.5149,-5.5179,-5.5179,-5.5179,-5.5179,-5.5329,-5.5807,-5.6098,-5.6466,-5.7453,-5.7902,-5.8291,-5.877,-5.9009,-5.9338,-5.9997,-6.0685,-6.1373,-6.2032,-6.266,-6.3079,-6.3079,-6.3079,-6.3079,-6.3079,-6.3079,-6.3079,-6.3079,-6.3079,-6.3079,-6.3079,-6.3079,-6.3079,-6.3079,-6.3079,-6.3079,-6.3079,-6.3079,-6.3079,-6.3079,-6.3079,-6.3079,-6.3079,-6.3079,-6.3079,-6.3079,-6.3079,-6.3079,-6.3079,-6.3079,-6.3079,-6.3079,-6.3079,-6.3079,-6.3079,-6.3079,-6.3079,-6.3079,-6.3079,-6.3079,-6.3079,-6.3079,-6.3079,-6.3079,-6.3079,-6.3079,-6.3079,-6.3079,-6.3079,-6.3079,-6.3079,-6.3079,-6.3019,-6.2869,-6.2839,-6.278,-6.26,-6.2181,-6.1702,-6.1194,-6.0535,-6.0027,-5.9847,-5.9428,-5.9099,-5.9099,-5.9099,-5.9099,-5.9099,-5.9099,-5.9099,-5.9099,-5.9099,-5.9039,-5.886,-5.8411,-5.7962,-5.7633,-5.6675,-5.6107,-5.5927,-5.5448,-5.5179,-5.5179,-5.5179,-5.5089,-5.494,-5.494,-5.485,-5.4012,-5.47,-5.5179,-5.5179,-5.5179,-5.5179,-5.5179,-5.5418,-5.5718,-5.6107,-5.6615,-5.7244,-5.7992,-5.8351,-5.868,-5.9039,-5.9099,-5.9428,-6.0386,-6.0864,-6.1463,-6.2421,-6.2839,-6.3079,-6.3079,-6.3079,-6.3079,-6.3079,-6.3079,-6.3079,-6.3079,-6.3079,-6.3079,-6.3079,-6.3079,-6.3079,-6.3079,-6.3079,-6.3079,-6.3079,-6.3079,-6.3079,-6.3079,-6.3079,-6.3079,-6.3079,0.0,-6.3079,-6.3079,-6.3079,-6.3079,-6.3079,-6.3079,-6.3079,-6.3079,-6.3079,-6.3079,-6.3079,-6.3079,-6.3079,-6.3079,-6.3079,-6.3079,-6.3079,-6.3079,-6.3079,-6.3079,-6.3079,-6.3079,-6.3079,-6.3079,-6.3079,-6.3079,-6.3079,-6.3079,-6.3079,-6.3079,-6.3079,-6.3079,-6.3079,-6.278,-6.2331,-6.1642,-6.1111,-6.0578,-6.0011,-5.9513,-5.9101,-5.8942,-5.9045,-5.9099,-5.9099,-5.9099,-5.9099,-5.9099,-5.9099,-5.9099,-5.9099,-5.877,-5.8441,-5.8141,-5.7423,-5.6765,-5.6248,-5.5807,-5.5478,-5.5179,-5.5179,-5.5179,-5.5179,-5.5179,-5.5179,-5.4132,-5.476,-5.5179,-5.5179,-5.5179,-5.5179,-5.5179,-5.5688,-5.6248,-5.6286,-5.7274,-5.8141,-5.8231,-5.871,-5.9099,-5.9099,-5.9099,-5.9578,-6.0924,-6.1104,-6.1613,-6.2929,-6.3079,-6.3079,-6.3079,-6.3079,-6.3079,-6.3079,-6.3079,-6.3079,-6.3079,-6.3079,-6.3079,-6.3079,-6.3079,-6.3079,-6.3079,-6.3079,-6.3079,-6.3079,-6.3079,-6.3079,-6.3079,-6.3079,-6.3079,-6.3079,-6.3079,0.0,-6.3079,-6.3079,-6.3079,-6.3079,-6.3079,-6.3079,-6.3079,-6.3079,-6.3079,-6.3079,-6.3079,-6.3079,-6.3079,-6.3079,-6.3079,-6.3079,-6.3079,-6.3079,-6.3079,-6.3079,-6.3079,-6.3079,-6.3079,-6.3079,-6.3079,-6.3079,-6.3079,-6.3079,-6.3021,-6.3021,-6.2963,-6.3021,-6.3021,-6.2842,-6.2274,-6.1779,-6.1161,-5.9978,-5.9428,-5.9076,-5.8762,-5.8942,-5.9045,-5.9099,-5.9099,-5.9099,-5.9099,-5.9099,-5.9099,-5.9099,-5.9099,-5.886,-5.8291,-5.8171,-5.7603,-5.6436,-5.6308,-5.5897,-5.5329,-5.5239,-5.5179,-5.5179,-5.5179,-5.5179,-5.467,-5.5089,-5.5179,-5.5179,-5.5179,-5.5179,-5.5179,-5.5688,-5.6316,-5.6825,-5.7573,-5.8291,-5.883,-5.9039,-5.9099,-5.9099,-5.9099,-5.9578,-6.0924,-6.1104,-6.1613,-6.2929,-6.3079,-6.3079,-6.3079,-6.3079,-6.3079,-6.3079,-6.3079,-6.3079,-6.3079,-6.3079,-6.3079,-6.3079,-6.3079,-6.3079,-6.3079,-6.3079,-6.3079,-6.3079,-6.3079,-6.3079,-6.3079,-6.3079,-6.3079,-6.3079,-6.3079,0.0,-6.3079,-6.3079,-6.3079,-6.3079,-6.3079,-6.3079,-6.3079,-6.3079,-6.3079,-6.3079,-6.3079,-6.3079,-6.3079,-6.3079,-6.3079,-6.3079,-6.3079,-6.3079,-6.3079,-6.3079,-6.3079,-6.3079,-6.3079,-6.3079,-6.3079,-6.3079,-6.3079,-6.3021,-6.2731,-6.2468,-6.2351,-6.2615,-6.2673,-6.2643,-6.2524,-6.1788,-6.1025,-6.053,-5.9476,-5.8857,-5.9021,-5.8881,-5.8828,-5.9045,-5.9099,-5.9099,-5.9099,-5.9099,-5.9099,-5.9099,-5.9099,-5.9069,-5.8949,-5.8411,-5.8022,-5.7782,-5.6735,-5.6158,-5.6068,-5.5448,-5.5179,-5.5179,-5.5179,-5.5179,-5.491,-5.5179,-5.5179,-5.5179,-5.5179,-5.5179,-5.5179,-5.5957,-5.6735,-5.7034,-5.7902,-5.874,-5.9039,-5.9099,-5.9099,-5.9099,-5.9099,-5.9578,-6.0924,-6.1104,-6.1613,-6.2929,-6.3079,-6.3079,-6.3079,-6.3079,-6.3079,-6.3079,-6.3079,-6.3079,-6.3079,-6.3079,-6.3079,-6.3079,-6.3079,-6.3079,-6.3079,-6.3079,-6.3079,-6.3079,-6.3079,-6.3079,-6.3079,-6.3079,-6.3079,-6.3079,-6.3079,0.0,-6.3079,-6.3079,-6.3079,-6.3079,-6.3079,-6.3079,-6.3079,-6.3079,-6.3079,-6.3079,-6.3079,-6.3079,-6.3079,-6.3079,-6.3079,-6.3079,-6.3079,-6.3079,-6.3079,-6.3079,-6.3079,-6.3079,-6.3079,-6.3079,-6.3079,-6.3079,-6.2817,-6.2468,-6.2175,-6.1791,-6.1673,-6.1998,-6.2234,-6.2351,-6.2351,-6.1645,-6.0881,-6.0206,-5.9302,-5.8609,-5.8377,-5.8566,-5.8774,-5.8887,-5.8882,-5.8828,-5.8664,-5.8773,-5.8828,-5.8664,-5.8773,-5.8828,-5.8664,-5.8476,-5.8148,-5.763,-5.7196,-5.6594,-5.5753,-5.5529,-5.5304,-5.5006,-5.5128,-5.5179,-5.4999,-5.5179,-5.5179,-5.5179,-5.5179,-5.5239,-5.5359,-5.6286,-5.7124,-5.7274,-5.8261,-5.9099,-5.9099,-5.9099,-5.9099,-5.9099,-5.9099,-5.9578,-6.0924,-6.1104,-6.1613,-6.2929,-6.3079,-6.3079,-6.3079,-6.3079,-6.3079,-6.3079,-6.3079,-6.3079,-6.3079,-6.3079,-6.3079,-6.3079,-6.3079,-6.3079,-6.3079,-6.3079,-6.3079,-6.3079,-6.3079,-6.3079,-6.3079,-6.3079,-6.3079,-6.3079,-6.3079,0.0,0.0,-6.3079,-6.3079,-6.3079,-6.3079,-6.3079,-6.3079,-6.3079,-6.3079,-6.3079,-6.3079,-6.3079,-6.3079,-6.3079,-6.3079,-6.3079,-6.3079,-6.3079,-6.3079,-6.3021,-6.3021,-6.2963,-6.2847,-6.2817,-6.2905,-6.2905,-6.2351,-6.1673,-6.1346,-6.0986,-6.0805,-6.1106,-6.1434,-6.1673,-6.1673,-6.1106,-6.039,-5.9479,-5.8823,-5.8192,-5.7651,-5.8061,-5.837,-5.8228,-5.8445,-5.8445,-5.814,-5.8335,-5.8335,-5.8029,-5.8335,-5.8335,-5.8029,-5.8335,-5.8153,-5.7349,-5.7449,-5.6858,-5.5613,-5.5677,-5.5486,-5.5012,-5.5172,-5.5236,-5.4999,-5.5179,-5.5179,-5.5179,-5.5179,-5.5359,-5.5957,-5.6615,-5.7274,-5.7902,-5.859,-5.9099,-5.9099,-5.9099,-5.9099,-5.9099,-5.9099,-5.9578,-6.0924,-6.1104,-6.1613,-6.2929,-6.3079,-6.3079,-6.3079,-6.3079,-6.3079,-6.3079,-6.3079,-6.3079,-6.3079,-6.3079,-6.3079,-6.3079,-6.3079,-6.3079,-6.3079,-6.3079,-6.3079,-6.3079,-6.3079,-6.3079,-6.3079,-6.3079,-6.3079,-6.3079,-6.3079,0.0,0.0,-6.3079,-6.3079,-6.3079,-6.3079,-6.3079,-6.3079,-6.3079,-6.3079,-6.3079,-6.3079,-6.3079,-6.3079,-6.3079,-6.3079,-6.3079,-6.3079,-6.3079,-6.3021,-6.2731,-6.2673,-6.2498,-6.191,-6.1969,-6.2175,-6.2175,-6.1434,-6.0624,-6.032,-5.9768,-5.9459,-5.974,-6.0075,-6.0348,-6.0348,-5.9768,-5.9058,-5.8431,-5.7744,-5.732,-5.7234,-5.7385,-5.7224,-5.6709,-5.7584,-5.814,-5.7836,-5.7892,-5.7725,-5.7416,-5.7725,-5.7725,-5.7416,-5.7725,-5.7863,-5.7749,-5.7163,-5.6811,-5.664,-5.6055,-5.5733,-5.5674,-5.5407,-5.527,-5.5119,-5.5179,-5.5179,-5.5179,-5.5179,-5.5359,-5.6017,-5.6645,-5.7304,-5.7992,-5.865,-5.9099,-5.9099,-5.9099,-5.9099,-5.9099,-5.9099,-5.9578,-6.0924,-6.1104,-6.1613,-6.2929,-6.3079,-6.3079,-6.3079,-6.3079,-6.3079,-6.3079,-6.3079,-6.3079,-6.3079,-6.3079,-6.3079,-6.3079,-6.3079,-6.3079,-6.3079,-6.3079,-6.3079,-6.3079,-6.3079,-6.3079,-6.3079,-6.3079,-6.3079,-6.3079,-6.3079,0.0,0.0,-6.3079,-6.3079,-6.3079,-6.3079,-6.3079,-6.3079,-6.3079,-6.3079,-6.3079,-6.3079,-6.3079,-6.3079,-6.3079,-6.2963,-6.2789,-6.2789,-6.2789,-6.2673,-6.2175,-6.185,-6.1613,-6.1106,-6.1135,-6.1135,-6.0684,-6.0137,-5.9493,-5.8746,-5.8242,-5.7952,-5.8052,-5.8683,-5.9211,-5.8933,-5.8683,-5.8242,-5.7377,-5.6994,-5.6541,-5.5874,-5.6465,-5.6564,-5.5376,-5.6366,-5.6908,-5.648,-5.6566,-5.6509,-5.6222,-5.6308,-5.6308,-5.6222,-5.648,-5.6566,-5.6423,-5.6507,-5.6049,-5.5083,-5.5194,-5.5103,-5.473,-5.4963,-5.5064,-5.5179,-5.5179,-5.5179,-5.5179,-5.5179,-5.5418,-5.6256,-5.6765,-5.7363,-5.8231,-5.877,-5.9099,-5.9099,-5.9099,-5.9099,-5.9099,-5.9099,-5.9518,-6.0655,-6.0984,-6.1523,-6.266,-6.2959,-6.3079,-6.3079,-6.3079,-6.3079,-6.3079,-6.3079,-6.3079,-6.3079,-6.3079,-6.3079,-6.3079,-6.3079,-6.3079,-6.3079,-6.3079,-6.3079,-6.3079,-6.3079,-6.3079,-6.3079,-6.3079,-6.3079,-6.3079,-6.3079,0.0,0.0,-6.3079,-6.3079,-6.3079,-6.3079,-6.3079,-6.3079,-6.3079,-6.3079,-6.3079,-6.3079,-6.3079,-6.3079,-6.2963,-6.2731,-6.2381,-6.2116,-6.2057,-6.1998,-6.1226,-6.0474,-5.9896,-5.9863,-5.9678,-5.9493,-5.9245,-5.8808,-5.8242,-5.735,-5.6925,-5.6601,-5.6509,-5.7157,-5.767,-5.7414,-5.7258,-5.6871,-5.6117,-5.5947,-5.5667,-5.4693,-5.5374,-5.5443,-5.4133,-5.4726,-5.5088,-5.5057,-5.5233,-5.5233,-5.4967,-5.4911,-5.4884,-5.4967,-5.5088,-5.5147,-5.5057,-5.5468,-5.5068,-5.3862,-5.436,-5.4368,-5.3861,-5.429,-5.4373,-5.5179,-5.5179,-5.5179,-5.5179,-5.5179,-5.5508,-5.6795,-5.7094,-5.7483,-5.883,-5.9099,-5.9099,-5.9099,-5.9099,-5.9099,-5.9099,-5.9099,-5.9338,-5.9997,-6.0685,-6.1373,-6.2032,-6.269,-6.3079,-6.3079,-6.3079,-6.3079,-6.3079,-6.3079,0.0,-6.3079,-6.3079,-6.3079,-6.3079,-6.3079,-6.3079,-6.3079,-6.3079,-6.3079,-6.3079,-6.3079,-6.3079,-6.3079,-6.3079,-6.3079,0.0,0.0,0.0,0.0,-6.3079,-6.3079,-6.3079,-6.3079,-6.3079,-6.3079,-6.3079,-6.3079,-6.3079,-6.3079,-6.3079,-6.3021,-6.2731,-6.2351,-6.191,-6.0955,-6.0865,-6.0926,-5.9924,-5.8404,-5.7285,-5.7961,-5.767,-5.7285,-5.7961,-5.7606,-5.6925,-5.6275,-5.5842,-5.5538,-5.5087,-5.5353,-5.5617,-5.5617,-5.5286,-5.4953,-5.4552,-5.4511,-5.4411,-5.417,-5.3959,-5.3572,-5.2991,-5.2473,-5.2623,-5.3899,-5.4019,-5.3926,-5.3652,-5.3537,-5.3537,-5.3592,-5.3537,-5.3691,-5.4019,-5.4019,-5.3839,-5.3483,-5.3812,-5.3812,-5.3516,-5.3539,-5.3168,-5.5179,-5.5179,-5.5179,-5.5179,-5.5179,-5.5508,-5.6795,-5.7094,-5.7483,-5.883,-5.9099,-5.9099,-5.9099,-5.9099,-5.9099,-5.9099,-5.9099,-5.9338,-5.9997,-6.0685,-6.1373,-6.2032,-6.266,-6.3079,-6.3079,-6.3079,-6.3079,-6.3079,-6.3079,-6.3079,-6.3079,-6.3079,-6.3079,-6.3079,-6.3079,-6.3079,-6.3079,-6.3079,-6.3079,-6.3079,-6.3079,-6.3079,-6.3079,-6.3079,-6.3079,0.0,0.0,0.0,0.0,-6.3079,-6.3079,-6.3079,-6.3079,-6.2963,-6.2731,-6.2731,-6.2468,-6.2087,-6.2087,-6.2087,-6.2028,-6.1673,-6.1375,-6.0894,-5.9863,-5.9801,-5.974,-5.8024,-5.6834,-5.6078,-5.5986,-5.6052,-5.6078,-5.5986,-5.5789,-5.5485,-5.4846,-5.4578,-5.4402,-5.4064,-5.4443,-5.4779,-5.4511,-5.4578,-5.4511,-5.3929,-5.3997,-5.3901,-5.3202,-5.3073,-5.2828,-5.1936,-5.1621,-5.1659,-5.2315,-5.2377,-5.2342,-5.2218,-5.2032,-5.197,-5.2218,-5.2192,-5.2253,-5.2377,-5.2562,-5.2439,-5.1846,-5.2218,-5.2439,-5.2535,-5.2532,-5.2192,-5.5179,-5.5179,-5.5179,-5.5179,-5.5179,-5.5508,-5.6795,-5.7094,-5.7483,-5.883,-5.9099,-5.9099,-5.9099,-5.9099,-5.9099,-5.9099,-5.9099,-5.9249,-5.9668,-6.0535,-6.1433,-6.2361,-6.2839,-6.3079,-6.3079,-6.3079,-6.3079,-6.3079,-6.3079,-6.3079,-6.3079,-6.3079,-6.3079,-6.3079,-6.3079,-6.3079,-6.3079,-6.3079,-6.3079,-6.3079,-6.3079,-6.3079,-6.3079,-6.3079,-6.3079,0.0,0.0,0.0,0.0,-6.3079,-6.3079,-6.3079,-6.2963,-6.2731,-6.2351,-6.2116,-6.1673,-6.1166,-6.1046,-6.1046,-6.0986,-6.0655,-5.9986,-5.9121,-5.8088,-5.7897,-5.777,-5.6248,-5.5286,-5.4779,-5.4619,-5.4712,-5.4779,-5.4619,-5.4619,-5.4511,-5.3929,-5.3793,-5.3725,-5.3341,-5.3589,-5.3835,-5.3589,-5.3793,-5.3793,-5.3341,-5.3452,-5.3394,-5.2767,-5.246,-5.2046,-5.1427,-5.0883,-5.0614,-5.0842,-5.1094,-5.122,-5.122,-5.0931,-5.0867,-5.122,-5.1094,-5.1094,-5.122,-5.1471,-5.1283,-5.0741,-5.0931,-5.122,-5.1507,-5.1507,-5.1325,0.0,-5.5179,-5.5179,-5.5179,-5.5179,-5.5508,-5.6795,-5.7094,0.0,-5.883,-5.9099,-5.9099,-5.9099,-5.9099,-5.9099,-5.9099,-5.9099,-5.9129,-5.9159,-6.0326,-6.1642,-6.2929,-6.3079,-6.3079,-6.3079,-6.3079,-6.3079,-6.3079,-6.3079,-6.3079,-6.3079,-6.3079,-6.3079,-6.3079,-6.3079,-6.3079,-6.3079,-6.3079,-6.3079,-6.3079,-6.3079,-6.3079,-6.3079,-6.3079,-6.3079,0.0,0.0,0.0,0.0,-6.3079,-6.3079,-6.3021,-6.2673,-6.2292,-6.191,-6.1226,-6.0745,-6.032,-6.0014,-5.9863,-5.983,-5.9493,-5.8277,-5.6834,-5.5815,-5.5512,-5.5353,-5.4645,-5.3997,-5.3546,-5.3861,-5.3657,-5.3546,-5.3861,-5.3929,-5.3861,-5.3546,-5.3478,-5.3341,-5.2998,-5.2929,-5.2929,-5.2929,-5.2929,-5.2929,-5.2929,-5.2929,-5.2929,-5.2929,-5.2,-5.1322,-5.1297,-5.0293,-4.964,-4.959,-5.0168,-5.0525,-5.0525,-5.0232,-5.0168,-5.0525,-5.0232,-5.0232,-5.0525,-5.0525,-5.0359,-5.0065,-5.0065,-5.0232,-5.0525,-5.0525,-5.0525,-5.5179,0.0,-5.5179,-5.5179,-5.5179,-5.5508,0.0,-5.7094,-5.7483,-5.883,-5.9099,-5.9099,-5.9099,-5.9099,-5.9099,-5.9099,-5.9099,-5.9279,-5.9787,-6.1014,-6.2181,-6.2989,-6.3079,-6.3079,-6.3079,-6.3079,-6.3079,-6.3079,-6.3079,-6.3079,-6.3079,-6.3079,-6.3079,-6.3079,-6.3079,-6.3079,-6.3079,-6.3079,-6.3079,-6.3079,-6.3079,-6.3079,-6.3079,-6.3079,-6.3079,0.0,0.0,0.0,-6.3079,-6.3079,-6.2963,-6.2673,-6.2351,-6.1673,-6.0865,-6.0169,-5.9245,-5.8277,-5.7897,-5.777,-5.7797,-5.7697,-5.6925,-5.5815,-5.502,-5.4578,-5.4309,-5.3861,-5.341,-5.3067,-5.3136,-5.3136,-5.3067,-5.3136,-5.3204,-5.3136,-5.3067,-5.3067,-5.2998,-5.2929,-5.2929,-5.2929,-5.2929,-5.2929,-5.2929,-5.2929,-5.2929,-5.2929,-5.2929,-5.2327,-5.1749,-5.1322,-5.0645,-5.0067,-4.9615,-4.9719,-4.9847,-4.9847,-4.9783,-4.9719,-4.9847,-4.9783,-4.9719,-4.9847,-4.9847,-4.9783,-4.9719,-4.9719,-4.9783,-4.9847,-4.9847,-4.9847,-5.5179,-5.5179,-5.5179,-5.5179,-5.5179,-5.5448,-5.6436,-5.6885,-5.7393,-5.8441,-5.889,-5.9099,-5.9099,-5.9099,-5.9099,-5.9099,-5.9099,-5.9428,-6.0416,-6.1463,-6.2331,-6.2989,-6.3079,-6.3079,-6.3079,-6.3079,-6.3079,-6.3079,-6.3079,-6.3079,-6.3079,-6.3079,-6.3079,-6.3079,-6.3079,-6.3079,-6.3079,-6.3079,-6.3079,-6.3079,-6.2963,-6.2847,-6.2847,-6.2701,-6.2731,0.0,0.0,0.0,-6.3079,-6.3079,-6.2905,-6.2556,-6.191,-6.1046,-6.0014,-5.8871,-5.7797,-5.6861,-5.6313,-5.6117,-5.6117,-5.5947,-5.5419,-5.4779,-5.4174,-5.3793,-5.3452,-5.3273,-5.3067,-5.2929,-5.2929,-5.2929,-5.2929,-5.2929,-5.2929,-5.2929,-5.2929,-5.2929,-5.2929,-5.2929,-5.2929,-5.2929,-5.2929,-5.2929,-5.2929,-5.2929,-5.2929,-5.2929,-5.2929,-5.2452,-5.19,-5.1348,-5.077,-5.0193,-4.964,-4.959,-4.959,-4.959,-4.959,-4.959,-4.959,-4.959,-4.959,-4.959,-4.959,-4.959,-4.959,-4.959,-4.959,-4.959,-4.959,-4.959,-5.5179,-5.5179,-5.5179,-5.5179,-5.5179,-5.5359,-5.6017,-5.6645,-5.7304,-5.7992,-5.865,-5.9099,-5.9099,-5.9099,-5.9099,-5.9099,-5.9279,-5.9817,-6.0954,-6.1762,-6.245,-6.3019,-6.3079,-6.3079,-6.3079,-6.3079,-6.3079,-6.3079,-6.3079,-6.3079,-6.3079,-6.3079,-6.3079,-6.3079,-6.3079,-6.3079,-6.3079,-6.3079,-6.3079,-6.3021,-6.2673,-6.2498,-6.2439,-6.2116,-6.2116,-6.2351,0.0,0.0,-6.2759,-6.2759,-6.2585,-6.2116,-6.1166,-6.0169,-5.9058,-5.7478,-5.6405,-5.5644,-5.502,-5.4753,-5.4753,-5.4511,-5.4174,-5.3861,-5.3614,-5.3204,-5.2929,-5.2929,-5.2929,-5.2929,-5.2929,-5.2929,-5.2929,-5.2929,-5.2929,-5.2929,-5.2929,-5.2929,-5.2929,-5.2929,-5.2929,-5.2929,-5.2929,-5.2929,-5.2929,-5.2929,-5.2929,-5.2929,-5.2929,-5.2528,-5.2026,-5.1473,-5.0896,-5.0318,-4.9766,-4.964,-4.959,-4.959,-4.959,-4.959,-4.959,-4.959,-4.959,-4.959,-4.959,-4.959,-4.959,-4.959,-4.959,-4.959,-4.959,-4.959,-5.5179,-5.5179,-5.5179,-5.5179,-5.5179,-5.5359,-5.6017,-5.6645,-5.7304,-5.7992,-5.865,-5.9099,-5.9099,-5.9099,-5.9099,-5.9099,-6.0057,-6.0864,-6.1074,-6.2151,-6.2959,-6.3079,-6.3079,-6.3079,-6.3079,-6.3079,-6.3079,-6.3079,-6.3079,-6.3079,-6.3079,-6.3079,-6.3079,-6.3079,-6.3079,-6.3079,-6.3079,-6.3079,-6.2963,-6.2673,-6.2351,-6.2057,-6.1732,-6.1405,-6.1286,-6.1346,0.0,-6.1346,-6.1405,-6.1405,-6.1075,-6.047,-5.9678,-5.8592,-5.735,-5.6275,-5.518,-5.4267,-5.3861,-5.3725,-5.3793,-5.3997,-5.3861,-5.3546,-5.3546,-5.3204,-5.2929,-5.2929,-5.2929,-5.2929,-5.2929,-5.2929,-5.2929,-5.2929,-5.2929,-5.2929,-5.2929,-5.2929,-5.2929,-5.2929,-5.2929,-5.2929,-5.2929,-5.2929,-5.2929,-5.2929,-5.2929,-5.2929,-5.2929,-5.2854,-5.2578,-5.2026,-5.1473,-5.0921,-5.0343,-4.9866,-4.959,-4.959,-4.959,-4.959,-4.959,-4.959,-4.959,-4.959,-4.959,-4.959,-4.959,-4.959,-4.959,-4.959,-4.959,-4.959,-5.5179,-5.5179,-5.5179,-5.5179,-5.5179,-5.5269,-5.5568,-5.6137,-5.6765,-5.7423,-5.8112,-5.868,-5.9039,-5.9099,-5.9099,-5.9099,-6.0236,-6.1104,-6.1104,-6.2241,-6.3079,-6.3079,-6.3079,-6.3079,-6.3079,-6.3079,-6.3079,-6.3079,-6.3079,-6.3079,-6.3079,-6.3079,-6.3079,-6.3079,-6.3079,-6.3021,-6.2847,-6.2643,-6.2468,-6.2292,-6.1613,-6.0986,-6.0474,-5.9986,-5.9863,-6.0047,0.0,-6.023,-6.0534,-6.0534,-6.0198,-5.9521,-5.8808,-5.7706,-5.6379,-5.498,-5.3997,-5.3384,-5.3204,-5.3204,-5.3204,-5.3341,-5.3316,-5.3204,-5.3204,-5.3067,-5.2929,-5.2929,-5.2929,-5.2929,-5.2929,-5.2929,-5.2929,-5.2929,-5.2929,-5.2929,-5.2929,-5.2929,-5.2929,-5.2929,-5.2929,-5.2929,-5.2929,-5.2929,-5.2929,-5.2929,-5.2929,-5.2929,-5.2929,-5.2929,-5.2703,-5.2176,-5.1875,-5.1373,-5.0494,-5.0193,-4.9916,-4.9615,-4.959,-4.959,-4.959,-4.959,-4.959,-4.959,-4.959,-4.959,-4.959,-4.959,-4.959,-4.959,-4.959,-4.959,-5.5078,-5.5108,-5.5128,-5.5179,-5.5179,-5.5179,-5.5179,-5.5688,-5.6316,-5.6765,-5.7543,-5.8291,-5.877,-5.9009,-5.9159,-5.9308,-6.0326,-6.1164,-6.1313,-6.2331,-6.3079,-6.3079,-6.3079,-6.3079,-6.3079,-6.3079,-6.3079,-6.3079,-6.3079,-6.3079,-6.3079,-6.3079,-6.3079,-6.2963,-6.2963,-6.2789,-6.2351,-6.1939,-6.1732,-6.1732,-6.0745,-5.9863,-5.9121,-5.8404,-5.8214,-5.8404,-5.8404,-5.8683,-5.9183,-5.9183,-5.8808,-5.8214,-5.7578,-5.6639,-5.5286,-5.3861,-5.3136,-5.2929,-5.2929,-5.2929,-5.2929,-5.2929,-5.2929,-5.2929,-5.2929,-5.2929,-5.2929,-5.2929,-5.2929,-5.2929,-5.2929,-5.2929,-5.2929,-5.2929,-5.2929,-5.2929,-5.2929,-5.2929,-5.2929,-5.2929,-5.2929,-5.2929,-5.2929,-5.2929,-5.2929,-5.2929,-5.2929,-5.2929,-5.2929,-5.2929,-5.2754,-5.2352,-5.2176,-5.1649,-5.0519,-5.0419,-5.0167,-4.9615,-4.959,-4.959,-4.959,-4.959,-4.959,-4.959,-4.959,-4.959,-4.959,-4.959,-4.959,-4.959,-4.959,-4.959,-5.4722,-5.4854,-5.4905,-5.5158,-5.5179,-5.5179,-5.5179,-5.5688,-5.6248,-5.6278,-5.7244,-5.8141,-5.8171,-5.868,-5.9308,-5.9907,-6.0625,-6.1313,-6.1942,-6.263,-6.3079,-6.3079,-6.3079,-6.3079,-6.3079,-6.3079,-6.3079,-6.3079,-6.3079,-6.3079,-6.3079,-6.3079,-6.2963,-6.2615,-6.2615,-6.2292,-6.1673,-6.1046,-6.0684,-6.0713,-5.9678,-5.8683,-5.7706,-5.7028,-5.6574,-5.6313,-5.6313,-5.6313,-5.6379,-5.6379,-5.6209,-5.5815,-5.5393,-5.4552,-5.3614,-5.3136,-5.2929,-5.2929,-5.2929,-5.2929,-5.2929,-5.2929,-5.2929,-5.2929,-5.2929,-5.2929,-5.2929,-5.2929,-5.2929,-5.2929,-5.2929,-5.2929,-5.2929,-5.2929,-5.2929,-5.2929,-5.2929,-5.2929,-5.2929,-5.2929,-5.2929,-5.2929,-5.2929,-5.2929,-5.2929,-5.2929,-5.2929,-5.2929,-5.2929,-5.2929,-5.2904,-5.2879,-5.2402,-5.1649,-5.0519,-5.0419,-5.0167,-4.9615,-4.959,-4.959,-4.959,-4.959,-4.959,-4.959,-4.959,-4.959,-4.959,-4.959,-4.959,-4.959,-4.959,-4.959,-5.4436,-5.4487,-5.4539,-5.4875,-5.4824,-5.4692,-5.4875,-5.5002,-5.5115,-5.553,-5.6361,-5.7274,-5.8267,-5.8679,-5.9121,-5.9967,-6.0655,-6.1343,-6.2002,-6.266,-6.3079,-6.3079,-6.3079,-6.3079,-6.3079,-6.3079,-6.3079,-6.3079,-6.3079,-6.3079,-6.3079,-6.2905,-6.2673,-6.2292,-6.185,-6.1226,-6.0352,-5.9678,-5.8933,-5.8088,-5.7897,-5.735,-5.6313,-5.5617,-5.522,-5.5087,-5.5087,-5.522,-5.5419,-5.5419,-5.522,-5.4846,-5.4309,-5.3793,-5.3478,-5.3067,-5.2929,-5.2929,-5.2929,-5.2929,-5.2929,-5.2929,-5.2929,-5.2929,-5.2929,-5.2929,-5.2929,-5.2929,-5.2929,-5.2929,-5.2929,-5.2929,-5.2929,-5.2929,-5.2929,-5.2929,-5.2929,-5.2929,-5.2929,-5.2929,-5.2929,-5.2929,-5.2929,-5.2929,-5.2929,-5.2929,-5.2929,-5.2929,-5.2929,-5.2929,-5.2929,-5.2929,-5.2427,-5.1925,-5.1498,-5.082,-5.0318,-5.0117,-4.9791,-4.959,-4.959,-4.959,-4.959,-4.959,-4.959,-4.959,-4.959,-4.959,-4.959,-4.959,-4.959,-4.959,-5.389,-5.3993,-5.4126,-5.4466,-5.4333,-5.42,-5.4363,-5.4333,-5.448,-5.5188,-5.5931,-5.6873,-5.8183,-5.8567,-5.9033,-5.9964,-6.076,-6.1473,-6.2015,-6.2607,-6.2905,-6.2759,-6.2759,-6.2759,-6.2759,-6.2759,-6.2759,-6.2759,-6.2701,-6.2643,0.0,-6.2292,-6.1939,-6.1494,-6.0926,-6.0108,-5.8996,-5.8277,-5.7322,-5.6117,-5.6117,-5.5749,-5.5113,-5.4443,-5.4106,-5.3971,-5.3971,-5.4106,-5.435,-5.435,-5.4241,-5.3971,-5.3478,-5.3341,-5.3273,-5.2998,-5.2929,-5.2929,-5.2929,-5.2929,-5.2929,-5.2929,-5.2929,-5.2929,-5.2929,-5.2929,-5.2929,-5.2929,-5.2929,-5.2929,-5.2929,-5.2929,-5.2929,-5.2929,-5.2929,-5.2929,-5.2929,-5.2929,-5.2929,-5.2929,-5.2929,-5.2929,-5.2929,-5.2929,-5.2929,-5.2929,-5.2929,-5.2929,-5.2929,-5.2929,-5.2929,-5.2929,-5.2578,-5.2302,-5.2126,-5.1398,-5.0795,-5.0444,-5.0067,-4.9766,-4.9615,-4.959,-4.959,-4.959,-4.959,-4.959,-4.959,-4.959,-4.959,-4.959,-4.959,-4.959,-5.3025,-5.329,-5.3553,-5.3815,-5.3919,-5.3815,-5.3553,-5.3919,-5.451,-5.5136,-5.6099,-5.6965,-5.7664,-5.8307,-5.9008,-6.0025,-6.0931,-6.1697,-6.2028,-6.2351,-6.2498,-6.2116,-6.2116,-6.2116,-6.2116,-6.2116,-6.2116,-6.2116,-6.1791,0.0,0.0,-6.1286,-6.0805,-6.0165,-5.9768,-5.8933,-5.7606,-5.6898,-5.6052,-5.502,-5.4309,-5.3997,-5.3997,-5.3682,-5.3273,-5.2929,-5.2929,-5.2929,-5.2929,-5.2929,-5.2929,-5.2929,-5.2929,-5.2929,-5.2929,-5.2929,-5.2929,-5.2929,-5.2929,-5.2929,-5.2929,-5.2929,-5.2929,-5.2929,-5.2929,-5.2929,-5.2929,-5.2929,-5.2929,-5.2929,-5.2929,-5.2929,-5.2929,-5.2929,-5.2929,-5.2929,-5.2929,-5.2929,-5.2929,-5.2929,-5.2929,-5.2929,-5.2929,-5.2929,-5.2929,-5.2929,-5.2929,-5.2929,-5.2929,-5.2929,-5.2929,-5.2929,-5.2929,-5.2703,-5.2151,-5.2101,-5.1624,-5.0494,-5.0419,-5.0167,-4.9615,-4.959,-4.959,-4.959,-4.959,-4.959,-4.959,-4.959,-4.959,-4.959,-4.959,-4.959,-5.2491,-5.2705,-5.2865,-5.273,-5.289,-5.2972,-5.2677,-5.3341,-5.4298,-5.4957,-5.5306,-5.5708,-5.6337,-5.7139,-5.8003,-5.8987,-5.9917,-6.0735,-6.1318,-6.1465,-6.1434,-6.1075,-6.1226,-6.1286,-6.1075,-6.1226,-6.1286,-6.1046,-6.0926,0.0,0.0,-5.9986,-5.9493,-5.9058,-5.8052,-5.7092,-5.6209,-5.5485,-5.4686,-5.3929,-5.3725,-5.3682,-5.3614,-5.3273,-5.2998,-5.2929,-5.2929,-5.2929,-5.2929,-5.2929,-5.2929,-5.2929,-5.2929,-5.2929,-5.2929,-5.2929,-5.2929,-5.2929,-5.2929,-5.2929,-5.2929,-5.2929,-5.2929,-5.2929,-5.2929,-5.2929,-5.2929,-5.2929,-5.2929,-5.2929,-5.2929,-5.2929,-5.2929,-5.2929,-5.2929,-5.2929,-5.2929,-5.2929,-5.2929,-5.2929,-5.2929,-5.2929,-5.2929,-5.2929,-5.2929,-5.2929,-5.2929,-5.2929,-5.2929,-5.2929,-5.2929,-5.2929,-5.2929,-5.2854,-5.2703,-5.2327,-5.1975,-5.1624,-5.0845,-5.0167,-4.9615,-4.959,-4.959,-4.959,-4.959,-4.959,-4.959,-4.959,-4.959,-4.959,-4.959,-4.959,-5.1403,-5.1732,-5.2059,-5.1595,-5.1813,-5.2172,-5.2211,-5.3047,-5.3946,-5.4344,-5.4622,-5.4902,-5.5091,-5.5964,-5.6904,-5.763,-5.8845,-5.974,-5.9929,-6.0169,-6.0108,-5.9678,-5.9801,-5.9863,-5.9617,-5.9801,-5.9834,-5.9617,-5.9369,0.0,0.0,-5.8277,-5.7706,-5.7414,-5.6509,-5.5683,-5.498,-5.4376,-5.3793,-5.3273,-5.3273,-5.3273,-5.3273,-5.2998,-5.2929,-5.2929,-5.2929,-5.2929,-5.2929,-5.2929,-5.2929,-5.2929,-5.2929,-5.2929,-5.2929,-5.2929,-5.2929,-5.2929,-5.2929,-5.2929,-5.2929,-5.2929,-5.2929,-5.2929,-5.2929,-5.2929,-5.2929,-5.2929,-5.2929,-5.2929,-5.2929,-5.2929,-5.2929,-5.2929,-5.2929,-5.2929,-5.2929,-5.2929,-5.2929,-5.2929,-5.2929,-5.2929,-5.2929,-5.2929,-5.2929,-5.2929,-5.2929,-5.2929,-5.2929,-5.2929,-5.2929,-5.2929,-5.2929,-5.2929,-5.2929,-5.2628,-5.2327,-5.2126,-5.1473,-5.0745,-4.9967,-4.9715,-4.959,-4.959,-4.959,-4.959,-4.959,-4.959,-4.959,-4.959,-4.959,-4.959,-5.0066,-5.0572,-5.1045,-5.0405,-5.0683,-5.1237,-5.185,-5.2672,-5.3353,-5.3554,-5.396,-5.4259,-5.3899,-5.4821,-5.5737,-5.6046,-5.7626,-5.862,-5.7961,-5.8404,-5.862,-5.7961,-5.7897,-5.7897,-5.7897,-5.7897,-5.7897,-5.7834,0.0,0.0,0.0,-5.6313,-5.5815,-5.5485,-5.5087,-5.4552,-5.3997,-5.3614,-5.3273,-5.2929,-5.2929,-5.2929,-5.2929,-5.2929,-5.2929,-5.2929,-5.2929,-5.2929,-5.2929,-5.2929,-5.2929,-5.2929,-5.2929,-5.2929,-5.2929,-5.2929,-5.2929,-5.2929,-5.2929,-5.2929,-5.2929,-5.2929,-5.2929,-5.2929,-5.2929,-5.2929,-5.2929,-5.2929,-5.2929,-5.2929,-5.2929,-5.2929,-5.2929,-5.2929,-5.2929,-5.2929,-5.2929,-5.2929,-5.2929,-5.2929,-5.2929,-5.2929,-5.2929,-5.2929,-5.2929,-5.2929,-5.2929,-5.2929,-5.2929,-5.2929,-5.2929,-5.2929,-5.2929,-5.2929,-5.2929,-5.2929,-5.2703,-5.2201,-5.2126,-5.1649,-5.0619,-4.9992,-4.964,-4.959,-4.959,-4.959,-4.959,-4.959,-4.959,-4.959,-4.959,-4.959,-4.9727,-4.9953,-5.0066,-4.9186,-4.9244,-4.9717,-5.0552,-5.0997,-5.1683,-5.2991,-5.3329,-5.3227,-5.2588,-5.3673,-5.4574,-5.4357,-5.5666,-5.6704,-5.6574,-5.6639,-5.6574,-5.6209,-5.6379,-5.6444,-5.6144,-5.6379,-5.6379,-5.6144,0.0,0.0,-5.5459,-5.5087,-5.482,-5.4753,-5.4132,-5.3725,-5.3614,-5.3204,-5.2998,0.0,-5.2929,-5.2929,-5.2929,-5.2929,-5.2929,-5.2929,-5.2929,-5.2929,-5.2929,-5.2929,-5.2929,-5.2929,-5.2929,-5.2929,-5.2929,-5.2929,-5.2929,-5.2929,-5.2929,-5.2929,-5.2929,-5.2929,-5.2929,-5.2929,-5.2929,-5.2929,-5.2929,-5.2929,-5.2929,-5.2929,-5.2929,-5.2929,-5.2929,-5.2929,-5.2929,-5.2929,-5.2929,-5.2929,-5.2929,-5.2929,-5.2929,-5.2929,-5.2929,-5.2929,-5.2929,-5.2929,-5.2929,-5.2929,-5.2929,-5.2929,-5.2929,-5.2929,-5.2929,-5.2929,-5.2929,-5.2929,-5.2879,-5.2754,-5.2352,-5.2,-5.1749,-5.077,-5.0042,-4.9615,-4.959,-4.959,-4.959,-4.959,-4.959,-4.959,-4.959,-4.959,-4.8553,-4.8811,-4.8983,-4.8347,-4.8562,-4.9049,-4.9516,-5.0182,-5.0857,-5.1731,-5.2059,-5.1996,-5.1497,-5.25,-5.3257,-5.3127,-5.4328,-5.5286,-5.5087,-5.522,-5.522,-5.4846,-5.498,-5.5046,-5.4846,-5.498,-5.502,0.0,0.0,-5.4511,-5.4309,-5.3903,-5.37,-5.37,-5.3384,-5.3204,-5.3204,-5.2998,-5.2929,-5.2929,-5.2929,-5.2929,-5.2929,-5.2929,-5.2929,-5.2929,-5.2929,-5.2929,-5.2929,-5.2929,-5.2929,-5.2929,-5.2929,-5.2929,-5.2929,-5.2929,-5.2929,-5.2929,-5.2929,-5.2929,-5.2929,-5.2929,-5.2929,-5.2929,-5.2929,-5.2929,-5.2929,-5.2929,-5.2929,-5.2929,-5.2929,-5.2929,-5.2929,-5.2929,-5.2929,-5.2929,-5.2929,-5.2929,-5.2929,-5.2929,-5.2929,-5.2929,-5.2929,-5.2929,-5.2929,-5.2929,-5.2929,-5.2929,-5.2929,-5.2929,-5.2929,-5.2929,-5.2929,-5.2929,-5.2929,-5.2929,-5.2929,-5.2929,-5.2653,-5.2377,-5.2126,-5.1548,-5.0845,-5.0017,-4.9715,-4.959,-4.959,-4.959,-4.959,-4.959,-4.959,-4.959,-4.7265,-4.7586,-4.7906,-4.7586,-4.806,-4.861,-4.8712,-4.9529,-5.0295,-5.0397,-5.0741,-5.0931,-5.0614,-5.1472,-5.2174,-5.2134,-5.332,-5.4106,-5.3861,-5.4039,-5.4106,-5.3861,-5.3793,-5.3793,-5.3793,-5.3793,-5.3793,0.0,0.0,-5.341,-5.341,-5.3067,-5.2929,-5.2929,-5.2929,-5.2929,-5.2929,-5.2929,-5.2929,-5.2929,-5.2929,-5.2929,-5.2929,-5.2929,-5.2929,-5.2929,-5.2929,-5.2929,-5.2929,-5.2929,-5.2929,-5.2929,-5.2929,-5.2929,-5.2929,-5.2929,-5.2929,-5.2929,-5.2929,-5.2929,-5.2929,-5.2929,-5.2929,-5.2929,-5.2929,-5.2929,-5.2929,-5.2929,-5.2929,-5.2929,-5.2929,-5.2929,-5.2929,-5.2929,-5.2929,-5.2929,-5.2929,-5.2929,-5.2929,-5.2929,-5.2929,-5.2929,-5.2929,-5.2929,-5.2929,-5.2929,-5.2929,-5.2929,-5.2929,-5.2929,-5.2929,-5.2929,-5.2929,-5.2929,-5.2929,-5.2929,-5.2929,-5.2929,-5.2929,-5.2729,-5.2277,-5.2151,-5.1674,-5.072,-5.0067,-4.969,-4.959,-4.959,-4.959,-4.959,-4.959,-4.959,-4.7205,-4.7112,-4.6985,-4.69,-4.7142,-4.7478,-4.7931,-4.8536,-4.914,-4.9618,-5.0232,-5.055,-5.0232,-5.1082,-5.1778,-5.1472,-5.2405,-5.3136,-5.3067,-5.3067,-5.3136,-5.3067,-5.3067,-5.3067,-5.3067,-5.3067,-5.3067,0.0,-5.2998,-5.2998,-5.2998,-5.2929,-5.2929,-5.2929,-5.2929,-5.2929,-5.2929,-5.2929,-5.2929,-5.2929,-5.2929,-5.2929,-5.2929,-5.2929,-5.2929,-5.2929,-5.2929,-5.2929,-5.2929,-5.2929,-5.2929,-5.2929,-5.2929,-5.2929,-5.2929,-5.2929,-5.2929,-5.2929,-5.2929,-5.2929,-5.2929,-5.2929,-5.2929,-5.2929,-5.2929,-5.2929,-5.2929,-5.2929,-5.2929,-5.2929,-5.2929,-5.2929,-5.2929,-5.2929,-5.2929,-5.2929,-5.2929,-5.2929,-5.2929,-5.2929,-5.2929,-5.2929,-5.2929,-5.2929,-5.2929,-5.2929,-5.2929,-5.2929,-5.2929,-5.2929,-5.2929,-5.2929,-5.2929,-5.2929,-5.2929,-5.2929,-5.2929,-5.2929,-5.2929,-5.2904,-5.2829,-5.2352,-5.2026,-5.1875,-5.0845,-5.0067,-4.959,-4.959,-4.959,-4.959,-4.959,-4.959,-4.6695,-4.6601,-4.6481,-4.6481,-4.6788,-4.728,-4.7782,-4.836,-4.8937,-4.949,-4.9847,-4.9976,-4.9847,-5.0504,-5.1094,-5.1289,-5.195,-5.2578,-5.2879,-5.2929,-5.2929,-5.2929,-5.2929,-5.2929,-5.2929,-5.2929,0.0,0.0,-5.2929,-5.2929,-5.2929,-5.2929,-5.2929,-5.2929,-5.2929,-5.2929,-5.2929,-5.2929,-5.2929,-5.2929,-5.2929,-5.2929,-5.2929,-5.2929,-5.2929,-5.2929,-5.2929,-5.2929,-5.2929,-5.2929,-5.2929,-5.2929,-5.2929,-5.2929,-5.2929,-5.2929,-5.2929,-5.2929,-5.2929,-5.2929,-5.2929,-5.2929,-5.2929,-5.2929,-5.2929,-5.2929,-5.2929,-5.2929,-5.2929,-5.2929,-5.2929,-5.2929,-5.2929,-5.2929,-5.2929,-5.2929,-5.2929,-5.2929,-5.2929,-5.2929,-5.2929,-5.2929,-5.2929,-5.2929,-5.2929,-5.2929,-5.2929,-5.2929,-5.2929,-5.2929,-5.2929,-5.2929,-5.2929,-5.2929,-5.2929,-5.2929,-5.2929,-5.2929,-5.2929,-5.2929,-5.2929,-5.2703,-5.2427,-5.2126,-5.0996,-5.0293,-5.0067,-4.9741,-4.959,-4.959,-4.959,-4.959,-4.6301,-4.6301,-4.6301,-4.6301,-4.6627,-4.7104,-4.7757,-4.8234,-4.8761,-4.9464,-4.959,-4.959,-4.959,-5.0042,-5.0619,-5.1197,-5.1749,-5.2302,-5.2854,-5.2929,-5.2929,-5.2929,-5.2929,-5.2929,-5.2929,-5.2929,0.0,0.0,-5.2929,-5.2929,-5.2929,-5.2929,-5.2929,-5.2929,-5.2929,-5.2929,-5.2929,-5.2929,-5.2929,-5.2929,-5.2929,-5.2929,-5.2929,-5.2929,-5.2929,-5.2929,-5.2929,-5.2929,-5.2929,-5.2929,-5.2929,-5.2929,-5.2929,-5.2929,-5.2929,-5.2929,-5.2929,-5.2929,-5.2929,-5.2929,-5.2929,-5.2929,-5.2929,-5.2929,-5.2929,-5.2929,-5.2929,-5.2929,-5.2929,-5.2929,-5.2929,-5.2929,-5.2929,-5.2929,-5.2929,-5.2929,-5.2929,-5.2929,-5.2929,-5.2929,-5.2929,-5.2929,-5.2929,-5.2929,-5.2929,-5.2929,-5.2929,-5.2929,-5.2929,-5.2929,-5.2929,-5.2929,-5.2929,-5.2929,-5.2929,-5.2929,-5.2929,-5.2929,-5.2929,-5.2929,-5.2929,-5.2929,-5.2729,-5.2327,-5.1348,-5.0695,-5.0419,-5.0017,-4.9741,-4.959,-4.959,-4.959,-4.6301,-4.6301,-4.6301,-4.6301,-4.6326,-4.6627,-4.7682,-4.7933,-4.8259,-4.9364,-4.959,-4.959,-4.959,-5.0042,-5.0619,-5.1197,-5.1749,-5.2302,-5.2854,-5.2929,-5.2929,-5.2929,-5.2929,-5.2929,-5.2929,-5.2929,0.0,0.0,-5.2929,-5.2929,-5.2929,-5.2929,-5.2929,-5.2929,-5.2929,-5.2929,-5.2929,-5.2929,-5.2929,-5.2929,-5.2929,-5.2929,-5.2929,-5.2929,-5.2929,-5.2929,-5.2929,-5.2929,-5.2929,-5.2929,-5.2929,-5.2929,-5.2929,-5.2929,-5.2929,-5.2929,-5.2929,-5.2929,-5.2929,-5.2929,-5.2929,-5.2929,-5.2929,-5.2929,-5.2929,-5.2929,-5.2929,-5.2929,-5.2929,-5.2929,-5.2929,-5.2929,-5.2929,-5.2929,-5.2929,-5.2929,-5.2929,-5.2929,-5.2929,-5.2929,-5.2929,-5.2929,-5.2929,-5.2929,-5.2929,-5.2929,-5.2929,-5.2929,-5.2929,-5.2929,-5.2929,-5.2929,-5.2929,-5.2929,-5.2929,-5.2929,-5.2929,-5.2929,-5.2929,-5.2929,-5.2929,-5.2929,-5.2904,-5.2879,-5.2327,-5.1498,-5.0419,-5.0393,-5.0117,-4.959,-4.959,-4.959,-4.6301,-4.6301,-4.6301,-4.6301,-4.6301,-4.6502,-4.723,-4.7657,-4.8134,-4.8912,-4.9339,-4.959,-4.959,-4.9766,-5.0067,-5.0645,-5.1197,-5.1774,-5.2327,-5.2703,-5.2929,-5.2929,-5.2929,-5.2929,-5.2929,-5.2929,0.0,0.0,0.0,-5.2929,-5.2929,-5.2929,-5.2929,-5.2929,-5.2929,-5.2929,-5.2929,-5.2929,-5.2929,-5.2929,-5.2929,-5.2929,-5.2929,-5.2929,-5.2929,-5.2929,-5.2929,-5.2929,-5.2929,-5.2929,-5.2929,-5.2929,-5.2929,-5.2929,-5.2929,-5.2929,-5.2929,-5.2929,-5.2929,-5.2929,-5.2929,-5.2929,-5.2929,-5.2929,-5.2929,-5.2929,-5.2929,-5.2929,-5.2929,-5.2929,-5.2929,-5.2929,-5.2929,-5.2929,-5.2929,-5.2929,-5.2929,-5.2929,-5.2929,-5.2929,-5.2929,-5.2929,-5.2929,-5.2929,-5.2929,-5.2929,-5.2929,-5.2929,-5.2929,-5.2929,-5.2929,-5.2929,-5.2929,-5.2929,-5.2929,-5.2929,-5.2929,-5.2929,-5.2929,-5.2929,-5.2929,-5.2929,-5.2929,-5.2929,-5.2729,-5.2251,-5.1498,-5.1147,-5.067,-5.0117,-5.0117,-4.9941,-4.6602,-4.6451,-4.6301,-4.6301,-4.6301,-4.6451,-4.7004,-4.7531,-4.8083,-4.8661,-4.9213,-4.959,-4.959,-4.959,-4.9766,-5.0318,-5.0745,-5.1247,-5.2,-5.2427,-5.2729,-5.2904,-5.2929,-5.2929,-5.2929,0.0,0.0,0.0,0.0,0.0,-5.2929,-5.2929,-5.2929,-5.2929,-5.2929,-5.2929,-5.2929,-5.2929,-5.2929,-5.2929,-5.2929,-5.2929,-5.2929,-5.2929,-5.2929,-5.2929,-5.2929,-5.2929,-5.2929,-5.2929,-5.2929,-5.2929,-5.2929,-5.2929,-5.2929,-5.2929,-5.2929,-5.2929,-5.2929,-5.2929,-5.2929,-5.2929,-5.2929,-5.2929,-5.2929,-5.2929,-5.2929,-5.2929,-5.2929,-5.2929,-5.2929,-5.2929,-5.2929,-5.2929,-5.2929,-5.2929,-5.2929,-5.2929,-5.2929,-5.2929,-5.2929,-5.2929,-5.2929,-5.2929,-5.2929,-5.2929,-5.2929,-5.2929,-5.2929,-5.2929,-5.2929,-5.2929,-5.2929,-5.2929,-5.2929,-5.2929,-5.2929,-5.2929,-5.2929,-5.2929,-5.2929,-5.2929,-5.2929,-5.2929,-5.2929,-5.2754,-5.2377,-5.1825,-5.1272,-5.0695,-5.0494,-5.0117,0.0,0.0,0.0,-4.6301,-4.6301,-4.6451,-4.6979,-4.7531,-4.8058,-4.8636,-4.9188,-4.959,-4.959,-4.959,-4.9766,-5.0293,-5.0419,-5.0795,-5.19,-5.2076,-5.2302,-5.2829,-5.2929,-5.2929,-5.2929,0.0,0.0,0.0,-5.2929,-5.2929,-5.2929,-5.2929,-5.2929,-5.2929,-5.2929,-5.2929,-5.2929,-5.2929,-5.2929,-5.2929,-5.2929,-5.2929,-5.2929,-5.2929,-5.2929,-5.2929,-5.2929,-5.2929,-5.2929,-5.2929,-5.2929,-5.2929,-5.2929,-5.2929,-5.2929,-5.2929,-5.2929,-5.2929,-5.2929,-5.2929,-5.2929,-5.2929,-5.2929,-5.2929,-5.2929,-5.2929,-5.2929,-5.2929,-5.2929,-5.2929,-5.2929,-5.2929,-5.2929,-5.2929,-5.2929,-5.2929,-5.2929,-5.2929,-5.2929,-5.2929,-5.2929,-5.2929,-5.2929,-5.2929,-5.2929,-5.2929,-5.2929,-5.2929,-5.2929,-5.2929,-5.2929,-5.2929,-5.2929,-5.2929,-5.2929,-5.2929,-5.2929,-5.2929,-5.2929,-5.2929,-5.2929,-5.2929,-5.2929,-5.2929,-5.2929,-5.2929,-5.2929,-5.2402,-5.185,-5.1297,-5.072,-5.0142,-4.723,0.0,0.0,0.0,0.0,0.0,-4.6502,-4.7255,-4.7958,-4.8109,-4.8912,-4.959,-4.959,-4.959,-4.964,-4.9791,-5.0167,-5.0519,-5.0845,-5.1599,-5.2176,-5.2302,-5.2678,-5.2929,0.0,0.0,0.0,0.0,-5.2929,-5.2929,-5.2929,-5.2929,-5.2929,-5.2929,-5.2929,-5.2929,-5.2929,-5.2929,-5.2929,-5.2929,-5.2929,-5.2929,-5.2929,-5.2929,-5.2929,-5.2929,-5.2929,-5.2929,-5.2929,-5.2929,-5.2929,-5.2929,-5.2929,-5.2929,-5.2929,-5.2929,-5.2929,-5.2929,-5.2929,-5.2929,-5.2929,-5.2929,-5.2929,-5.2929,-5.2929,-5.2929,-5.2929,-5.2929,-5.2929,-5.2929,-5.2929,-5.2929,-5.2929,-5.2929,-5.2929,-5.2929,-5.2929,-5.2929,-5.2929,-5.2929,-5.2929,-5.2929,-5.2929,-5.2929,-5.2929,-5.2929,-5.2929,-5.2929,-5.2929,-5.2929,-5.2929,-5.2929,-5.2929,-5.2929,-5.2929,-5.2929,-5.2929,-5.2929,-5.2929,-5.2929,-5.2929,-5.2929,-5.2929,-5.2929,-5.2929,-5.2929,-5.2929,-5.2779,-5.2427,-5.1875,-5.1297,-5.0745,-4.7908,-4.7481,-4.6993,-4.6728,0.0,0.0,-4.6602,-4.7305,-4.7983,-4.8209,-4.8962,-4.959,-4.959,-4.959,-4.959,-4.959,-4.9866,-5.0142,-5.0393,-5.1197,-5.185,-5.2076,-5.2578,-5.2929,0.0,-5.2929,-5.2929,-5.2929,-5.2929,-5.2929,-5.2929,-5.2929,-5.2929,-5.2929,-5.2929,-5.2929,-5.2929,-5.2929,-5.2929,-5.2929,-5.2929,-5.2929,-5.2929,-5.2929,-5.2929,-5.2929,-5.2929,-5.2929,-5.2929,-5.2929,-5.2929,-5.2929,-5.2929,-5.2929,-5.2929,-5.2929,-5.2929,-5.2929,-5.2929,-5.2929,-5.2929,-5.2929,-5.2929,-5.2929,-5.2929,-5.2929,-5.2929,-5.2929,-5.2929,-5.2929,-5.2929,-5.2929,-5.2929,-5.2929,-5.2929,-5.2929,-5.2929,-5.2929,-5.2929,-5.2929,-5.2929,-5.2929,-5.2929,-5.2929,-5.2929,-5.2929,-5.2929,-5.2929,-5.2929,-5.2929,-5.2929,-5.2929,-5.2929,-5.2929,-5.2929,-5.2929,-5.2929,-5.2929,-5.2929,-5.2929,-5.2929,-5.2929,-5.2929,-5.2929,-5.2929,-5.2929,-5.2929,-5.2929,-5.2653,-5.2101,-5.1774,-5.1322,-4.8786,-4.8058,-4.7305,-4.723,-4.6853,0.0,-4.7104,-4.7631,-4.8159,-4.8661,-4.9213,-4.959,-4.959,-4.959,-4.959,-4.959,-4.959,-4.9766,-5.0268,-5.082,-5.1398,-5.195,-5.2503,-5.2854,-5.2929,-5.2929,-5.2929,-5.2929,-5.2929,-5.2929,-5.2929,-5.2929,-5.2929,-5.2929,-5.2929,-5.2929,-5.2929,-5.2929,-5.2929,-5.2929,-5.2929,-5.2929,-5.2929,-5.2929,-5.2929,-5.2929,-5.2929,-5.2929,-5.2929,-5.2929,-5.2929,-5.2929,-5.2929,-5.2929,-5.2929,-5.2929,-5.2929,-5.2929,-5.2929,-5.2929,-5.2929,-5.2929,-5.2929,-5.2929,-5.2929,-5.2929,-5.2929,-5.2929,-5.2929,-5.2929,-5.2929,-5.2929,-5.2929,-5.2929,-5.2929,-5.2929,-5.2929,-5.2929,-5.2929,-5.2929,-5.2929,-5.2929,-5.2929,-5.2929,-5.2929,-5.2929,-5.2929,-5.2929,-5.2929,-5.2929,-5.2929,-5.2929,-5.2929,-5.2929,-5.2929,-5.2929,-5.2929,-5.2929,-5.2929,-5.2929,-5.2929,-5.2929,-5.2929,-5.2929,-5.2929,-5.2929,-5.2929,-5.2929,-5.2678,-5.2201,-5.2201,-5.19,-4.8887,-4.8611,-4.8335,-4.7883,-4.7682,0.0,-4.7732,-4.8184,-4.8636,-4.8736,-4.9213,-4.959,-4.959,-4.959,-4.959,-4.959,-4.959,-4.964,-4.9741,-5.0243,-5.0795,-5.1373,-5.1925,0.0,-5.2879,-5.2929,-5.2929,-5.2929,-5.2929,-5.2929,-5.2929,-5.2929,-5.2929,-5.2929,-5.2929,-5.2929,-5.2929,-5.2929,-5.2929,-5.2929,-5.2929,-5.2929,-5.2929,-5.2929,-5.2929,-5.2929,-5.2929,-5.2929,-5.2929,-5.2929,-5.2929,-5.2929,-5.2929,-5.2929,-5.2929,-5.2929,-5.2929,-5.2929,-5.2929,-5.2929,-5.2929,-5.2929,-5.2929,-5.2929,-5.2929,-5.2929,-5.2929,-5.2929,-5.2929,-5.2929,-5.2929,-5.2929,-5.2929,-5.2929,-5.2929,-5.2929,-5.2929,-5.2929,-5.2929,-5.2929,-5.2929,-5.2929,-5.2929,-5.2929,-5.2929,-5.2929,-5.2929,-5.2929,-5.2929,-5.2929,-5.2929,-5.2929,-5.2929,-5.2929,-5.2929,-5.2929,-5.2929,-5.2929,-5.2929,-5.2929,-5.2929,-5.2929,-5.2929,-5.2929,-5.2929,-5.2929,-5.2929,-5.2929,-5.2879,-5.2754,-5.2754,-5.2477,-4.9264,-4.8987,-4.8711,-4.841,-4.8134,0.0,0.0,-4.856,-4.8837,-4.9113,-4.9414,-4.959,-4.959,-4.959,-4.959,-4.959,-4.959,-4.959,-4.959,-5.0067,-5.0519,-5.082,-5.1599,0.0,-5.2477,-5.2754,-5.2929,-5.2929,-5.2929,-5.2929,-5.2929,-5.2929,-5.2929,-5.2929,-5.2929,-5.2929,-5.2929,-5.2929,-5.2929,-5.2929,-5.2929,-5.2929,-5.2929,-5.2929,-5.2929,-5.2929,-5.2929,-5.2929,-5.2929,-5.2929,-5.2929,-5.2929,-5.2929,-5.2929,-5.2929,-5.2929,-5.2929,-5.2929,-5.2929,-5.2929,-5.2929,-5.2929,-5.2929,-5.2929,-5.2929,-5.2929,-5.2929,-5.2929,-5.2929,-5.2929,-5.2929,-5.2929,-5.2929,-5.2929,-5.2929,-5.2929,-5.2929,-5.2929,-5.2929,-5.2929,-5.2929,-5.2929,-5.2929,-5.2929,-5.2929,-5.2929,-5.2929,-5.2929,-5.2929,-5.2929,-5.2929,-5.2929,-5.2929,-5.2929,-5.2929,-5.2929,-5.2929,-5.2929,-5.2929,-5.2929,-5.2929,-5.2929,-5.2929,-5.2929,-5.2929,-5.2929,-5.2929,-5.2929,-5.2929,-5.2929,-5.2929,-5.2779,-4.959,-4.9264,-4.8937,-4.8937,-4.8586,-4.836,0.0,0.0,0.0,-4.9515,-4.959,-4.959,-4.959,-4.959,0.0,-4.959,0.0,0.0,0.0,-4.9967,0.0,-5.0393,-5.1222,0.0,-5.2076,-5.2603,-5.2929,-5.2929,-5.2929,-5.2929,-5.2929,-5.2929,-5.2929,-5.2929,-5.2929,-5.2929,-5.2929,-5.2929,-5.2929,-5.2929,-5.2929,-5.2929,-5.2929,-5.2929,-5.2929,-5.2929,-5.2929,-5.2929,-5.2929,-5.2929,-5.2929,-5.2929,-5.2929,-5.2929,-5.2929,-5.2929,-5.2929,-5.2929,-5.2929,-5.2929,-5.2929,-5.2929,-5.2929,-5.2929,-5.2929,-5.2929,-5.2929,-5.2929,-5.2929,-5.2929,-5.2929,-5.2929,-5.2929,-5.2929,-5.2929,-5.2929,-5.2929,-5.2929,-5.2929,-5.2929,-5.2929,-5.2929,-5.2929,-5.2929,-5.2929,-5.2929,-5.2929,-5.2929,-5.2929,-5.2929,-5.2929,-5.2929,-5.2929,-5.2929,-5.2929,-5.2929,-5.2929,-5.2929,-5.2929,-5.2929,-5.2929,-5.2929,-5.2929,-5.2929,-5.2929,-5.2929,-5.2929,-5.2929,-5.2929,-5.2929,-5.2929,-5.2929,-4.959,-4.954,-4.9515,-4.9515,-4.9464,-4.9414,-4.949,0.0,-4.9515,-4.959,0.0,-4.959,-4.959,0.0,0.0,0.0,0.0,0.0,-4.959,-4.964,-4.9866,-5.0368,-5.0519,0.0,0.0,-5.2603,-5.2929,-5.2929,-5.2929,-5.2929,-5.2929,-5.2929,-5.2929,-5.2929,-5.2929,-5.2929,-5.2929,-5.2929,-5.2929,-5.2929,-5.2929,-5.2929,-5.2929,-5.2929,-5.2929,-5.2929,-5.2929,-5.2929,-5.2929,-5.2929,-5.2929,-5.2929,-5.2929,-5.2929,-5.2929,-5.2929,-5.2929,-5.2929,-5.2929,-5.2929,-5.2929,-5.2929,-5.2929,-5.2929,-5.2929,-5.2929,-5.2929,-5.2929,-5.2929,-5.2929,-5.2929,-5.2929,-5.2929,-5.2929,-5.2929,-5.2929,-5.2929,-5.2929,-5.2929,-5.2929,-5.2929,-5.2929,-5.2929,-5.2929,-5.2929,-5.2929,-5.2929,-5.2929,-5.2929,-5.2929,-5.2929,-5.2929,-5.2929,-5.2929,-5.2929,-5.2929,-5.2929,-5.2929,-5.2929,-5.2929,-5.2929,-5.2929,-5.2929,-5.2929,-5.2929,-5.2929,-5.2929,-5.2929,-5.2929,-5.2929,-5.2929,-5.2929,-4.959,-4.959,-4.959,0.0,0.0,0.0,-4.959,0.0,-4.959,0.0,0.0,0.0,0.0,0.0,0.0,0.0,-4.959,0.0,0.0,0.0,-4.9665,0.0,0.0,0.0,0.0,0.0,0.0,0.0,-5.2929,-5.2929,-5.2929,-5.2929,-5.2929,-5.2929,-5.2929,-5.2929,-5.2929,-5.2929,-5.2929,-5.2929,-5.2929,-5.2929,-5.2929,-5.2929,-5.2929,-5.2929,-5.2929,-5.2929,-5.2929,-5.2929,-5.2929,-5.2929,-5.2929,-5.2929,-5.2929,-5.2929,-5.2929,-5.2929,-5.2929,-5.2929,-5.2929,-5.2929,-5.2929,-5.2929,-5.2929,-5.2929,-5.2929,-5.2929,-5.2929,-5.2929,-5.2929,-5.2929,-5.2929,-5.2929,-5.2929,-5.2929,-5.2929,-5.2929,-5.2929,-5.2929,-5.2929,-5.2929,-5.2929,-5.2929,-5.2929,-5.2929,-5.2929,-5.2929,-5.2929,-5.2929,-5.2929,-5.2929,-5.2929,-5.2929,-5.2929,-5.2929,-5.2929,-5.2929,-5.2929,-5.2929,-5.2929,-5.2929,-5.2929,-5.2929,-5.2929,-5.2929,-5.2929,-5.2929,-5.2929,-5.2929,-5.2929,-5.2929,-4.9866,0.0,0.0,0.0,0.0,0.0,0.0,0.0,0.0,0.0,0.0,0.0,0.0,0.0,-4.959,-4.959,0.0,-4.959,0.0,-4.959,0.0,0.0,0.0,0.0,0.0,0.0,0.0,0.0,0.0,-5.2929,-5.2929,-5.2929,-5.2929,-5.2929,-5.2929,-5.2929,-5.2929,-5.2929,-5.2929,-5.2929,-5.2929,-5.2929,-5.2929,-5.2929,-5.2929,-5.2929,-5.2929,-5.2929,-5.2929,-5.2929,-5.2929,-5.2929,-5.2929,-5.2929,-5.2929,-5.2929,-5.2929,-5.2929,-5.2929,-5.2929,-5.2929,-5.2929,-5.2929,-5.2929,-5.2929,-5.2929,-5.2929,-5.2929,-5.2929,-5.2929,-5.2929,-5.2929,-5.2929,-5.2929,-5.2929,-5.2929,-5.2929,-5.2929,-5.2929,-5.2929,-5.2929,-5.2929,-5.2929,-5.2929,-5.2929,-5.2929,-5.2929,-5.2929,-5.2929,-5.2929,-5.2929,-5.2929,-5.2929,-5.2929,-5.2929,-5.2929,-5.2929,-5.2929,-5.2929,-5.2929,-5.2929,-5.2929,-5.2929,-5.2929,-5.2929,-5.2929,-5.2929,-5.2929,-5.2929,-5.2929,-5.2929,-5.2929,0.0,0.0,0.0,-4.9715,0.0,0.0,0.0,0.0,-4.959,0.0,0.0,0.0,0.0,-4.959,-4.959,-4.959,-4.959,0.0,0.0,0.0,0.0,0.0,0.0,0.0,0.0,0.0,0.0,0.0,0.0,0.0,-5.2929,-5.2929,-5.2929,-5.2929,-5.2929,-5.2929,-5.2929,-5.2929,-5.2929,-5.2929,-5.2929,-5.2929,-5.2929,-5.2929,-5.2929,-5.2929,-5.2929,-5.2929,-5.2929,-5.2929,-5.2929,-5.2929,-5.2929,-5.2929,-5.2929,-5.2929,-5.2929,-5.2929,-5.2929,-5.2929,-5.2929,-5.2929,-5.2929,-5.2929,-5.2929,-5.2929,-5.2929,-5.2929,-5.2929,-5.2929,-5.2929,-5.2929,-5.2929,-5.2929,-5.2929,-5.2929,-5.2929,-5.2929,-5.2929,-5.2929,-5.2929,-5.2929,-5.2929,-5.2929,-5.2929,-5.2929,-5.2929,-5.2929,-5.2929,-5.2929,-5.2929,-5.2929,-5.2929,-5.2929,-5.2929,-5.2929,-5.2929,-5.2929,-5.2929,-5.2929,-5.2929,-5.2929,-5.2929,-5.2929,-5.2929,-5.2929,-5.2929,-5.2929,-5.2929,-5.2929,-5.2929,-5.2929,0.0,0.0,-5.0946,-5.0745,0.0,0.0,0.0,0.0,0.0,0.0,0.0,0.0,0.0,-4.959,-4.959,-4.959,-4.959,-4.959,0.0,0.0,0.0,0.0,0.0,0.0,0.0,0.0,0.0,0.0,-5.2729,0.0,0.0,-5.2929,-5.2929,-5.2929,-5.2929,-5.2929,-5.2929,-5.2929,-5.2929,-5.2929,-5.2929,-5.2929,-5.2929,-5.2929,-5.2929,-5.2929,-5.2929,-5.2929,-5.2929,-5.2929,-5.2929,-5.2929,-5.2929,-5.2929,-5.2929,-5.2929,-5.2929,-5.2929,-5.2929,-5.2929,-5.2929,-5.2929,-5.2929,-5.2929,-5.2929,-5.2929,-5.2929,-5.2929,-5.2929,-5.2929,-5.2929,-5.2929,-5.2929,-5.2929,-5.2929,-5.2929,-5.2929,-5.2929,-5.2929,-5.2929,-5.2929,-5.2929,-5.2929,-5.2929,-5.2929,-5.2929,-5.2929,-5.2929,-5.2929,-5.2929,-5.2929,-5.2929,-5.2929,-5.2929,-5.2929,-5.2929,-5.2929,-5.2929,-5.2929,-5.2929,-5.2929,-5.2929,-5.2929,-5.2929,-5.2929,-5.2929,-5.2929,-5.2929,-5.2929,-5.2929,-5.2929,-5.2929,-5.1624,-5.1574,0.0,-5.1322,-5.1272,0.0,-5.082,0.0,0.0,0.0,0.0,0.0,0.0,-4.9715,-4.959,-4.959,-4.959,-4.959,0.0,-4.959,0.0,0.0,0.0,-4.9816,0.0,0.0,0.0,-5.2076,-5.2628,-5.2929,0.0,0.0,-5.2929,-5.2929,-5.2929,-5.2929,-5.2929,-5.2929,-5.2929,-5.2929,-5.2929,-5.2929,-5.2929,-5.2929,-5.2929,-5.2929,-5.2929,-5.2929,-5.2929,-5.2929,-5.2929,-5.2929,-5.2929,-5.2929,-5.2929,-5.2929,-5.2929,-5.2929,-5.2929,-5.2929,-5.2929,-5.2929,-5.2929,-5.2929,-5.2929,-5.2929,-5.2929,-5.2929,-5.2929,-5.2929,-5.2929,-5.2929,-5.2929,-5.2929,-5.2929,-5.2929,-5.2929,-5.2929,-5.2929,-5.2929,-5.2929,-5.2929,-5.2929,-5.2929,-5.2929,-5.2929,-5.2929,-5.2929,-5.2929,-5.2929,-5.2929,-5.2929,-5.2929,-5.2929,-5.2929,-5.2929,-5.2929,-5.2929,-5.2929,-5.2929,-5.2929,-5.2929,-5.2929,-5.2929,-5.2929,-5.2929,-5.2929,-5.2929,-5.2929,-5.2929,-5.2929,-5.2929]},{"header":{"parameterUnit":"m.s-1","parameterCategory":1,"la1":30.6,"la2":29.2853,"lo1":-89.7004,"lo2":-87.6739,"dy":0.0162,"dx":0.0183,"nx":112,"ny":82,"refTime":"2024-04-26T00:00:00:Z","depth":0,"parameterNumber":3,"parameterNumberName":"V-component_of_WINDS"},"data":[0.0,0.0,0.0,0.0,0.0,0.0,0.0,0.0,0.0,0.0,0.0,0.0,0.0,0.0,0.0,0.0,0.0,0.0,0.0,0.0,0.0,0.0,0.0,0.0,0.0,0.0,0.0,0.0,0.0,0.0,0.0,0.0,0.0,0.0,0.0,0.0,0.0,0.0,0.0,0.0,0.0,0.0,0.0,0.0,0.0,0.0,0.0,0.0,0.0,0.0,0.0,0.0,0.0,0.0,0.0,0.0,0.0,0.0,0.0,0.0,0.0,0.0,0.0,0.0,0.0,0.0,0.0,0.0,0.0,0.0,0.0,0.0,0.0,0.0,0.0,0.0,0.0,0.0,0.0,0.0,0.0,0.0,0.0,0.0,0.0,0.0,0.0,0.0,0.0,0.0,3.6631,3.6556,3.6531,3.6505,3.6405,3.6405,3.6405,3.6405,0.0,0.0,0.0,0.0,0.0,0.0,0.0,0.0,0.0,0.0,0.0,0.0,0.0,0.0,0.0,0.0,0.0,0.0,0.0,0.0,0.0,0.0,0.0,0.0,0.0,0.0,0.0,0.0,0.0,0.0,0.0,0.0,0.0,0.0,0.0,0.0,0.0,0.0,0.0,0.0,0.0,0.0,0.0,0.0,0.0,0.0,0.0,0.0,0.0,0.0,0.0,0.0,0.0,0.0,0.0,0.0,0.0,0.0,0.0,0.0,0.0,0.0,0.0,0.0,0.0,0.0,0.0,0.0,0.0,0.0,0.0,0.0,0.0,0.0,0.0,0.0,0.0,0.0,0.0,0.0,0.0,0.0,0.0,0.0,0.0,0.0,0.0,0.0,0.0,0.0,0.0,0.0,0.0,0.0,0.0,0.0,0.0,0.0,0.0,0.0,0.0,0.0,0.0,0.0,3.7588,3.7111,3.7061,3.686,3.6455,3.6405,3.6405,3.6405,0.0,0.0,0.0,0.0,0.0,0.0,0.0,0.0,0.0,0.0,0.0,0.0,0.0,0.0,0.0,0.0,0.0,0.0,0.0,0.0,0.0,0.0,0.0,0.0,0.0,0.0,0.0,0.0,0.0,0.0,0.0,0.0,0.0,0.0,0.0,0.0,0.0,0.0,0.0,0.0,0.0,0.0,0.0,0.0,0.0,0.0,0.0,0.0,0.0,0.0,0.0,0.0,0.0,0.0,0.0,0.0,0.0,0.0,0.0,0.0,0.0,0.0,0.0,0.0,0.0,0.0,0.0,0.0,0.0,0.0,0.0,0.0,0.0,0.0,0.0,0.0,0.0,0.0,0.0,0.0,0.0,0.0,0.0,0.0,0.0,0.0,0.0,0.0,0.0,0.0,0.0,0.0,0.0,0.0,0.0,0.0,0.0,0.0,0.0,0.0,0.0,0.0,0.0,3.8015,3.7914,3.7663,3.7638,3.7412,3.6908,3.6857,3.6732,3.643,3.6405,0.0,0.0,0.0,0.0,0.0,0.0,0.0,0.0,0.0,0.0,0.0,0.0,0.0,0.0,0.0,0.0,0.0,0.0,0.0,0.0,0.0,0.0,0.0,0.0,0.0,0.0,0.0,0.0,0.0,0.0,0.0,0.0,0.0,0.0,0.0,0.0,0.0,0.0,0.0,0.0,0.0,0.0,0.0,0.0,0.0,0.0,0.0,0.0,0.0,0.0,0.0,0.0,0.0,0.0,0.0,0.0,0.0,0.0,0.0,0.0,0.0,0.0,0.0,0.0,0.0,0.0,0.0,0.0,0.0,0.0,0.0,0.0,0.0,0.0,0.0,0.0,0.0,0.0,0.0,0.0,0.0,0.0,0.0,0.0,0.0,0.0,0.0,0.0,0.0,0.0,0.0,0.0,0.0,0.0,0.0,0.0,0.0,0.0,0.0,0.0,0.0,0.0,3.8391,3.8341,3.8216,3.8216,3.799,3.7437,3.7262,3.7059,3.6631,3.648,0.0,0.0,0.0,0.0,0.0,0.0,0.0,0.0,0.0,0.0,0.0,0.0,0.0,0.0,0.0,0.0,0.0,0.0,0.0,0.0,0.0,0.0,0.0,0.0,0.0,0.0,0.0,0.0,0.0,0.0,0.0,0.0,0.0,0.0,0.0,0.0,0.0,0.0,0.0,0.0,0.0,0.0,0.0,0.0,0.0,0.0,0.0,0.0,0.0,0.0,0.0,0.0,0.0,0.0,0.0,0.0,0.0,0.0,0.0,0.0,0.0,0.0,0.0,0.0,0.0,0.0,0.0,0.0,0.0,0.0,0.0,0.0,0.0,0.0,0.0,0.0,0.0,0.0,0.0,0.0,0.0,0.0,0.0,0.0,0.0,0.0,0.0,0.0,0.0,0.0,0.0,0.0,0.0,0.0,0.0,0.0,0.0,0.0,0.0,0.0,0.0,0.0,3.9572,3.9371,3.8868,3.8869,3.8567,3.799,3.7487,3.7161,3.7136,3.6681,0.0,0.0,0.0,0.0,0.0,0.0,0.0,0.0,0.0,0.0,0.0,0.0,0.0,0.0,0.0,0.0,0.0,0.0,0.0,0.0,0.0,0.0,0.0,0.0,0.0,0.0,0.0,0.0,0.0,0.0,0.0,0.0,0.0,0.0,0.0,0.0,0.0,0.0,0.0,0.0,0.0,0.0,0.0,0.0,0.0,0.0,0.0,0.0,0.0,0.0,0.0,0.0,0.0,0.0,0.0,0.0,0.0,0.0,0.0,0.0,0.0,0.0,0.0,0.0,0.0,0.0,0.0,0.0,0.0,0.0,0.0,0.0,0.0,0.0,0.0,0.0,0.0,0.0,0.0,0.0,0.0,0.0,0.0,0.0,0.0,0.0,0.0,0.0,0.0,0.0,0.0,0.0,0.0,0.0,0.0,0.0,0.0,0.0,0.0,0.0,0.0,0.0,3.9697,3.9622,3.9396,3.9371,3.9145,3.8592,3.8366,3.809,3.7713,0.0,0.0,0.0,0.0,0.0,0.0,0.0,0.0,0.0,0.0,0.0,0.0,0.0,0.0,0.0,0.0,0.0,0.0,0.0,0.0,0.0,0.0,0.0,0.0,0.0,0.0,0.0,0.0,0.0,0.0,0.0,0.0,0.0,0.0,0.0,0.0,0.0,0.0,0.0,0.0,0.0,0.0,0.0,0.0,0.0,0.0,0.0,0.0,0.0,0.0,0.0,0.0,0.0,0.0,0.0,0.0,0.0,0.0,0.0,0.0,0.0,0.0,0.0,0.0,0.0,0.0,0.0,0.0,0.0,0.0,0.0,0.0,0.0,0.0,0.0,0.0,0.0,0.0,0.0,0.0,0.0,0.0,0.0,0.0,0.0,0.0,0.0,0.0,0.0,0.0,0.0,0.0,0.0,0.0,0.0,0.0,0.0,0.0,0.0,0.0,0.0,0.0,3.9697,3.9697,3.9697,3.9697,3.9697,3.9546,3.917,3.902,3.8693,3.8316,0.0,0.0,0.0,0.0,0.0,0.0,0.0,0.0,0.0,0.0,0.0,0.0,0.0,0.0,0.0,0.0,0.0,0.0,0.0,0.0,0.0,0.0,0.0,0.0,0.0,0.0,0.0,0.0,0.0,0.0,0.0,0.0,0.0,0.0,0.0,0.0,0.0,0.0,0.0,0.0,0.0,0.0,0.0,0.0,0.0,0.0,0.0,0.0,0.0,0.0,0.0,0.0,0.0,0.0,0.0,0.0,0.0,0.0,0.0,0.0,0.0,0.0,0.0,0.0,0.0,0.0,0.0,0.0,0.0,0.0,0.0,0.0,0.0,0.0,0.0,0.0,0.0,0.0,0.0,0.0,0.0,0.0,0.0,0.0,0.0,0.0,0.0,0.0,0.0,0.0,0.0,0.0,0.0,0.0,0.0,0.0,0.0,0.0,0.0,0.0,0.0,0.0,3.9697,3.9697,3.9697,3.9697,3.9697,3.9697,3.9697,3.9195,3.8919,0.0,0.0,0.0,0.0,0.0,0.0,0.0,0.0,0.0,0.0,0.0,0.0,0.0,0.0,0.0,0.0,0.0,0.0,0.0,0.0,0.0,0.0,0.0,0.0,0.0,0.0,0.0,0.0,0.0,0.0,0.0,0.0,0.0,0.0,0.0,0.0,0.0,0.0,0.0,0.0,0.0,0.0,0.0,0.0,0.0,0.0,0.0,0.0,0.0,0.0,0.0,0.0,0.0,0.0,0.0,0.0,0.0,0.0,0.0,0.0,0.0,0.0,0.0,0.0,0.0,0.0,0.0,0.0,0.0,0.0,0.0,0.0,0.0,0.0,0.0,0.0,0.0,0.0,0.0,0.0,0.0,0.0,0.0,0.0,0.0,0.0,0.0,0.0,0.0,0.0,0.0,0.0,0.0,0.0,0.0,0.0,0.0,0.0,0.0,0.0,0.0,0.0,0.0,3.9697,3.9697,3.9697,3.9697,3.9697,3.9697,3.9697,3.9546,3.9446,3.9446,0.0,0.0,0.0,0.0,0.0,0.0,0.0,0.0,0.0,0.0,0.0,0.0,0.0,0.0,0.0,0.0,0.0,0.0,0.0,0.0,0.0,0.0,0.0,0.0,0.0,0.0,0.0,0.0,0.0,0.0,0.0,0.0,0.0,0.0,0.0,0.0,0.0,0.0,0.0,0.0,0.0,0.0,0.0,0.0,0.0,0.0,0.0,0.0,0.0,0.0,0.0,0.0,0.0,0.0,0.0,0.0,0.0,0.0,0.0,0.0,0.0,0.0,0.0,0.0,0.0,0.0,0.0,0.0,0.0,0.0,0.0,0.0,0.0,0.0,0.0,0.0,0.0,0.0,0.0,0.0,0.0,0.0,0.0,0.0,0.0,0.0,0.0,0.0,0.0,0.0,0.0,0.0,0.0,0.0,0.0,0.0,0.0,0.0,0.0,0.0,0.0,0.0,3.9697,3.9697,3.9697,3.9697,3.9697,3.9697,3.9697,3.9697,3.9697,3.9697,0.0,0.0,0.0,0.0,0.0,0.0,0.0,0.0,0.0,0.0,0.0,0.0,0.0,0.0,0.0,0.0,0.0,0.0,0.0,0.0,0.0,0.0,0.0,0.0,0.0,0.0,0.0,0.0,0.0,0.0,0.0,0.0,0.0,0.0,0.0,0.0,0.0,0.0,0.0,0.0,0.0,0.0,0.0,0.0,0.0,0.0,0.0,0.0,0.0,0.0,0.0,0.0,0.0,0.0,0.0,0.0,0.0,0.0,0.0,0.0,0.0,0.0,0.0,0.0,0.0,0.0,0.0,0.0,0.0,0.0,0.0,0.0,0.0,0.0,0.0,0.0,0.0,0.0,0.0,0.0,0.0,0.0,0.0,0.0,0.0,0.0,0.0,0.0,0.0,0.0,0.0,0.0,0.0,0.0,0.0,0.0,0.0,0.0,0.0,0.0,0.0,0.0,3.9697,3.9697,3.9697,3.9697,3.9697,3.9697,3.9697,3.9697,3.9697,3.9697,0.0,0.0,0.0,0.0,0.0,0.0,0.0,0.0,0.0,0.0,0.0,0.0,0.0,0.0,0.0,0.0,0.0,0.0,0.0,0.0,0.0,0.0,0.0,0.0,0.0,0.0,0.0,0.0,0.0,0.0,0.0,0.0,0.0,0.0,0.0,0.0,0.0,0.0,0.0,0.0,0.0,0.0,0.0,0.0,0.0,0.0,0.0,0.0,0.0,0.0,0.0,0.0,0.0,0.0,0.0,0.0,0.0,0.0,0.0,0.0,4.0924,0.0,0.0,0.0,0.0,0.0,0.0,0.0,0.0,0.0,0.0,0.0,0.0,0.0,0.0,0.0,0.0,0.0,0.0,0.0,0.0,0.0,0.0,0.0,0.0,0.0,0.0,0.0,0.0,0.0,0.0,0.0,0.0,0.0,0.0,0.0,0.0,0.0,0.0,0.0,0.0,0.0,3.9697,3.9697,3.9697,3.9697,3.9697,3.9697,3.9697,3.9697,3.9697,3.9697,3.9697,0.0,0.0,0.0,0.0,0.0,0.0,0.0,0.0,0.0,0.0,0.0,0.0,0.0,0.0,0.0,0.0,0.0,0.0,0.0,0.0,0.0,0.0,0.0,0.0,0.0,0.0,0.0,0.0,0.0,0.0,0.0,0.0,0.0,0.0,0.0,0.0,0.0,0.0,0.0,0.0,0.0,0.0,0.0,0.0,0.0,0.0,0.0,0.0,0.0,0.0,0.0,0.0,0.0,0.0,0.0,0.0,0.0,0.0,0.0,0.0,4.1275,0.0,0.0,0.0,0.0,0.0,0.0,0.0,0.0,0.0,0.0,0.0,0.0,0.0,0.0,0.0,0.0,0.0,0.0,0.0,0.0,0.0,0.0,0.0,0.0,0.0,0.0,0.0,0.0,0.0,0.0,0.0,0.0,0.0,0.0,0.0,0.0,0.0,0.0,0.0,0.0,3.9697,3.9697,3.9697,3.9697,3.9697,3.9697,3.9697,3.9697,3.9697,3.9697,3.9697,0.0,0.0,0.0,0.0,0.0,0.0,0.0,0.0,0.0,0.0,0.0,0.0,0.0,0.0,0.0,0.0,0.0,0.0,0.0,0.0,0.0,0.0,0.0,0.0,0.0,0.0,0.0,0.0,0.0,0.0,0.0,0.0,0.0,0.0,0.0,0.0,0.0,0.0,0.0,0.0,0.0,0.0,0.0,0.0,0.0,0.0,0.0,0.0,0.0,0.0,0.0,0.0,0.0,4.2986,4.2986,4.2986,4.2986,4.2986,4.2936,4.2007,4.163,4.163,4.163,0.0,0.0,0.0,0.0,0.0,0.0,0.0,0.0,0.0,0.0,0.0,0.0,0.0,0.0,0.0,0.0,0.0,0.0,0.0,0.0,0.0,0.0,0.0,0.0,3.9697,3.9697,0.0,0.0,0.0,0.0,0.0,0.0,0.0,0.0,0.0,0.0,0.0,0.0,3.9697,3.9697,3.9697,3.9697,3.9697,3.9697,3.9697,3.9697,3.9697,3.9697,3.9697,3.9697,0.0,0.0,0.0,0.0,0.0,0.0,0.0,0.0,0.0,0.0,0.0,0.0,0.0,0.0,0.0,0.0,0.0,0.0,0.0,0.0,0.0,0.0,0.0,0.0,0.0,0.0,0.0,0.0,0.0,0.0,0.0,0.0,4.0576,4.1025,0.0,0.0,0.0,0.0,0.0,0.0,0.0,0.0,0.0,0.0,0.0,0.0,0.0,4.2861,4.2861,4.2936,4.2986,4.2986,4.2986,4.2986,4.2986,4.2986,4.2986,4.2961,4.2811,0.0,4.276,4.276,0.0,0.0,0.0,0.0,0.0,0.0,0.0,0.0,0.0,0.0,0.0,0.0,0.0,0.0,0.0,0.0,0.0,0.0,0.0,0.0,0.0,0.0,3.9697,3.9697,3.9697,3.9697,0.0,3.9697,3.9697,3.9697,3.9697,0.0,0.0,0.0,0.0,0.0,0.0,0.0,3.9697,3.9697,3.9697,3.9697,3.9697,3.9697,3.9697,3.9697,3.9697,3.9697,3.9697,3.9697,3.9697,3.9697,0.0,0.0,0.0,0.0,0.0,0.0,0.0,0.0,0.0,0.0,0.0,0.0,0.0,0.0,0.0,0.0,0.0,0.0,0.0,0.0,0.0,0.0,0.0,0.0,0.0,0.0,0.0,0.0,0.0,4.0774,4.1025,4.125,4.1275,4.1401,0.0,0.0,0.0,0.0,0.0,0.0,0.0,0.0,0.0,4.3413,4.3438,4.3589,4.389,4.389,4.389,4.389,4.389,4.389,4.389,4.389,4.389,4.389,4.389,4.389,4.3865,4.3237,4.2986,4.2986,0.0,0.0,0.0,0.0,4.2459,4.2208,4.1907,4.1806,0.0,4.1376,0.0,0.0,0.0,0.0,0.0,0.0,0.0,0.0,0.0,0.0,4.0626,4.0626,4.0626,4.0626,4.0626,4.0626,4.0425,0.0,3.9697,3.9697,3.9697,0.0,0.0,0.0,0.0,4.0149,4.0149,4.0425,4.0626,4.0626,4.035,4.0149,4.0149,3.9873,3.9697,3.9697,3.9697,3.9697,3.9697,3.9697,3.9697,0.0,0.0,0.0,0.0,0.0,0.0,0.0,0.0,0.0,0.0,0.0,0.0,0.0,0.0,0.0,0.0,0.0,0.0,0.0,0.0,0.0,0.0,0.0,0.0,0.0,0.0,0.0,0.0,4.1555,4.1605,4.1756,4.1702,4.1907,0.0,0.0,0.0,0.0,0.0,0.0,4.3187,4.3187,4.3438,4.3991,4.4016,4.4292,4.4844,4.4844,4.492,4.5045,4.5045,4.5045,4.5045,4.5045,4.5045,4.5045,4.5045,4.5045,4.497,4.3865,4.3313,4.3187,4.3187,4.3112,4.2986,4.2986,4.2986,4.2911,4.2564,4.2414,4.2363,4.1882,0.0,4.1702,4.1702,0.0,0.0,0.0,0.0,4.1505,4.1326,4.1275,4.1275,4.1275,4.1275,4.1275,4.1275,4.1275,4.105,0.0,4.0124,4.0124,4.0124,0.0,0.0,0.0,0.0,4.0674,4.0674,4.1025,4.1275,4.1275,4.0924,4.0674,4.0674,4.0224,3.9898,3.9898,3.9772,3.9697,3.9697,3.9697,3.9697,3.9697,0.0,0.0,0.0,0.0,0.0,0.0,0.0,0.0,0.0,0.0,0.0,0.0,0.0,0.0,0.0,0.0,0.0,0.0,0.0,0.0,0.0,0.0,0.0,0.0,0.0,0.0,0.0,0.0,0.0,4.2836,4.2886,0.0,0.0,0.0,0.0,4.2986,4.2986,4.3212,4.374,4.3765,4.4016,4.4568,4.4593,4.4869,4.5447,4.5447,4.5698,4.6225,4.6225,4.6225,4.6225,4.6225,4.6225,4.6225,4.6225,4.6225,4.615,4.4995,4.4242,4.3765,4.3765,4.3438,4.2986,4.2986,4.2986,4.2986,4.2936,4.2936,4.2936,4.2911,4.2886,4.2886,4.2886,4.2886,0.0,0.0,4.2162,4.2037,4.148,4.1275,4.1275,4.1275,4.1275,4.1275,4.1275,4.1275,4.1275,0.0,4.12,4.12,4.12,0.0,4.12,4.12,4.1225,4.125,4.125,4.1275,4.1275,4.1275,4.125,4.125,4.125,4.0802,4.0475,4.0475,3.9973,3.9697,3.9697,3.9697,3.9697,3.9697,3.9697,0.0,0.0,0.0,0.0,0.0,0.0,0.0,0.0,0.0,0.0,0.0,0.0,0.0,0.0,0.0,0.0,0.0,0.0,0.0,0.0,0.0,0.0,0.0,0.0,0.0,0.0,0.0,0.0,4.2961,4.2986,0.0,4.2986,4.3288,4.3514,4.3514,4.384,4.4116,4.4317,4.4669,4.5146,4.5698,4.605,4.6502,4.7029,4.7405,4.7707,4.7908,4.8259,4.8435,4.841,4.8058,4.7908,4.7883,4.7506,4.733,4.7305,4.6903,4.5999,4.4844,4.4468,4.4217,4.4041,4.4041,4.4041,4.4041,4.4041,4.4041,4.4041,4.4041,4.4041,4.3966,4.3614,4.3514,4.3388,4.2891,4.2936,4.3162,4.2961,4.3187,4.3407,4.3407,4.3407,4.3407,4.3407,4.3407,4.3407,4.3407,4.2253,4.1275,4.1275,4.1275,4.1275,4.1275,4.163,4.1856,4.1856,4.2183,4.2384,4.2384,4.2082,4.1856,4.1856,4.1354,4.1,4.1,4.0526,4.0224,4.0224,3.9873,3.9697,3.9697,3.9697,3.9697,0.0,0.0,0.0,0.0,0.0,0.0,0.0,0.0,0.0,0.0,0.0,0.0,0.0,0.0,0.0,0.0,0.0,0.0,0.0,0.0,0.0,0.0,0.0,0.0,0.0,4.2986,4.2986,4.2986,4.3137,4.3263,4.3263,4.3765,4.4091,4.4091,4.4593,4.4995,4.5171,4.5723,4.6376,4.7129,4.7506,4.8033,4.8736,4.9138,4.9414,4.9615,4.9992,5.0167,5.0142,4.9791,4.9615,4.959,4.9213,4.8937,4.8736,4.856,4.7732,4.6527,4.5773,4.5347,4.5171,4.4995,4.492,4.4895,4.4694,4.4618,4.4618,4.4618,4.4618,4.4543,4.4192,4.4091,4.3991,4.3639,4.379,4.4091,4.4091,4.4342,4.4618,4.4618,4.4618,4.4618,4.4618,4.4618,4.4618,4.4618,4.3438,4.2404,4.2404,4.2404,4.2404,4.2404,4.276,4.2986,4.2986,4.3313,4.3463,4.3263,4.2936,4.269,4.2514,4.1932,4.1605,4.1605,4.1103,4.0701,4.0526,4.0174,3.9873,3.9697,3.9697,3.9697,3.9697,0.0,0.0,0.0,0.0,0.0,0.0,0.0,0.0,0.0,0.0,0.0,0.0,0.0,0.0,0.0,0.0,0.0,0.0,0.0,0.0,0.0,0.0,0.0,4.3011,4.3011,4.3011,4.3037,4.3514,4.384,4.384,4.4342,4.4694,4.4694,4.5246,4.5799,4.6351,4.6903,4.7707,4.8786,4.8837,4.9364,5.0444,5.0469,5.0745,5.1297,5.1322,5.1322,5.1322,5.1322,5.1297,5.1297,5.1297,5.0971,5.0393,4.9866,4.9339,4.8736,4.7606,4.6828,4.6301,4.5773,4.5573,4.5472,4.492,4.4719,4.4719,4.4719,4.4719,4.4719,4.4694,4.4669,4.4669,4.4644,4.4644,4.4644,4.4644,4.4669,4.4669,4.4669,4.4669,4.4669,4.4669,4.4669,4.4669,4.4669,4.4669,4.4669,4.4644,4.4618,4.4618,4.4618,4.4618,0.0,4.4618,4.4618,4.4418,4.389,4.3815,4.3614,4.3062,4.259,4.2263,4.2263,4.1681,4.1075,4.0601,4.0551,4.0275,3.9722,3.9697,3.9697,3.9697,0.0,0.0,0.0,0.0,0.0,0.0,0.0,0.0,0.0,0.0,0.0,0.0,0.0,0.0,0.0,0.0,0.0,0.0,0.0,0.0,0.0,4.4166,4.4041,4.3639,4.3589,4.3714,4.4116,4.4292,4.4568,4.497,4.5522,4.5999,4.6341,4.6928,4.7506,4.8058,4.8611,4.9238,4.9941,5.0368,5.0745,5.1046,5.1448,5.1724,5.1875,5.2277,5.2477,5.2452,5.2076,5.1875,5.185,5.1448,5.1197,5.1021,5.087,5.072,5.0393,4.846,4.7606,4.7456,4.7305,4.723,4.723,4.7054,4.7004,4.7004,4.7004,4.7004,4.6853,4.6075,4.5849,4.5673,4.4844,4.492,4.5246,4.5246,4.5547,4.5849,4.5849,4.5849,4.5849,4.5849,4.5849,4.5849,4.5849,4.5849,4.5598,4.4769,4.4618,4.4618,4.4618,4.4618,0.0,4.4618,4.4618,4.4568,4.4418,4.4392,4.4342,4.4192,4.3664,4.3338,4.3338,4.2459,4.1856,4.1706,4.1329,4.0852,4.03,3.9898,3.9697,0.0,0.0,0.0,0.0,0.0,0.0,0.0,0.0,0.0,0.0,0.0,0.0,0.0,0.0,0.0,0.0,0.0,0.0,0.0,0.0,0.0,0.0,4.4618,4.4593,4.4518,4.4292,4.4342,4.492,4.5196,4.5547,4.6125,4.6677,4.7205,4.7782,4.8309,4.8862,4.9439,4.9992,5.0569,5.1122,5.1448,5.1724,5.1975,5.2277,5.2452,5.2452,5.2779,5.2929,5.2929,5.2603,5.2452,0.0,5.2126,5.185,5.1624,5.1624,5.1498,0.0,0.0,0.0,0.0,0.0,4.8109,4.7908,4.7908,4.7908,4.7908,4.7908,4.7908,4.7782,4.7179,4.6979,4.6828,4.6175,4.6225,4.6502,4.6502,4.6728,4.6979,4.6979,4.6979,4.6979,4.6979,4.6979,4.6979,4.6979,4.6979,0.0,4.6125,4.5623,4.5321,4.5321,4.5321,4.5321,4.5321,4.5321,4.5246,4.502,4.4995,4.4895,4.4644,4.4317,0.0,0.0,0.0,4.269,4.2238,4.163,0.0,0.0,0.0,4.0049,4.0049,0.0,0.0,0.0,3.922,3.9044,0.0,0.0,0.0,0.0,0.0,0.0,0.0,0.0,0.0,0.0,0.0,0.0,0.0,0.0,0.0,0.0,4.4819,4.502,4.5598,4.5221,4.5095,4.5623,4.615,4.6702,4.7255,4.7782,4.8335,4.8912,4.9464,5.0017,5.0569,5.1096,0.0,0.0,0.0,5.2427,5.2929,5.2929,5.2929,5.2929,5.2929,5.2929,5.2929,5.2929,5.2929,5.2929,5.2929,5.2653,5.2201,5.2201,5.1875,5.1322,5.0745,5.0519,5.0393,4.9339,4.8636,4.8184,4.8109,0.0,0.0,4.8109,4.8109,4.8083,4.8033,4.8008,4.7983,4.7933,4.7908,4.7908,4.7908,4.7908,4.7908,4.7908,4.7908,4.7908,4.7908,4.7908,4.7908,4.7908,4.7908,4.7908,4.7908,4.7129,4.6476,4.6401,4.6401,4.6376,4.6326,4.6301,4.6125,4.5623,0.0,0.0,4.4869,4.4769,4.4518,4.4016,4.3865,4.3363,4.2439,4.1756,4.1376,4.1376,4.0902,4.0601,4.0601,4.0049,3.9798,3.9798,3.9722,3.9697,0.0,0.0,0.0,0.0,0.0,0.0,0.0,0.0,0.0,0.0,0.0,0.0,0.0,0.0,0.0,4.5924,4.5974,4.6175,4.6728,4.6728,4.6642,4.6803,4.728,4.7832,4.841,4.8962,4.949,5.0067,5.0619,5.1197,5.1749,5.1875,5.2201,5.2754,5.2779,5.2829,5.2929,5.2929,5.2929,5.2929,0.0,0.0,5.2929,5.2929,5.2929,5.2929,5.2929,5.2879,5.2779,5.2779,5.2452,5.19,5.1322,5.1122,5.1021,5.0343,5.0017,4.9866,4.9414,4.9264,4.9264,4.9264,4.9264,4.9188,4.8736,4.8611,0.0,4.8033,4.7908,4.7908,4.7908,4.7908,4.7908,4.7908,4.7908,4.7908,4.7908,4.7908,4.7908,4.7908,4.7908,4.7908,4.7908,4.7732,4.7456,4.7029,4.6979,4.6803,4.6376,4.6301,4.6276,4.6175,4.615,4.61,4.5999,4.5573,4.5271,4.5171,4.4317,4.3714,4.3489,4.2534,4.2062,4.2062,4.1455,4.1125,4.1125,4.0626,4.035,4.035,3.9898,3.9697,0.0,0.0,0.0,0.0,0.0,0.0,0.0,0.0,0.0,0.0,0.0,4.5221,4.5799,0.0,4.5999,4.6276,4.6552,4.6828,4.7043,4.7606,4.7958,4.7958,4.8184,4.8661,4.9515,4.9841,5.0368,5.1197,5.1523,5.1925,5.2477,5.2528,5.2628,5.2929,5.2929,5.2929,5.2929,5.2929,5.2929,5.2929,5.2929,5.2929,5.2929,5.2929,5.2929,5.2929,5.2929,5.2929,5.2929,5.2929,5.2754,5.2477,5.2226,5.1774,5.1247,5.0946,5.0845,5.082,5.0544,5.0444,5.0393,5.0092,5.0017,4.9916,4.9339,4.9188,4.9113,4.8837,4.8761,4.8761,4.8761,4.8761,4.8761,4.8761,4.8761,4.8761,4.8761,4.8761,4.8761,4.8761,4.8761,4.8761,4.8761,4.8761,4.8485,4.7657,4.7531,4.7431,4.7154,4.7104,4.7004,4.6753,4.6728,4.6602,4.6326,4.5799,4.5497,4.5497,4.4694,4.4091,4.3815,4.3263,4.2836,4.264,4.2032,4.1756,4.1756,4.1204,4.0874,4.0874,4.0651,4.0224,0.0,0.0,0.0,0.0,0.0,0.0,0.0,4.4392,4.492,4.5397,4.5573,4.5773,4.6225,4.6301,4.6351,4.6451,4.6853,4.7143,4.7431,4.8209,4.8812,4.8912,4.9038,4.9439,5.0343,5.0619,5.1122,5.2026,5.2201,5.2452,5.2904,5.2929,5.2929,5.2929,5.2929,5.2929,5.2929,5.2929,5.2929,5.2929,5.2929,5.2929,5.2929,5.2929,5.2929,5.2929,5.2929,5.2929,5.2929,5.2929,5.2929,5.2929,5.2929,5.2377,5.1599,5.1473,5.1448,5.1423,5.1322,5.1272,5.1197,5.0745,5.0569,5.0494,5.0067,4.9841,4.9766,4.9766,4.9665,4.959,4.959,4.959,4.959,4.959,4.959,4.959,4.959,4.959,4.959,4.959,4.959,4.959,4.959,4.959,4.9238,4.8234,4.8083,4.8033,4.7933,4.7908,4.7732,4.733,4.728,4.7054,4.6527,4.5974,4.5648,4.5648,4.5121,4.4593,4.4141,4.4016,4.3689,4.3162,4.2766,4.2464,4.2363,4.1756,4.1505,4.1505,4.1326,4.0852,4.2986,4.2986,4.3087,4.3589,4.3765,4.394,0.0,4.497,4.5422,4.5472,4.5874,4.6225,4.6301,4.6301,4.6476,4.6954,4.7043,4.7481,4.846,4.8686,4.8962,4.9439,4.9941,5.0293,5.0419,5.1322,5.1975,5.2101,5.2553,5.2854,5.2929,5.2929,5.2929,5.2929,5.2929,5.2929,5.2929,5.2929,5.2929,5.2929,5.2929,5.2929,5.2929,5.2929,5.2929,5.2929,5.2929,5.2929,5.2929,5.2929,5.2929,5.2929,5.2929,5.2854,5.2678,5.2201,5.2026,5.195,5.1448,5.1272,5.1272,5.1197,5.1197,5.1172,5.1122,5.0745,5.0318,5.0318,4.9967,4.959,4.959,4.959,4.959,4.959,4.959,4.959,4.959,4.959,4.959,4.959,4.959,4.959,4.959,4.959,4.9389,4.8761,4.8686,4.8485,4.7983,4.7908,4.7883,4.7832,4.7832,4.7606,4.7079,4.6527,4.6225,4.6225,4.5698,4.5372,4.5296,4.4794,4.4267,4.3714,4.3639,4.3363,4.2886,4.2389,4.2112,4.2112,4.1555,4.1225,4.2986,4.3212,4.3514,4.374,4.4292,4.4844,4.507,4.5573,4.5974,4.5974,4.615,4.6301,4.6301,4.6577,4.6853,4.7043,4.7682,4.8259,4.8711,4.9063,4.9464,5.0017,5.0569,5.0921,5.0921,5.1649,5.2226,5.2553,5.2804,5.2929,5.2929,5.2929,5.2929,5.2929,5.2929,5.2929,5.2929,5.2929,5.2929,5.2929,5.2929,5.2929,5.2929,5.2929,5.2929,5.2929,5.2929,5.2929,5.2929,5.2929,5.2929,5.2929,5.2929,5.2929,5.2904,5.2678,5.2578,5.2553,5.2327,5.2226,5.2176,5.1875,5.1749,5.1699,5.1373,5.1096,5.0921,5.0921,5.0745,5.0569,5.0569,5.0318,5.0067,5.0067,4.9816,4.959,4.959,4.959,4.959,4.959,4.959,4.959,4.959,4.959,4.9515,4.9289,4.9264,4.9163,4.8912,4.8887,4.8761,4.8435,4.8109,4.7707,4.7179,4.6928,4.6652,4.6326,4.61,4.5824,4.5497,4.5246,4.4869,4.4292,4.4292,4.4016,4.3463,4.3212,4.2936,4.269,4.2409,4.2283,4.3162,4.3489,4.389,4.4192,4.4869,4.5522,4.5673,4.6024,4.6301,4.6301,4.6301,4.6301,4.6301,4.6753,4.7179,4.733,4.8159,4.8812,4.8987,4.9464,4.9967,5.0368,5.1071,5.1498,5.1498,5.2,5.2503,5.2904,5.2929,5.2929,5.2929,5.2929,5.2929,5.2929,5.2929,5.2929,5.2929,5.2929,5.2929,5.2929,5.2929,5.2929,5.2929,5.2929,5.2929,5.2929,5.2929,5.2929,5.2929,5.2929,5.2929,5.2929,5.2929,5.2929,5.2929,5.2929,5.2929,5.2929,5.2929,5.2929,5.2854,5.2452,5.2327,5.2251,5.185,5.1624,5.1498,5.1498,5.1398,5.1272,5.1272,5.0971,5.067,5.067,5.0343,5.0017,4.9866,4.9816,4.9766,4.9615,4.959,4.959,4.959,4.959,4.959,4.959,4.959,4.959,4.959,4.959,4.9439,4.9038,4.8485,4.7983,4.7606,4.7431,4.7104,4.6577,4.6552,4.6301,4.5723,4.5723,4.5447,4.4869,4.4869,4.4593,4.4041,4.4041,4.374,4.3212,4.3212,4.3112,4.3639,4.379,4.4066,4.5171,4.5472,4.5623,4.6175,4.6301,4.6301,4.6301,4.6301,4.6301,4.6301,4.6753,4.7305,4.7807,4.8385,4.8962,4.949,5.0042,5.0393,5.0419,5.1398,5.2076,5.2076,5.2578,5.2904,5.2929,5.2929,5.2929,5.2929,5.2929,5.2929,5.2929,5.2929,5.2929,5.2929,5.2929,5.2929,5.2929,5.2929,5.2929,5.2929,5.2929,5.2929,5.2929,5.2929,5.2929,5.2929,5.2929,5.2929,5.2929,5.2929,5.2929,5.2929,5.2929,5.2929,5.2929,5.2929,5.2929,5.2929,5.2904,5.2904,5.2904,5.2879,5.2503,5.2076,5.2076,5.1699,5.1272,5.1272,5.1272,5.1247,5.1247,5.1247,5.1071,5.0519,5.0393,5.0243,4.969,4.959,4.959,4.959,4.959,4.959,4.959,4.959,4.959,4.959,4.959,4.959,4.9565,4.9063,4.8736,4.8711,4.8209,4.7657,4.7093,4.7043,4.6853,4.6301,4.6276,4.6024,4.5472,4.5472,4.5171,4.4593,4.4593,4.4317,4.379,4.379,4.3489,4.374,4.4342,4.502,4.5397,4.5773,4.6075,4.6276,4.6301,4.6301,4.6301,4.6301,4.6426,4.6803,4.728,4.7832,4.8385,4.8962,4.9389,4.9565,5.0067,5.0569,5.0946,5.1649,5.2251,5.2628,5.2829,5.2929,5.2929,5.2929,5.2929,5.2929,5.2929,5.2929,5.2929,5.2929,5.2929,5.2929,5.2929,5.2929,5.2929,5.2929,5.2929,5.2929,5.2929,5.2929,5.2929,5.2929,5.2929,5.2929,5.2929,5.2929,5.2929,5.2929,5.2929,5.2929,5.2929,5.2929,5.2929,5.2929,5.2929,5.2929,5.2929,5.2929,5.2929,5.2929,5.2804,5.2653,5.2653,5.2528,5.2377,5.2377,5.2101,5.1825,5.1825,5.1548,5.1222,5.1021,5.0996,5.0946,5.0745,5.0393,5.0142,5.0142,4.9841,4.959,4.959,4.959,4.959,4.959,4.959,4.959,4.959,4.9439,4.9163,4.8812,4.8586,4.8234,4.7682,4.733,4.6993,4.6853,4.6502,4.6225,4.6024,4.6024,4.5748,4.5196,4.5196,4.4895,4.4342,4.4342,4.4242,4.4041,4.4769,4.5547,4.5723,4.605,4.6301,4.6301,4.6301,4.6301,4.6301,4.6476,4.6702,4.7079,4.7732,4.8335,4.8711,4.9238,4.9665,4.9866,5.0368,5.0946,5.1498,5.2076,5.2528,5.2904,5.2929,5.2929,5.2929,5.2929,5.2929,5.2929,5.2929,5.2929,5.2929,5.2929,5.2929,5.2929,5.2929,5.2929,5.2929,5.2929,5.2929,5.2929,5.2929,5.2929,5.2929,5.2929,5.2929,5.2929,5.2929,5.2929,5.2929,5.2929,5.2929,5.2929,5.2929,5.2929,5.2929,5.2929,5.2929,5.2929,5.2929,5.2929,5.2929,5.2929,5.2929,5.2929,5.2929,5.2929,5.2929,5.2929,5.2653,5.2402,5.2402,5.2126,5.1825,5.1624,5.1574,5.1523,5.1322,5.0971,5.072,5.072,5.0268,4.9816,4.9615,4.959,4.959,4.959,4.959,4.959,4.959,4.959,4.9464,4.9088,4.9063,4.8812,4.8259,4.7908,4.7531,4.7093,4.6803,4.6502,4.6301,4.6301,4.6125,4.5773,4.5773,4.5497,4.4945,4.4945,4.4819,4.4518,4.5095,4.5648,4.6175,4.6301,4.6301,4.6301,4.6301,4.6326,4.6351,4.6778,4.7093,4.7143,4.8083,4.8786,4.8812,4.9264,4.9791,5.0343,5.0921,5.1498,5.2051,5.2578,5.2929,5.2929,5.2929,5.2929,5.2929,5.2929,5.2929,5.2929,5.2929,5.2929,5.2929,5.2929,5.2929,5.2929,5.2929,5.2929,5.2929,5.2929,5.2929,5.2929,5.2929,5.2929,5.2929,5.2929,5.2929,5.2929,5.2929,5.2929,5.2929,5.2929,5.2929,5.2929,5.2929,5.2929,5.2929,5.2929,5.2929,5.2929,5.2929,5.2929,5.2929,5.2929,5.2929,5.2929,5.2929,5.2929,5.2929,5.2929,5.2929,5.2929,5.2929,5.2929,5.2779,5.2251,5.2151,5.2,5.1473,5.1348,5.1322,5.1297,5.0795,5.0243,4.9715,4.9615,4.959,4.959,4.959,4.959,4.959,4.959,4.959,4.959,4.959,4.9364,4.8837,4.8786,4.8309,4.7193,4.7093,4.6878,4.6351,4.6326,4.6301,4.6301,4.6301,4.605,4.5522,4.5522,4.5221,4.5121,4.5673,4.6125,4.6276,4.6301,4.6301,4.6301,4.6301,4.6426,4.6828,4.6968,4.738,4.8209,4.8586,4.8912,4.9314,4.9515,4.9791,5.0343,5.0921,5.1498,5.2051,5.2578,5.2929,5.2929,5.2929,5.2929,5.2929,5.2929,5.2929,5.2929,5.2929,5.2929,5.2929,5.2929,5.2929,5.2929,5.2929,5.2929,5.2929,5.2929,5.2929,5.2929,5.2929,5.2929,5.2929,5.2929,5.2929,5.2929,5.2929,5.2929,5.2929,5.2929,5.2929,5.2929,5.2929,5.2929,5.2929,5.2929,5.2929,5.2929,5.2929,5.2929,5.2929,5.2929,5.2929,5.2929,5.2929,5.2929,5.2929,5.2929,5.2929,5.2929,5.2929,5.2929,5.2879,5.2754,5.2729,5.2678,5.2528,5.2176,5.1774,5.1348,5.0795,5.0368,5.0218,4.9866,4.959,4.959,4.959,4.959,4.959,4.959,4.959,4.959,4.959,4.954,4.9389,4.9012,4.8636,4.836,4.7556,4.7079,4.6928,4.6527,4.6301,4.6301,4.6301,4.6225,4.61,4.61,4.6024,4.5321,4.5899,4.6301,4.6301,4.6301,4.6301,4.6301,4.6502,4.6753,4.7079,4.7506,4.8033,4.8661,4.8962,4.9238,4.954,4.959,4.9866,5.067,5.1071,5.1574,5.2377,5.2729,5.2929,5.2929,5.2929,5.2929,5.2929,5.2929,5.2929,5.2929,5.2929,5.2929,5.2929,5.2929,5.2929,5.2929,5.2929,5.2929,5.2929,5.2929,5.2929,5.2929,5.2929,5.2929,5.2929,0.0,5.2929,5.2929,5.2929,5.2929,5.2929,5.2929,5.2929,5.2929,5.2929,5.2929,5.2929,5.2929,5.2929,5.2929,5.2929,5.2929,5.2929,5.2929,5.2929,5.2929,5.2929,5.2929,5.2929,5.2929,5.2929,5.2929,5.2929,5.2929,5.2929,5.2929,5.2929,5.2929,5.2929,5.2678,5.2302,5.1724,5.1506,5.1169,5.0691,5.0493,5.0254,4.9898,4.9654,4.959,4.959,4.959,4.959,4.959,4.959,4.959,4.959,4.9314,4.9038,4.8786,4.8184,4.7631,4.7093,4.6828,4.6552,4.6301,4.6301,4.6301,4.6301,4.6301,4.6301,4.5422,4.5949,4.6301,4.6301,4.6301,4.6301,4.6301,4.6728,4.7093,4.723,4.8058,4.8786,4.8862,4.9264,4.959,4.959,4.959,4.9992,5.1122,5.1272,5.1699,5.2804,5.2929,5.2929,5.2929,5.2929,5.2929,5.2929,5.2929,5.2929,5.2929,5.2929,5.2929,5.2929,5.2929,5.2929,5.2929,5.2929,5.2929,5.2929,5.2929,5.2929,5.2929,5.2929,5.2929,5.2929,5.2929,0.0,5.2929,5.2929,5.2929,5.2929,5.2929,5.2929,5.2929,5.2929,5.2929,5.2929,5.2929,5.2929,5.2929,5.2929,5.2929,5.2929,5.2929,5.2929,5.2929,5.2929,5.2929,5.2929,5.2929,5.2929,5.2929,5.2929,5.2929,5.2929,5.2998,5.2998,5.3067,5.2998,5.2998,5.2847,5.237,5.2531,5.2352,5.1452,5.1432,5.1241,5.041,4.9898,4.9654,4.959,4.959,4.959,4.959,4.959,4.959,4.959,4.959,4.9389,4.8912,4.8812,4.8335,4.7355,4.7143,4.6903,4.6426,4.6351,4.6301,4.6301,4.6301,4.6301,4.5874,4.6225,4.6301,4.6301,4.6301,4.6301,4.6301,4.6728,4.7255,4.7682,4.8309,4.8912,4.9364,4.954,4.959,4.959,4.959,4.9992,5.1122,5.1272,5.1699,5.2804,5.2929,5.2929,5.2929,5.2929,5.2929,5.2929,5.2929,5.2929,5.2929,5.2929,5.2929,5.2929,5.2929,5.2929,5.2929,5.2929,5.2929,5.2929,5.2929,5.2929,5.2929,5.2929,5.2929,5.2929,5.2929,0.0,5.2929,5.2929,5.2929,5.2929,5.2929,5.2929,5.2929,5.2929,5.2929,5.2929,5.2929,5.2929,5.2929,5.2929,5.2929,5.2929,5.2929,5.2929,5.2929,5.2929,5.2929,5.2929,5.2929,5.2929,5.2929,5.2929,5.2929,5.2998,5.3341,5.3589,5.3725,5.3478,5.341,5.3384,5.3283,5.3122,5.3048,5.32,5.2505,5.173,5.1306,5.0511,4.9912,4.9654,4.959,4.959,4.959,4.959,4.959,4.959,4.959,4.9565,4.9464,4.9012,4.8686,4.8485,4.7606,4.7018,4.6943,4.6527,4.6301,4.6301,4.6301,4.6301,4.6075,4.6301,4.6301,4.6301,4.6301,4.6301,4.6301,4.6954,4.7606,4.7857,4.8586,4.9289,4.954,4.959,4.959,4.959,4.959,4.9992,5.1122,5.1272,5.1699,5.2804,5.2929,5.2929,5.2929,5.2929,5.2929,5.2929,5.2929,5.2929,5.2929,5.2929,5.2929,5.2929,5.2929,5.2929,5.2929,5.2929,5.2929,5.2929,5.2929,5.2929,5.2929,5.2929,5.2929,5.2929,5.2929,0.0,5.2929,5.2929,5.2929,5.2929,5.2929,5.2929,5.2929,5.2929,5.2929,5.2929,5.2929,5.2929,5.2929,5.2929,5.2929,5.2929,5.2929,5.2929,5.2929,5.2929,5.2929,5.2929,5.2929,5.2929,5.2929,5.2929,5.3179,5.3589,5.3929,5.4309,5.4443,5.4132,5.3861,5.3725,5.3725,5.3942,5.41,5.421,5.4103,5.3587,5.2447,5.1588,5.0755,4.9962,4.9847,4.9912,5.0104,4.9976,4.9912,5.0104,4.9976,4.9912,5.0104,4.9723,4.9444,4.933,4.8635,4.8016,4.7618,4.7218,4.6819,4.6566,4.6361,4.6301,4.615,4.6301,4.6301,4.6301,4.6301,4.6351,4.6451,4.723,4.7933,4.8058,4.8887,4.959,4.959,4.959,4.959,4.959,4.959,4.9992,5.1122,5.1272,5.1699,5.2804,5.2929,5.2929,5.2929,5.2929,5.2929,5.2929,5.2929,5.2929,5.2929,5.2929,5.2929,5.2929,5.2929,5.2929,5.2929,5.2929,5.2929,5.2929,5.2929,5.2929,5.2929,5.2929,5.2929,5.2929,5.2929,0.0,0.0,5.2929,5.2929,5.2929,5.2929,5.2929,5.2929,5.2929,5.2929,5.2929,5.2929,5.2929,5.2929,5.2929,5.2929,5.2929,5.2929,5.2929,5.2929,5.2998,5.2998,5.3067,5.3204,5.3179,5.3136,5.3136,5.3725,5.4443,5.4753,5.5153,5.5353,5.502,5.4712,5.4443,5.4443,5.502,5.5459,5.5466,5.5821,5.5464,5.3761,5.2855,5.1869,5.0729,5.0359,5.0359,5.0652,5.0487,5.0487,5.0778,5.0487,5.0487,5.0778,5.0487,5.0219,5.0073,4.972,4.9209,4.8557,4.8186,4.7809,4.7401,4.6914,4.6657,4.615,4.6301,4.6301,4.6301,4.6301,4.6451,4.6954,4.7506,4.8058,4.8586,4.9163,4.959,4.959,4.959,4.959,4.959,4.959,4.9992,5.1122,5.1272,5.1699,5.2804,5.2929,5.2929,5.2929,5.2929,5.2929,5.2929,5.2929,5.2929,5.2929,5.2929,5.2929,5.2929,5.2929,5.2929,5.2929,5.2929,5.2929,5.2929,5.2929,5.2929,5.2929,5.2929,5.2929,5.2929,5.2929,0.0,0.0,5.2929,5.2929,5.2929,5.2929,5.2929,5.2929,5.2929,5.2929,5.2929,5.2929,5.2929,5.2929,5.2929,5.2929,5.2929,5.2929,5.2929,5.2998,5.3341,5.341,5.3614,5.4174,5.4106,5.3929,5.3929,5.4712,5.5551,5.5881,5.6471,5.6796,5.6444,5.6144,5.5908,5.5908,5.6471,5.7157,5.7797,5.7492,5.6699,5.5391,5.4101,5.313,5.2421,5.1283,5.0652,5.1057,5.0994,5.1183,5.1471,5.1183,5.1183,5.1471,5.1183,5.0968,5.0979,5.0462,5.0152,5.0111,4.9593,4.9308,4.9256,4.8377,4.794,4.625,4.6301,4.6301,4.6301,4.6301,4.6451,4.7004,4.7531,4.8083,4.8661,4.9213,4.959,4.959,4.959,4.959,4.959,4.959,4.9992,5.1122,5.1272,5.1699,5.2804,5.2929,5.2929,5.2929,5.2929,5.2929,5.2929,5.2929,5.2929,5.2929,5.2929,5.2929,5.2929,5.2929,5.2929,5.2929,5.2929,5.2929,5.2929,5.2929,5.2929,5.2929,5.2929,5.2929,5.2929,5.2929,0.0,0.0,5.2929,5.2929,5.2929,5.2929,5.2929,5.2929,5.2929,5.2929,5.2929,5.2929,5.2929,5.2929,5.2929,5.3067,5.3273,5.3273,5.3273,5.341,5.3929,5.4241,5.4511,5.502,5.5046,5.5046,5.5485,5.6078,5.6704,5.7478,5.7988,5.8333,5.8179,5.7542,5.7055,5.7285,5.7542,5.7988,5.8899,5.889,5.8295,5.6982,5.573,5.4623,5.3827,5.2562,5.2032,5.2553,5.2404,5.2465,5.2773,5.2623,5.2623,5.2773,5.2439,5.2404,5.2615,5.2006,5.1811,5.2044,5.1469,5.0936,5.0592,4.9816,4.9471,4.6301,4.6301,4.6301,4.6301,4.6301,4.6502,4.7205,4.7631,4.8134,4.8862,4.9314,4.959,4.959,4.959,4.959,4.959,4.959,4.9941,5.0896,5.1172,5.1624,5.2578,5.2829,5.2929,5.2929,5.2929,5.2929,5.2929,5.2929,5.2929,5.2929,5.2929,5.2929,5.2929,5.2929,5.2929,5.2929,5.2929,5.2929,5.2929,5.2929,5.2929,5.2929,5.2929,5.2929,5.2929,5.2929,0.0,0.0,5.2929,5.2929,5.2929,5.2929,5.2929,5.2929,5.2929,5.2929,5.2929,5.2929,5.2929,5.2929,5.3067,5.3341,5.3751,5.3997,5.4064,5.4132,5.4887,5.5657,5.6221,5.6313,5.6509,5.6704,5.6963,5.7414,5.7988,5.8871,5.9335,5.9645,5.9678,5.9058,5.8557,5.8808,5.8905,5.9279,6.0047,6.0259,5.9826,5.8651,5.7467,5.6419,5.5569,5.4488,5.3899,5.3987,5.3806,5.3806,5.4134,5.4079,5.4052,5.4134,5.3899,5.3839,5.3987,5.3565,5.3528,5.3862,5.3303,5.2847,5.2584,5.1745,5.1261,4.6301,4.6301,4.6301,4.6301,4.6301,4.6577,4.7657,4.7908,4.8234,4.9364,4.959,4.959,4.959,4.959,4.959,4.959,4.959,4.9791,5.0343,5.0921,5.1498,5.2051,5.2603,5.2929,5.2929,5.2929,5.2929,5.2929,5.2929,0.0,5.2929,5.2929,5.2929,5.2929,5.2929,5.2929,5.2929,5.2929,5.2929,5.2929,5.2929,5.2929,5.2929,5.2929,5.2929,0.0,0.0,0.0,0.0,5.2929,5.2929,5.2929,5.2929,5.2929,5.2929,5.2929,5.2929,5.2929,5.2929,5.2929,5.2998,5.3341,5.3725,5.4174,5.5246,5.5286,5.522,5.6248,5.777,5.8933,5.8214,5.8557,5.8933,5.8214,5.862,5.9335,5.9953,6.0409,6.0742,6.1046,6.0805,6.0563,6.0563,6.0865,6.1166,6.1524,6.1613,6.1231,6.0294,5.9274,5.8464,5.783,5.7139,5.6308,5.5088,5.497,5.5116,5.5437,5.544,5.544,5.5496,5.544,5.5236,5.497,5.497,5.5147,5.5383,5.5119,5.5119,5.5297,5.4127,5.3284,4.6301,4.6301,4.6301,4.6301,4.6301,4.6577,4.7657,4.7908,4.8234,4.9364,4.959,4.959,4.959,4.959,4.959,4.959,4.959,4.9791,5.0343,5.0921,5.1498,5.2051,5.2578,5.2929,5.2929,5.2929,5.2929,5.2929,5.2929,5.2929,5.2929,5.2929,5.2929,5.2929,5.2929,5.2929,5.2929,5.2929,5.2929,5.2929,5.2929,5.2929,5.2929,5.2929,5.2929,0.0,0.0,0.0,0.0,5.2929,5.2929,5.2929,5.2929,5.3067,5.3341,5.3341,5.3589,5.3971,5.3971,5.3971,5.4039,5.4443,5.4779,5.5313,5.6313,5.6379,5.6444,5.8151,5.9369,6.0137,6.0169,6.0108,6.0137,6.0169,6.0352,6.0684,6.1315,6.1554,6.1761,6.2057,6.1673,6.1375,6.1613,6.1554,6.1613,6.2175,6.2116,6.1733,6.1202,6.0121,5.9189,5.8832,5.7963,5.7247,5.6594,5.6537,5.6623,5.6737,5.6908,5.6964,5.6737,5.6708,5.6651,5.6537,5.6366,5.648,5.7078,5.6737,5.648,5.6337,5.5965,5.5481,4.6301,4.6301,4.6301,4.6301,4.6301,4.6577,4.7657,4.7908,4.8234,4.9364,4.959,4.959,4.959,4.959,4.959,4.959,4.959,4.9715,5.0067,5.0795,5.1548,5.2327,5.2729,5.2929,5.2929,5.2929,5.2929,5.2929,5.2929,5.2929,5.2929,5.2929,5.2929,5.2929,5.2929,5.2929,5.2929,5.2929,5.2929,5.2929,5.2929,5.2929,5.2929,5.2929,5.2929,0.0,0.0,0.0,0.0,5.2929,5.2929,5.2929,5.3067,5.3341,5.3725,5.3997,5.4443,5.4953,5.5087,5.5087,5.5153,5.5459,5.6183,5.7092,5.8088,5.8277,5.8404,5.9924,6.0865,6.1375,6.1465,6.1434,6.1375,6.1465,6.1465,6.1613,6.2175,6.2292,6.2351,6.2731,6.2468,6.2204,6.2468,6.2292,6.2292,6.2731,6.2585,6.2378,6.2193,6.1017,6.0137,5.9948,5.8922,5.8225,5.7974,5.7751,5.764,5.764,5.7948,5.8003,5.764,5.7751,5.7751,5.764,5.7416,5.7584,5.8114,5.7948,5.764,5.733,5.733,5.7127,0.0,4.6301,4.6301,4.6301,4.6301,4.6577,4.7657,4.7908,0.0,4.9364,4.959,4.959,4.959,4.959,4.959,4.959,4.959,4.9615,4.964,5.0619,5.1724,5.2804,5.2929,5.2929,5.2929,5.2929,5.2929,5.2929,5.2929,5.2929,5.2929,5.2929,5.2929,5.2929,5.2929,5.2929,5.2929,5.2929,5.2929,5.2929,5.2929,5.2929,5.2929,5.2929,5.2929,0.0,0.0,0.0,0.0,5.2929,5.2929,5.2998,5.341,5.3793,5.4174,5.4887,5.5419,5.5881,5.6209,5.6313,5.6405,5.6704,5.7897,5.9369,6.0381,6.0713,6.0805,6.1494,6.2116,6.2556,6.2234,6.241,6.2556,6.2234,6.2175,6.2234,6.2556,6.2615,6.2731,6.3021,6.3079,6.3079,6.3079,6.3079,6.3079,6.3079,6.3079,6.3079,6.3079,6.1972,6.1164,6.1134,5.9937,5.9159,5.9099,5.8609,5.825,5.825,5.8555,5.8609,5.825,5.8555,5.8555,5.825,5.825,5.8445,5.8748,5.8748,5.8555,5.825,5.825,5.825,4.6301,0.0,4.6301,4.6301,4.6301,4.6577,0.0,4.7908,4.8234,4.9364,4.959,4.959,4.959,4.959,4.959,4.959,4.959,4.9741,5.0167,5.1197,5.2176,5.2854,5.2929,5.2929,5.2929,5.2929,5.2929,5.2929,5.2929,5.2929,5.2929,5.2929,5.2929,5.2929,5.2929,5.2929,5.2929,5.2929,5.2929,5.2929,5.2929,5.2929,5.2929,5.2929,5.2929,0.0,0.0,0.0,5.2929,5.2929,5.3067,5.341,5.3725,5.4443,5.5286,5.5986,5.6963,5.7897,5.8277,5.8404,5.8431,5.8585,5.9335,6.0381,6.1106,6.1554,6.1791,6.2234,6.2673,6.2963,6.2905,6.2905,6.2963,6.2905,6.2847,6.2905,6.2963,6.2963,6.3021,6.3079,6.3079,6.3079,6.3079,6.3079,6.3079,6.3079,6.3079,6.3079,6.3079,6.2361,6.1672,6.1164,6.0356,5.9668,5.9129,5.8991,5.8882,5.8882,5.8936,5.8991,5.8882,5.8936,5.8991,5.8882,5.8882,5.8936,5.8991,5.8991,5.8936,5.8882,5.8882,5.8882,4.6301,4.6301,4.6301,4.6301,4.6301,4.6527,4.7355,4.7732,4.8159,4.9038,4.9414,4.959,4.959,4.959,4.959,4.959,4.959,4.9866,5.0695,5.1574,5.2302,5.2854,5.2929,5.2929,5.2929,5.2929,5.2929,5.2929,5.2929,5.2929,5.2929,5.2929,5.2929,5.2929,5.2929,5.2929,5.2929,5.2929,5.2929,5.2929,5.3067,5.3204,5.3204,5.3316,5.3341,0.0,0.0,0.0,5.2929,5.2929,5.3136,5.3546,5.4174,5.5087,5.6209,5.735,5.8431,5.9397,5.9863,6.0047,6.0047,6.0259,6.0745,6.1375,6.191,6.2292,6.2585,6.2789,6.2963,6.3079,6.3079,6.3079,6.3079,6.3079,6.3079,6.3079,6.3079,6.3079,6.3079,6.3079,6.3079,6.3079,6.3079,6.3079,6.3079,6.3079,6.3079,6.3079,6.3079,6.251,6.1852,6.1194,6.0505,5.9817,5.9159,5.9099,5.9099,5.9099,5.9099,5.9099,5.9099,5.9099,5.9099,5.9099,5.9099,5.9099,5.9099,5.9099,5.9099,5.9099,5.9099,5.9099,4.6301,4.6301,4.6301,4.6301,4.6301,4.6451,4.7004,4.7531,4.8083,4.8661,4.9213,4.959,4.959,4.959,4.959,4.959,4.9741,5.0193,5.1147,5.1825,5.2402,5.2879,5.2929,5.2929,5.2929,5.2929,5.2929,5.2929,5.2929,5.2929,5.2929,5.2929,5.2929,5.2929,5.2929,5.2929,5.2929,5.2929,5.2929,5.2998,5.341,5.3614,5.3682,5.3997,5.3997,5.3725,0.0,0.0,5.3247,5.3247,5.3452,5.3997,5.4953,5.5986,5.7157,5.8746,5.983,6.0592,6.1106,6.1346,6.1346,6.1613,6.191,6.2234,6.2498,6.2847,6.3079,6.3079,6.3079,6.3079,6.3079,6.3079,6.3079,6.3079,6.3079,6.3079,6.3079,6.3079,6.3079,6.3079,6.3079,6.3079,6.3079,6.3079,6.3079,6.3079,6.3079,6.3079,6.3079,6.26,6.2002,6.1343,6.0655,5.9967,5.9308,5.9159,5.9099,5.9099,5.9099,5.9099,5.9099,5.9099,5.9099,5.9099,5.9099,5.9099,5.9099,5.9099,5.9099,5.9099,5.9099,5.9099,4.6301,4.6301,4.6301,4.6301,4.6301,4.6451,4.7004,4.7531,4.8083,4.8661,4.9213,4.959,4.959,4.959,4.959,4.959,5.0393,5.1071,5.1247,5.2151,5.2829,5.2929,5.2929,5.2929,5.2929,5.2929,5.2929,5.2929,5.2929,5.2929,5.2929,5.2929,5.2929,5.2929,5.2929,5.2929,5.2929,5.2929,5.3067,5.341,5.3725,5.4064,5.4376,5.4686,5.482,5.4753,0.0,5.4753,5.4686,5.4686,5.5113,5.5776,5.6509,5.7578,5.8871,5.9953,6.1015,6.188,6.2234,6.2351,6.2292,6.2116,6.2234,6.2556,6.2556,6.2847,6.3079,6.3079,6.3079,6.3079,6.3079,6.3079,6.3079,6.3079,6.3079,6.3079,6.3079,6.3079,6.3079,6.3079,6.3079,6.3079,6.3079,6.3079,6.3079,6.3079,6.3079,6.3079,6.3079,6.2989,6.266,6.2002,6.1343,6.0685,5.9997,5.9428,5.9099,5.9099,5.9099,5.9099,5.9099,5.9099,5.9099,5.9099,5.9099,5.9099,5.9099,5.9099,5.9099,5.9099,5.9099,5.9099,4.6301,4.6301,4.6301,4.6301,4.6301,4.6376,4.6627,4.7104,4.7631,4.8184,4.8761,4.9238,4.954,4.959,4.959,4.959,5.0544,5.1272,5.1272,5.2226,5.2929,5.2929,5.2929,5.2929,5.2929,5.2929,5.2929,5.2929,5.2929,5.2929,5.2929,5.2929,5.2929,5.2929,5.2929,5.2998,5.3204,5.3384,5.3589,5.3793,5.4511,5.5153,5.5657,5.6183,5.6313,5.6117,0.0,5.592,5.5591,5.5591,5.6013,5.6731,5.7414,5.8467,5.9801,6.1195,6.2116,6.2643,6.2847,6.2847,6.2847,6.2731,6.2701,6.2847,6.2847,6.2963,6.3079,6.3079,6.3079,6.3079,6.3079,6.3079,6.3079,6.3079,6.3079,6.3079,6.3079,6.3079,6.3079,6.3079,6.3079,6.3079,6.3079,6.3079,6.3079,6.3079,6.3079,6.3079,6.3079,6.3079,6.281,6.2181,6.1822,6.1224,6.0176,5.9817,5.9488,5.9129,5.9099,5.9099,5.9099,5.9099,5.9099,5.9099,5.9099,5.9099,5.9099,5.9099,5.9099,5.9099,5.9099,5.9099,4.6421,4.6446,4.6361,4.6301,4.6301,4.6301,4.6301,4.6728,4.7255,4.7631,4.8284,4.8912,4.9314,4.9515,4.964,4.9766,5.0619,5.1322,5.1448,5.2302,5.2929,5.2929,5.2929,5.2929,5.2929,5.2929,5.2929,5.2929,5.2929,5.2929,5.2929,5.2929,5.2929,5.3067,5.3067,5.3273,5.3725,5.42,5.4376,5.4376,5.5419,5.6313,5.7092,5.777,5.7961,5.777,5.777,5.7542,5.7028,5.7028,5.7414,5.7961,5.8592,5.9555,6.0865,6.2234,6.2905,6.3079,6.3079,6.3079,6.3079,6.3079,6.3079,6.3079,6.3079,6.3079,6.3079,6.3079,6.3079,6.3079,6.3079,6.3079,6.3079,6.3079,6.3079,6.3079,6.3079,6.3079,6.3079,6.3079,6.3079,6.3079,6.3079,6.3079,6.3079,6.3079,6.3079,6.3079,6.3079,6.3079,6.2869,6.2391,6.2181,6.1553,6.0206,6.0086,5.9787,5.9129,5.9099,5.9099,5.9099,5.9099,5.9099,5.9099,5.9099,5.9099,5.9099,5.9099,5.9099,5.9099,5.9099,5.9099,4.684,4.6746,4.6686,4.6386,4.6301,4.6301,4.6301,4.6728,4.7093,4.7118,4.8033,4.8786,4.8812,4.9238,4.9766,5.0268,5.087,5.1448,5.1975,5.2553,5.2929,5.2929,5.2929,5.2929,5.2929,5.2929,5.2929,5.2929,5.2929,5.2929,5.2929,5.2929,5.3067,5.3478,5.3478,5.3793,5.4443,5.5087,5.5485,5.5512,5.6509,5.7542,5.8467,5.9183,5.9617,5.9863,5.9863,5.9863,5.9801,5.9801,6.0014,6.0381,6.0716,6.1524,6.2498,6.2905,6.3079,6.3079,6.3079,6.3079,6.3079,6.3079,6.3079,6.3079,6.3079,6.3079,6.3079,6.3079,6.3079,6.3079,6.3079,6.3079,6.3079,6.3079,6.3079,6.3079,6.3079,6.3079,6.3079,6.3079,6.3079,6.3079,6.3079,6.3079,6.3079,6.3079,6.3079,6.3079,6.3079,6.3079,6.3049,6.3019,6.245,6.1553,6.0206,6.0086,5.9787,5.9129,5.9099,5.9099,5.9099,5.9099,5.9099,5.9099,5.9099,5.9099,5.9099,5.9099,5.9099,5.9099,5.9099,5.9099,4.7112,4.7053,4.6993,4.6661,4.6721,4.6815,4.6661,4.6873,4.7281,4.7637,4.835,4.9025,4.9546,4.9785,5.0049,5.0318,5.0896,5.1473,5.2026,5.2578,5.2929,5.2929,5.2929,5.2929,5.2929,5.2929,5.2929,5.2929,5.2929,5.2929,5.2929,5.3136,5.341,5.3793,5.4241,5.4887,5.5789,5.6509,5.7285,5.8088,5.8277,5.8871,5.9863,6.0563,6.0926,6.1046,6.1046,6.0926,6.0745,6.0745,6.0926,6.1315,6.1791,6.2292,6.2615,6.2963,6.3079,6.3079,6.3079,6.3079,6.3079,6.3079,6.3079,6.3079,6.3079,6.3079,6.3079,6.3079,6.3079,6.3079,6.3079,6.3079,6.3079,6.3079,6.3079,6.3079,6.3079,6.3079,6.3079,6.3079,6.3079,6.3079,6.3079,6.3079,6.3079,6.3079,6.3079,6.3079,6.3079,6.3079,6.3079,6.3079,6.248,6.1882,6.1373,6.0565,5.9967,5.9727,5.9338,5.9099,5.9099,5.9099,5.9099,5.9099,5.9099,5.9099,5.9099,5.9099,5.9099,5.9099,5.9099,5.9099,4.7677,4.756,4.7468,4.7138,4.7231,4.7324,4.7257,4.7231,4.7359,4.7974,4.8727,4.9548,5.0244,5.0576,5.0754,5.0988,5.1437,5.1926,5.2616,5.2883,5.3136,5.3247,5.3247,5.3247,5.3247,5.3247,5.3247,5.3247,5.3316,5.3384,0.0,5.3793,5.42,5.4645,5.522,5.6052,5.7221,5.7897,5.8843,6.0047,6.0047,6.0442,6.1075,6.1673,6.1969,6.2087,6.2087,6.1969,6.1703,6.1703,6.185,6.2087,6.2615,6.2731,6.2789,6.3021,6.3079,6.3079,6.3079,6.3079,6.3079,6.3079,6.3079,6.3079,6.3079,6.3079,6.3079,6.3079,6.3079,6.3079,6.3079,6.3079,6.3079,6.3079,6.3079,6.3079,6.3079,6.3079,6.3079,6.3079,6.3079,6.3079,6.3079,6.3079,6.3079,6.3079,6.3079,6.3079,6.3079,6.3079,6.3079,6.3079,6.266,6.2331,6.2121,6.1253,6.0535,6.0116,5.9668,5.9308,5.9129,5.9099,5.9099,5.9099,5.9099,5.9099,5.9099,5.9099,5.9099,5.9099,5.9099,5.9099,4.8695,4.8405,4.8114,4.7821,4.7703,4.7821,4.8114,4.7703,4.7385,4.8034,4.9306,5.0509,5.1016,5.1586,5.2091,5.2294,5.2501,5.2928,5.392,5.3725,5.3614,5.3997,5.3997,5.3997,5.3997,5.3997,5.3997,5.3997,5.4309,0.0,0.0,5.482,5.5353,5.6105,5.6471,5.7285,5.862,5.9307,6.0108,6.1106,6.1791,6.2116,6.2116,6.2439,6.2789,6.3079,6.3079,6.3079,6.3079,6.3079,6.3079,6.3079,6.3079,6.3079,6.3079,6.3079,6.3079,6.3079,6.3079,6.3079,6.3079,6.3079,6.3079,6.3079,6.3079,6.3079,6.3079,6.3079,6.3079,6.3079,6.3079,6.3079,6.3079,6.3079,6.3079,6.3079,6.3079,6.3079,6.3079,6.3079,6.3079,6.3079,6.3079,6.3079,6.3079,6.3079,6.3079,6.3079,6.3079,6.3079,6.3079,6.3079,6.3079,6.281,6.2151,6.2091,6.1523,6.0176,6.0086,5.9787,5.9129,5.9099,5.9099,5.9099,5.9099,5.9099,5.9099,5.9099,5.9099,5.9099,5.9099,5.9099,4.927,4.9041,4.8868,4.8957,4.8784,4.8753,4.9014,4.8986,4.9213,5.0691,5.1349,5.1835,5.242,5.2819,5.315,5.3345,5.3596,5.397,5.4608,5.4619,5.4712,5.5113,5.4887,5.482,5.5113,5.4887,5.482,5.5087,5.522,0.0,0.0,5.6183,5.6704,5.7157,5.8179,5.9121,6.0014,6.0684,6.1405,6.2175,6.2351,6.2439,6.2498,6.2789,6.3021,6.3079,6.3079,6.3079,6.3079,6.3079,6.3079,6.3079,6.3079,6.3079,6.3079,6.3079,6.3079,6.3079,6.3079,6.3079,6.3079,6.3079,6.3079,6.3079,6.3079,6.3079,6.3079,6.3079,6.3079,6.3079,6.3079,6.3079,6.3079,6.3079,6.3079,6.3079,6.3079,6.3079,6.3079,6.3079,6.3079,6.3079,6.3079,6.3079,6.3079,6.3079,6.3079,6.3079,6.3079,6.3079,6.3079,6.3079,6.3079,6.2989,6.281,6.2361,6.1942,6.1523,6.0595,5.9787,5.9129,5.9099,5.9099,5.9099,5.9099,5.9099,5.9099,5.9099,5.9099,5.9099,5.9099,5.9099,5.0404,5.0066,4.9727,5.0152,4.9926,4.9835,5.0751,5.0671,5.0859,5.2479,5.2978,5.325,5.3784,5.4399,5.4832,5.4808,5.5114,5.5587,5.6129,5.5986,5.6052,5.6509,5.6379,5.6313,5.6574,5.6379,5.6287,5.6574,5.6834,0.0,0.0,5.7897,5.8467,5.8808,5.9678,6.0502,6.1195,6.1732,6.2292,6.2789,6.2789,6.2789,6.2789,6.3021,6.3079,6.3079,6.3079,6.3079,6.3079,6.3079,6.3079,6.3079,6.3079,6.3079,6.3079,6.3079,6.3079,6.3079,6.3079,6.3079,6.3079,6.3079,6.3079,6.3079,6.3079,6.3079,6.3079,6.3079,6.3079,6.3079,6.3079,6.3079,6.3079,6.3079,6.3079,6.3079,6.3079,6.3079,6.3079,6.3079,6.3079,6.3079,6.3079,6.3079,6.3079,6.3079,6.3079,6.3079,6.3079,6.3079,6.3079,6.3079,6.3079,6.3079,6.3079,6.272,6.2361,6.2121,6.1343,6.0475,5.9548,5.9249,5.9099,5.9099,5.9099,5.9099,5.9099,5.9099,5.9099,5.9099,5.9099,5.9099,5.1732,5.1238,5.0712,5.1293,5.1128,5.1237,5.2994,5.2787,5.2544,5.3671,5.4315,5.4734,5.5088,5.6153,5.6842,5.6537,5.7001,5.7606,5.8214,5.777,5.7606,5.8214,5.8277,5.8277,5.8277,5.8277,5.8277,5.834,0.0,0.0,0.0,5.9863,6.0381,6.0684,6.1046,6.1524,6.2116,6.2498,6.2789,6.3079,6.3079,6.3079,6.3079,6.3079,6.3079,6.3079,6.3079,6.3079,6.3079,6.3079,6.3079,6.3079,6.3079,6.3079,6.3079,6.3079,6.3079,6.3079,6.3079,6.3079,6.3079,6.3079,6.3079,6.3079,6.3079,6.3079,6.3079,6.3079,6.3079,6.3079,6.3079,6.3079,6.3079,6.3079,6.3079,6.3079,6.3079,6.3079,6.3079,6.3079,6.3079,6.3079,6.3079,6.3079,6.3079,6.3079,6.3079,6.3079,6.3079,6.3079,6.3079,6.3079,6.3079,6.3079,6.3079,6.3079,6.281,6.2211,6.2121,6.1553,6.0326,5.9578,5.9159,5.9099,5.9099,5.9099,5.9099,5.9099,5.9099,5.9099,5.9099,5.9099,5.2059,5.1841,5.1732,5.2516,5.3156,5.3783,5.4448,5.5047,5.5423,5.5477,5.5586,5.5845,5.6394,5.7306,5.8013,5.8163,5.8916,5.9493,5.9617,5.9555,5.9617,6.0014,5.9801,5.974,6.0075,5.9801,5.9801,6.0075,0.0,0.0,6.0655,6.1046,6.1286,6.1346,6.1998,6.2351,6.2498,6.2847,6.3021,0.0,6.3079,6.3079,6.3079,6.3079,6.3079,6.3079,6.3079,6.3079,6.3079,6.3079,6.3079,6.3079,6.3079,6.3079,6.3079,6.3079,6.3079,6.3079,6.3079,6.3079,6.3079,6.3079,6.3079,6.3079,6.3079,6.3079,6.3079,6.3079,6.3079,6.3079,6.3079,6.3079,6.3079,6.3079,6.3079,6.3079,6.3079,6.3079,6.3079,6.3079,6.3079,6.3079,6.3079,6.3079,6.3079,6.3079,6.3079,6.3079,6.3079,6.3079,6.3079,6.3079,6.3079,6.3079,6.3079,6.3079,6.3019,6.2869,6.2391,6.1972,6.1672,6.0505,5.9638,5.9129,5.9099,5.9099,5.9099,5.9099,5.9099,5.9099,5.9099,5.9099,5.3102,5.2919,5.2759,5.3343,5.441,5.544,5.56,5.6472,5.7231,5.7076,5.6936,5.6993,5.7445,5.8435,5.9277,5.9393,6.0205,6.0865,6.1046,6.0926,6.0926,6.1315,6.1195,6.1135,6.1315,6.1195,6.1106,0.0,0.0,6.1613,6.1791,6.2145,6.2321,6.2321,6.2643,6.2847,6.2847,6.3021,6.3079,6.3079,6.3079,6.3079,6.3079,6.3079,6.3079,6.3079,6.3079,6.3079,6.3079,6.3079,6.3079,6.3079,6.3079,6.3079,6.3079,6.3079,6.3079,6.3079,6.3079,6.3079,6.3079,6.3079,6.3079,6.3079,6.3079,6.3079,6.3079,6.3079,6.3079,6.3079,6.3079,6.3079,6.3079,6.3079,6.3079,6.3079,6.3079,6.3079,6.3079,6.3079,6.3079,6.3079,6.3079,6.3079,6.3079,6.3079,6.3079,6.3079,6.3079,6.3079,6.3079,6.3079,6.3079,6.3079,6.3079,6.3079,6.3079,6.3079,6.275,6.2421,6.2121,6.1433,6.0595,5.9608,5.9249,5.9099,5.9099,5.9099,5.9099,5.9099,5.9099,5.9099,5.4252,5.4023,5.3792,5.4023,5.5165,5.6291,5.6409,5.7355,5.8242,5.836,5.8114,5.7948,5.8225,5.9342,6.0284,6.0371,6.1203,6.1969,6.2234,6.2028,6.1969,6.2234,6.2292,6.2292,6.2292,6.2292,6.2292,0.0,0.0,6.2673,6.2673,6.2963,6.3079,6.3079,6.3079,6.3079,6.3079,6.3079,6.3079,6.3079,6.3079,6.3079,6.3079,6.3079,6.3079,6.3079,6.3079,6.3079,6.3079,6.3079,6.3079,6.3079,6.3079,6.3079,6.3079,6.3079,6.3079,6.3079,6.3079,6.3079,6.3079,6.3079,6.3079,6.3079,6.3079,6.3079,6.3079,6.3079,6.3079,6.3079,6.3079,6.3079,6.3079,6.3079,6.3079,6.3079,6.3079,6.3079,6.3079,6.3079,6.3079,6.3079,6.3079,6.3079,6.3079,6.3079,6.3079,6.3079,6.3079,6.3079,6.3079,6.3079,6.3079,6.3079,6.3079,6.3079,6.3079,6.3079,6.3079,6.2839,6.2301,6.2151,6.1583,6.0446,5.9668,5.9219,5.9099,5.9099,5.9099,5.9099,5.9099,5.9099,5.4304,5.4436,5.4649,5.4671,5.544,5.6332,5.687,5.7587,5.8304,5.8871,5.8555,5.828,5.8555,5.9678,6.0624,6.0936,6.204,6.2905,6.2963,6.2963,6.2905,6.2963,6.2963,6.2963,6.2963,6.2963,6.2963,0.0,6.3021,6.3021,6.3021,6.3079,6.3079,6.3079,6.3079,6.3079,6.3079,6.3079,6.3079,6.3079,6.3079,6.3079,6.3079,6.3079,6.3079,6.3079,6.3079,6.3079,6.3079,6.3079,6.3079,6.3079,6.3079,6.3079,6.3079,6.3079,6.3079,6.3079,6.3079,6.3079,6.3079,6.3079,6.3079,6.3079,6.3079,6.3079,6.3079,6.3079,6.3079,6.3079,6.3079,6.3079,6.3079,6.3079,6.3079,6.3079,6.3079,6.3079,6.3079,6.3079,6.3079,6.3079,6.3079,6.3079,6.3079,6.3079,6.3079,6.3079,6.3079,6.3079,6.3079,6.3079,6.3079,6.3079,6.3079,6.3079,6.3079,6.3079,6.3079,6.3049,6.2959,6.2391,6.2002,6.1822,6.0595,5.9668,5.9099,5.9099,5.9099,5.9099,5.9099,5.9099,5.4794,5.4926,5.5027,5.5027,5.5637,5.6346,5.6944,5.7633,5.8321,5.8979,5.8882,5.8773,5.8882,5.9657,6.0488,6.0988,6.1912,6.266,6.3019,6.3079,6.3079,6.3079,6.3079,6.3079,6.3079,6.3079,0.0,0.0,6.3079,6.3079,6.3079,6.3079,6.3079,6.3079,6.3079,6.3079,6.3079,6.3079,6.3079,6.3079,6.3079,6.3079,6.3079,6.3079,6.3079,6.3079,6.3079,6.3079,6.3079,6.3079,6.3079,6.3079,6.3079,6.3079,6.3079,6.3079,6.3079,6.3079,6.3079,6.3079,6.3079,6.3079,6.3079,6.3079,6.3079,6.3079,6.3079,6.3079,6.3079,6.3079,6.3079,6.3079,6.3079,6.3079,6.3079,6.3079,6.3079,6.3079,6.3079,6.3079,6.3079,6.3079,6.3079,6.3079,6.3079,6.3079,6.3079,6.3079,6.3079,6.3079,6.3079,6.3079,6.3079,6.3079,6.3079,6.3079,6.3079,6.3079,6.3079,6.3079,6.3079,6.281,6.248,6.2121,6.0775,5.9937,5.9668,5.9279,5.9099,5.9099,5.9099,5.9099,5.5179,5.5179,5.5179,5.5179,5.5568,5.6137,5.6915,5.7483,5.8112,5.8949,5.9099,5.9099,5.9099,5.9638,6.0326,6.1014,6.1672,6.2331,6.2989,6.3079,6.3079,6.3079,6.3079,6.3079,6.3079,6.3079,0.0,0.0,6.3079,6.3079,6.3079,6.3079,6.3079,6.3079,6.3079,6.3079,6.3079,6.3079,6.3079,6.3079,6.3079,6.3079,6.3079,6.3079,6.3079,6.3079,6.3079,6.3079,6.3079,6.3079,6.3079,6.3079,6.3079,6.3079,6.3079,6.3079,6.3079,6.3079,6.3079,6.3079,6.3079,6.3079,6.3079,6.3079,6.3079,6.3079,6.3079,6.3079,6.3079,6.3079,6.3079,6.3079,6.3079,6.3079,6.3079,6.3079,6.3079,6.3079,6.3079,6.3079,6.3079,6.3079,6.3079,6.3079,6.3079,6.3079,6.3079,6.3079,6.3079,6.3079,6.3079,6.3079,6.3079,6.3079,6.3079,6.3079,6.3079,6.3079,6.3079,6.3079,6.3079,6.3079,6.2839,6.2361,6.1194,6.0416,6.0086,5.9608,5.9279,5.9099,5.9099,5.9099,5.5179,5.5179,5.5179,5.5179,5.5209,5.5568,5.6825,5.7124,5.7513,5.883,5.9099,5.9099,5.9099,5.9638,6.0326,6.1014,6.1672,6.2331,6.2989,6.3079,6.3079,6.3079,6.3079,6.3079,6.3079,6.3079,0.0,0.0,6.3079,6.3079,6.3079,6.3079,6.3079,6.3079,6.3079,6.3079,6.3079,6.3079,6.3079,6.3079,6.3079,6.3079,6.3079,6.3079,6.3079,6.3079,6.3079,6.3079,6.3079,6.3079,6.3079,6.3079,6.3079,6.3079,6.3079,6.3079,6.3079,6.3079,6.3079,6.3079,6.3079,6.3079,6.3079,6.3079,6.3079,6.3079,6.3079,6.3079,6.3079,6.3079,6.3079,6.3079,6.3079,6.3079,6.3079,6.3079,6.3079,6.3079,6.3079,6.3079,6.3079,6.3079,6.3079,6.3079,6.3079,6.3079,6.3079,6.3079,6.3079,6.3079,6.3079,6.3079,6.3079,6.3079,6.3079,6.3079,6.3079,6.3079,6.3079,6.3079,6.3079,6.3079,6.3049,6.3019,6.2361,6.1373,6.0086,6.0057,5.9727,5.9099,5.9099,5.9099,5.5179,5.5179,5.5179,5.5179,5.5179,5.5418,5.6286,5.6795,5.7363,5.8291,5.88,5.9099,5.9099,5.9308,5.9668,6.0356,6.1014,6.1702,6.2361,6.281,6.3079,6.3079,6.3079,6.3079,6.3079,6.3079,0.0,0.0,0.0,6.3079,6.3079,6.3079,6.3079,6.3079,6.3079,6.3079,6.3079,6.3079,6.3079,6.3079,6.3079,6.3079,6.3079,6.3079,6.3079,6.3079,6.3079,6.3079,6.3079,6.3079,6.3079,6.3079,6.3079,6.3079,6.3079,6.3079,6.3079,6.3079,6.3079,6.3079,6.3079,6.3079,6.3079,6.3079,6.3079,6.3079,6.3079,6.3079,6.3079,6.3079,6.3079,6.3079,6.3079,6.3079,6.3079,6.3079,6.3079,6.3079,6.3079,6.3079,6.3079,6.3079,6.3079,6.3079,6.3079,6.3079,6.3079,6.3079,6.3079,6.3079,6.3079,6.3079,6.3079,6.3079,6.3079,6.3079,6.3079,6.3079,6.3079,6.3079,6.3079,6.3079,6.3079,6.3079,6.2839,6.2271,6.1373,6.0954,6.0386,5.9727,5.9727,5.9518,5.5538,5.5359,5.5179,5.5179,5.5179,5.5359,5.6017,5.6645,5.7304,5.7992,5.865,5.9099,5.9099,5.9099,5.9308,5.9967,6.0475,6.1074,6.1972,6.248,6.2839,6.3049,6.3079,6.3079,6.3079,0.0,0.0,0.0,0.0,0.0,6.3079,6.3079,6.3079,6.3079,6.3079,6.3079,6.3079,6.3079,6.3079,6.3079,6.3079,6.3079,6.3079,6.3079,6.3079,6.3079,6.3079,6.3079,6.3079,6.3079,6.3079,6.3079,6.3079,6.3079,6.3079,6.3079,6.3079,6.3079,6.3079,6.3079,6.3079,6.3079,6.3079,6.3079,6.3079,6.3079,6.3079,6.3079,6.3079,6.3079,6.3079,6.3079,6.3079,6.3079,6.3079,6.3079,6.3079,6.3079,6.3079,6.3079,6.3079,6.3079,6.3079,6.3079,6.3079,6.3079,6.3079,6.3079,6.3079,6.3079,6.3079,6.3079,6.3079,6.3079,6.3079,6.3079,6.3079,6.3079,6.3079,6.3079,6.3079,6.3079,6.3079,6.3079,6.3079,6.2869,6.2421,6.1762,6.1104,6.0416,6.0176,5.9727,0.0,0.0,0.0,5.5179,5.5179,5.5359,5.5987,5.6645,5.7274,5.7962,5.862,5.9099,5.9099,5.9099,5.9308,5.9937,6.0086,6.0535,6.1852,6.2061,6.2331,6.2959,6.3079,6.3079,6.3079,0.0,0.0,0.0,6.3079,6.3079,6.3079,6.3079,6.3079,6.3079,6.3079,6.3079,6.3079,6.3079,6.3079,6.3079,6.3079,6.3079,6.3079,6.3079,6.3079,6.3079,6.3079,6.3079,6.3079,6.3079,6.3079,6.3079,6.3079,6.3079,6.3079,6.3079,6.3079,6.3079,6.3079,6.3079,6.3079,6.3079,6.3079,6.3079,6.3079,6.3079,6.3079,6.3079,6.3079,6.3079,6.3079,6.3079,6.3079,6.3079,6.3079,6.3079,6.3079,6.3079,6.3079,6.3079,6.3079,6.3079,6.3079,6.3079,6.3079,6.3079,6.3079,6.3079,6.3079,6.3079,6.3079,6.3079,6.3079,6.3079,6.3079,6.3079,6.3079,6.3079,6.3079,6.3079,6.3079,6.3079,6.3079,6.3079,6.3079,6.3079,6.3079,6.245,6.1792,6.1134,6.0446,5.9757,5.6286,0.0,0.0,0.0,0.0,0.0,5.5418,5.6316,5.7154,5.7334,5.8291,5.9099,5.9099,5.9099,5.9159,5.9338,5.9787,6.0206,6.0595,6.1493,6.2181,6.2331,6.278,6.3079,0.0,0.0,0.0,0.0,6.3079,6.3079,6.3079,6.3079,6.3079,6.3079,6.3079,6.3079,6.3079,6.3079,6.3079,6.3079,6.3079,6.3079,6.3079,6.3079,6.3079,6.3079,6.3079,6.3079,6.3079,6.3079,6.3079,6.3079,6.3079,6.3079,6.3079,6.3079,6.3079,6.3079,6.3079,6.3079,6.3079,6.3079,6.3079,6.3079,6.3079,6.3079,6.3079,6.3079,6.3079,6.3079,6.3079,6.3079,6.3079,6.3079,6.3079,6.3079,6.3079,6.3079,6.3079,6.3079,6.3079,6.3079,6.3079,6.3079,6.3079,6.3079,6.3079,6.3079,6.3079,6.3079,6.3079,6.3079,6.3079,6.3079,6.3079,6.3079,6.3079,6.3079,6.3079,6.3079,6.3079,6.3079,6.3079,6.3079,6.3079,6.3079,6.3079,6.2899,6.248,6.1822,6.1134,6.0475,5.7094,5.6585,5.6128,5.5688,0.0,0.0,5.5538,5.6376,5.7184,5.7453,5.8351,5.9099,5.9099,5.9099,5.9099,5.9099,5.9428,5.9757,6.0057,6.1014,6.1792,6.2061,6.266,6.3079,0.0,6.3079,6.3079,6.3079,6.3079,6.3079,6.3079,6.3079,6.3079,6.3079,6.3079,6.3079,6.3079,6.3079,6.3079,6.3079,6.3079,6.3079,6.3079,6.3079,6.3079,6.3079,6.3079,6.3079,6.3079,6.3079,6.3079,6.3079,6.3079,6.3079,6.3079,6.3079,6.3079,6.3079,6.3079,6.3079,6.3079,6.3079,6.3079,6.3079,6.3079,6.3079,6.3079,6.3079,6.3079,6.3079,6.3079,6.3079,6.3079,6.3079,6.3079,6.3079,6.3079,6.3079,6.3079,6.3079,6.3079,6.3079,6.3079,6.3079,6.3079,6.3079,6.3079,6.3079,6.3079,6.3079,6.3079,6.3079,6.3079,6.3079,6.3079,6.3079,6.3079,6.3079,6.3079,6.3079,6.3079,6.3079,6.3079,6.3079,6.3079,6.3079,6.3079,6.3079,6.275,6.2091,6.1702,6.1164,5.8141,5.7274,5.6376,5.6286,5.5837,0.0,5.6137,5.6765,5.7393,5.7992,5.865,5.9099,5.9099,5.9099,5.9099,5.9099,5.9099,5.9308,5.9907,6.0565,6.1253,6.1912,6.257,6.2989,6.3079,6.3079,6.3079,6.3079,6.3079,6.3079,6.3079,6.3079,6.3079,6.3079,6.3079,6.3079,6.3079,6.3079,6.3079,6.3079,6.3079,6.3079,6.3079,6.3079,6.3079,6.3079,6.3079,6.3079,6.3079,6.3079,6.3079,6.3079,6.3079,6.3079,6.3079,6.3079,6.3079,6.3079,6.3079,6.3079,6.3079,6.3079,6.3079,6.3079,6.3079,6.3079,6.3079,6.3079,6.3079,6.3079,6.3079,6.3079,6.3079,6.3079,6.3079,6.3079,6.3079,6.3079,6.3079,6.3079,6.3079,6.3079,6.3079,6.3079,6.3079,6.3079,6.3079,6.3079,6.3079,6.3079,6.3079,6.3079,6.3079,6.3079,6.3079,6.3079,6.3079,6.3079,6.3079,6.3079,6.3079,6.3079,6.3079,6.3079,6.3079,6.3079,6.3079,6.3079,6.278,6.2211,6.2211,6.1852,5.8261,5.7932,5.7603,5.7064,5.6825,0.0,5.6885,5.7423,5.7962,5.8082,5.865,5.9099,5.9099,5.9099,5.9099,5.9099,5.9099,5.9159,5.9279,5.9877,6.0535,6.1224,6.1882,0.0,6.3019,6.3079,6.3079,6.3079,6.3079,6.3079,6.3079,6.3079,6.3079,6.3079,6.3079,6.3079,6.3079,6.3079,6.3079,6.3079,6.3079,6.3079,6.3079,6.3079,6.3079,6.3079,6.3079,6.3079,6.3079,6.3079,6.3079,6.3079,6.3079,6.3079,6.3079,6.3079,6.3079,6.3079,6.3079,6.3079,6.3079,6.3079,6.3079,6.3079,6.3079,6.3079,6.3079,6.3079,6.3079,6.3079,6.3079,6.3079,6.3079,6.3079,6.3079,6.3079,6.3079,6.3079,6.3079,6.3079,6.3079,6.3079,6.3079,6.3079,6.3079,6.3079,6.3079,6.3079,6.3079,6.3079,6.3079,6.3079,6.3079,6.3079,6.3079,6.3079,6.3079,6.3079,6.3079,6.3079,6.3079,6.3079,6.3079,6.3079,6.3079,6.3079,6.3079,6.3079,6.3019,6.2869,6.2869,6.254,5.871,5.8381,5.8052,5.7693,5.7363,0.0,0.0,5.7872,5.8201,5.853,5.889,5.9099,5.9099,5.9099,5.9099,5.9099,5.9099,5.9099,5.9099,5.9668,6.0206,6.0565,6.1493,0.0,6.254,6.2869,6.3079,6.3079,6.3079,6.3079,6.3079,6.3079,6.3079,6.3079,6.3079,6.3079,6.3079,6.3079,6.3079,6.3079,6.3079,6.3079,6.3079,6.3079,6.3079,6.3079,6.3079,6.3079,6.3079,6.3079,6.3079,6.3079,6.3079,6.3079,6.3079,6.3079,6.3079,6.3079,6.3079,6.3079,6.3079,6.3079,6.3079,6.3079,6.3079,6.3079,6.3079,6.3079,6.3079,6.3079,6.3079,6.3079,6.3079,6.3079,6.3079,6.3079,6.3079,6.3079,6.3079,6.3079,6.3079,6.3079,6.3079,6.3079,6.3079,6.3079,6.3079,6.3079,6.3079,6.3079,6.3079,6.3079,6.3079,6.3079,6.3079,6.3079,6.3079,6.3079,6.3079,6.3079,6.3079,6.3079,6.3079,6.3079,6.3079,6.3079,6.3079,6.3079,6.3079,6.3079,6.3079,6.2899,5.9099,5.871,5.8321,5.8321,5.7902,5.7633,0.0,0.0,0.0,5.9009,5.9099,5.9099,5.9099,5.9099,0.0,5.9099,0.0,0.0,0.0,5.9548,0.0,6.0057,6.1044,0.0,6.2061,6.269,6.3079,6.3079,6.3079,6.3079,6.3079,6.3079,6.3079,6.3079,6.3079,6.3079,6.3079,6.3079,6.3079,6.3079,6.3079,6.3079,6.3079,6.3079,6.3079,6.3079,6.3079,6.3079,6.3079,6.3079,6.3079,6.3079,6.3079,6.3079,6.3079,6.3079,6.3079,6.3079,6.3079,6.3079,6.3079,6.3079,6.3079,6.3079,6.3079,6.3079,6.3079,6.3079,6.3079,6.3079,6.3079,6.3079,6.3079,6.3079,6.3079,6.3079,6.3079,6.3079,6.3079,6.3079,6.3079,6.3079,6.3079,6.3079,6.3079,6.3079,6.3079,6.3079,6.3079,6.3079,6.3079,6.3079,6.3079,6.3079,6.3079,6.3079,6.3079,6.3079,6.3079,6.3079,6.3079,6.3079,6.3079,6.3079,6.3079,6.3079,6.3079,6.3079,6.3079,6.3079,6.3079,6.3079,5.9099,5.9039,5.9009,5.9009,5.8949,5.889,5.8979,0.0,5.9009,5.9099,0.0,5.9099,5.9099,0.0,0.0,0.0,0.0,0.0,5.9099,5.9159,5.9428,6.0027,6.0206,0.0,0.0,6.269,6.3079,6.3079,6.3079,6.3079,6.3079,6.3079,6.3079,6.3079,6.3079,6.3079,6.3079,6.3079,6.3079,6.3079,6.3079,6.3079,6.3079,6.3079,6.3079,6.3079,6.3079,6.3079,6.3079,6.3079,6.3079,6.3079,6.3079,6.3079,6.3079,6.3079,6.3079,6.3079,6.3079,6.3079,6.3079,6.3079,6.3079,6.3079,6.3079,6.3079,6.3079,6.3079,6.3079,6.3079,6.3079,6.3079,6.3079,6.3079,6.3079,6.3079,6.3079,6.3079,6.3079,6.3079,6.3079,6.3079,6.3079,6.3079,6.3079,6.3079,6.3079,6.3079,6.3079,6.3079,6.3079,6.3079,6.3079,6.3079,6.3079,6.3079,6.3079,6.3079,6.3079,6.3079,6.3079,6.3079,6.3079,6.3079,6.3079,6.3079,6.3079,6.3079,6.3079,6.3079,6.3079,6.3079,5.9099,5.9099,5.9099,0.0,0.0,0.0,5.9099,0.0,5.9099,0.0,0.0,0.0,0.0,0.0,0.0,0.0,5.9099,0.0,0.0,0.0,5.9189,0.0,0.0,0.0,0.0,0.0,0.0,0.0,6.3079,6.3079,6.3079,6.3079,6.3079,6.3079,6.3079,6.3079,6.3079,6.3079,6.3079,6.3079,6.3079,6.3079,6.3079,6.3079,6.3079,6.3079,6.3079,6.3079,6.3079,6.3079,6.3079,6.3079,6.3079,6.3079,6.3079,6.3079,6.3079,6.3079,6.3079,6.3079,6.3079,6.3079,6.3079,6.3079,6.3079,6.3079,6.3079,6.3079,6.3079,6.3079,6.3079,6.3079,6.3079,6.3079,6.3079,6.3079,6.3079,6.3079,6.3079,6.3079,6.3079,6.3079,6.3079,6.3079,6.3079,6.3079,6.3079,6.3079,6.3079,6.3079,6.3079,6.3079,6.3079,6.3079,6.3079,6.3079,6.3079,6.3079,6.3079,6.3079,6.3079,6.3079,6.3079,6.3079,6.3079,6.3079,6.3079,6.3079,6.3079,6.3079,6.3079,6.3079,5.9428,0.0,0.0,0.0,0.0,0.0,0.0,0.0,0.0,0.0,0.0,0.0,0.0,0.0,5.9099,5.9099,0.0,5.9099,0.0,5.9099,0.0,0.0,0.0,0.0,0.0,0.0,0.0,0.0,0.0,6.3079,6.3079,6.3079,6.3079,6.3079,6.3079,6.3079,6.3079,6.3079,6.3079,6.3079,6.3079,6.3079,6.3079,6.3079,6.3079,6.3079,6.3079,6.3079,6.3079,6.3079,6.3079,6.3079,6.3079,6.3079,6.3079,6.3079,6.3079,6.3079,6.3079,6.3079,6.3079,6.3079,6.3079,6.3079,6.3079,6.3079,6.3079,6.3079,6.3079,6.3079,6.3079,6.3079,6.3079,6.3079,6.3079,6.3079,6.3079,6.3079,6.3079,6.3079,6.3079,6.3079,6.3079,6.3079,6.3079,6.3079,6.3079,6.3079,6.3079,6.3079,6.3079,6.3079,6.3079,6.3079,6.3079,6.3079,6.3079,6.3079,6.3079,6.3079,6.3079,6.3079,6.3079,6.3079,6.3079,6.3079,6.3079,6.3079,6.3079,6.3079,6.3079,6.3079,0.0,0.0,0.0,5.9249,0.0,0.0,0.0,0.0,5.9099,0.0,0.0,0.0,0.0,5.9099,5.9099,5.9099,5.9099,0.0,0.0,0.0,0.0,0.0,0.0,0.0,0.0,0.0,0.0,0.0,0.0,0.0,6.3079,6.3079,6.3079,6.3079,6.3079,6.3079,6.3079,6.3079,6.3079,6.3079,6.3079,6.3079,6.3079,6.3079,6.3079,6.3079,6.3079,6.3079,6.3079,6.3079,6.3079,6.3079,6.3079,6.3079,6.3079,6.3079,6.3079,6.3079,6.3079,6.3079,6.3079,6.3079,6.3079,6.3079,6.3079,6.3079,6.3079,6.3079,6.3079,6.3079,6.3079,6.3079,6.3079,6.3079,6.3079,6.3079,6.3079,6.3079,6.3079,6.3079,6.3079,6.3079,6.3079,6.3079,6.3079,6.3079,6.3079,6.3079,6.3079,6.3079,6.3079,6.3079,6.3079,6.3079,6.3079,6.3079,6.3079,6.3079,6.3079,6.3079,6.3079,6.3079,6.3079,6.3079,6.3079,6.3079,6.3079,6.3079,6.3079,6.3079,6.3079,6.3079,0.0,0.0,6.0715,6.0475,0.0,0.0,0.0,0.0,0.0,0.0,0.0,0.0,0.0,5.9099,5.9099,5.9099,5.9099,5.9099,0.0,0.0,0.0,0.0,0.0,0.0,0.0,0.0,0.0,0.0,6.2839,0.0,0.0,6.3079,6.3079,6.3079,6.3079,6.3079,6.3079,6.3079,6.3079,6.3079,6.3079,6.3079,6.3079,6.3079,6.3079,6.3079,6.3079,6.3079,6.3079,6.3079,6.3079,6.3079,6.3079,6.3079,6.3079,6.3079,6.3079,6.3079,6.3079,6.3079,6.3079,6.3079,6.3079,6.3079,6.3079,6.3079,6.3079,6.3079,6.3079,6.3079,6.3079,6.3079,6.3079,6.3079,6.3079,6.3079,6.3079,6.3079,6.3079,6.3079,6.3079,6.3079,6.3079,6.3079,6.3079,6.3079,6.3079,6.3079,6.3079,6.3079,6.3079,6.3079,6.3079,6.3079,6.3079,6.3079,6.3079,6.3079,6.3079,6.3079,6.3079,6.3079,6.3079,6.3079,6.3079,6.3079,6.3079,6.3079,6.3079,6.3079,6.3079,6.3079,6.1523,6.1463,0.0,6.1164,6.1104,0.0,6.0565,0.0,0.0,0.0,0.0,0.0,0.0,5.9249,5.9099,5.9099,5.9099,5.9099,0.0,5.9099,0.0,0.0,0.0,5.9368,0.0,0.0,0.0,6.2061,6.272,6.3079,0.0,0.0,6.3079,6.3079,6.3079,6.3079,6.3079,6.3079,6.3079,6.3079,6.3079,6.3079,6.3079,6.3079,6.3079,6.3079,6.3079,6.3079,6.3079,6.3079,6.3079,6.3079,6.3079,6.3079,6.3079,6.3079,6.3079,6.3079,6.3079,6.3079,6.3079,6.3079,6.3079,6.3079,6.3079,6.3079,6.3079,6.3079,6.3079,6.3079,6.3079,6.3079,6.3079,6.3079,6.3079,6.3079,6.3079,6.3079,6.3079,6.3079,6.3079,6.3079,6.3079,6.3079,6.3079,6.3079,6.3079,6.3079,6.3079,6.3079,6.3079,6.3079,6.3079,6.3079,6.3079,6.3079,6.3079,6.3079,6.3079,6.3079,6.3079,6.3079,6.3079,6.3079,6.3079,6.3079,6.3079,6.3079,6.3079,6.3079,6.3079,6.3079]}]]